[[{"header":{"parameterUnit":"m.s-1","parameterCategory":1,"la1":30.6,"la2":28.766,"lo1":-90.7593,"lo2":-88.6598,"dy":0.0162,"dx":0.0183,"nx":116,"ny":114,"refTime":"2024-02-16T06:00:00:Z","depth":0,"parameterNumber":2,"parameterNumberName":"U-component_of_WINDS"},"data":[0.0,0.0,0.0,0.0,0.0,0.0,0.0,0.0,0.0,0.0,0.0,0.0,0.0,0.0,0.0,0.0,0.0,0.0,0.0,0.0,0.0,0.0,0.0,0.0,0.0,0.0,0.0,0.0,0.0,0.0,0.0,0.0,0.0,0.0,0.0,0.0,0.0,0.0,0.0,0.0,0.0,0.0,0.0,0.0,0.0,0.0,0.0,0.0,0.0,0.0,0.0,0.0,0.0,0.0,0.0,0.0,0.0,0.0,0.0,0.0,0.0,0.0,0.0,0.0,0.0,0.0,0.0,0.0,0.0,0.0,0.0,0.0,0.0,0.0,0.0,0.0,0.0,0.0,0.0,0.0,0.0,0.0,0.0,0.0,0.0,0.0,0.0,0.0,0.0,0.0,0.0,0.0,0.0,0.0,0.0,0.0,0.0,0.0,0.0,0.0,0.0,0.0,0.0,0.0,0.0,0.0,0.0,0.0,0.0,0.0,0.0,0.0,0.0,0.0,0.0,0.0,0.0,0.0,0.0,0.0,0.0,0.0,0.0,0.0,0.0,0.0,0.0,0.0,0.0,0.0,0.0,0.0,0.0,0.0,0.0,0.0,0.0,0.0,0.0,0.0,0.0,0.0,0.0,0.0,0.0,0.0,0.0,0.0,0.0,0.0,0.0,0.0,0.0,0.0,0.0,0.0,0.0,0.0,0.0,0.0,0.0,0.0,0.0,0.0,0.0,0.0,0.0,0.0,0.0,0.0,0.0,0.0,0.0,0.0,0.0,0.0,0.0,0.0,0.0,0.0,0.0,0.0,0.0,0.0,0.0,0.0,0.0,0.0,0.0,0.0,0.0,0.0,0.0,0.0,0.0,0.0,0.0,0.0,0.0,0.0,0.0,0.0,0.0,0.0,0.0,0.0,0.0,0.0,0.0,0.0,0.0,0.0,0.0,0.0,0.0,0.0,0.0,0.0,0.0,0.0,0.0,0.0,0.0,0.0,0.0,0.0,0.0,0.0,0.0,0.0,0.0,0.0,0.0,0.0,0.0,0.0,0.0,0.0,0.0,0.0,0.0,0.0,0.0,0.0,0.0,0.0,0.0,0.0,0.0,0.0,0.0,0.0,0.0,0.0,0.0,0.0,0.0,0.0,0.0,0.0,0.0,0.0,0.0,0.0,0.0,0.0,0.0,0.0,0.0,0.0,0.0,0.0,0.0,0.0,0.0,0.0,0.0,0.0,0.0,0.0,0.0,0.0,0.0,0.0,0.0,0.0,0.0,0.0,0.0,0.0,0.0,0.0,0.0,0.0,0.0,0.0,0.0,0.0,0.0,0.0,0.0,0.0,0.0,0.0,0.0,0.0,0.0,0.0,0.0,0.0,0.0,0.0,0.0,0.0,0.0,0.0,0.0,0.0,0.0,0.0,0.0,0.0,0.0,0.0,0.0,0.0,0.0,0.0,0.0,0.0,0.0,0.0,0.0,0.0,0.0,0.0,0.0,0.0,0.0,0.0,0.0,0.0,0.0,0.0,0.0,0.0,0.0,0.0,0.0,0.0,0.0,0.0,0.0,0.0,0.0,0.0,0.0,0.0,0.0,0.0,0.0,0.0,0.0,0.0,0.0,0.0,0.0,0.0,0.0,0.0,0.0,0.0,0.0,0.0,0.0,0.0,0.0,0.0,0.0,0.0,0.0,0.0,0.0,0.0,0.0,0.0,0.0,0.0,0.0,0.0,0.0,0.0,0.0,0.0,0.0,0.0,0.0,0.0,0.0,0.0,0.0,0.0,0.0,0.0,0.0,0.0,0.0,0.0,0.0,0.0,0.0,0.0,0.0,0.0,0.0,0.0,0.0,0.0,0.0,0.0,0.0,0.0,0.0,0.0,0.0,0.0,0.0,0.0,0.0,0.0,0.0,0.0,0.0,0.0,0.0,0.0,0.0,0.0,0.0,0.0,0.0,0.0,0.0,0.0,0.0,0.0,0.0,0.0,0.0,0.0,0.0,0.0,0.0,0.0,0.0,0.0,0.0,0.0,0.0,0.0,0.0,0.0,0.0,0.0,0.0,0.0,0.0,0.0,0.0,0.0,0.0,0.0,0.0,0.0,0.0,0.0,0.0,0.0,0.0,0.0,0.0,0.0,0.0,0.0,0.0,0.0,0.0,0.0,0.0,0.0,0.0,0.0,0.0,0.0,0.0,0.0,0.0,0.0,0.0,0.0,0.0,0.0,0.0,0.0,0.0,0.0,0.0,0.0,0.0,0.0,0.0,0.0,0.0,0.0,0.0,0.0,0.0,0.0,0.0,0.0,0.0,0.0,0.0,0.0,0.0,0.0,0.0,0.0,0.0,0.0,0.0,0.0,0.0,0.0,0.0,0.0,0.0,0.0,0.0,0.0,0.0,0.0,0.0,0.0,0.0,0.0,0.0,0.0,0.0,0.0,0.0,0.0,0.0,0.0,0.0,0.0,0.0,0.0,0.0,0.0,0.0,0.0,0.0,0.0,0.0,0.0,0.0,0.0,0.0,0.0,0.0,0.0,0.0,0.0,0.0,0.0,0.0,0.0,0.0,0.0,0.0,0.0,0.0,0.0,0.0,0.0,0.0,0.0,0.0,0.0,0.0,0.0,0.0,0.0,0.0,0.0,0.0,0.0,0.0,0.0,0.0,0.0,0.0,0.0,0.0,0.0,0.0,0.0,0.0,0.0,0.0,0.0,0.0,0.0,0.0,0.0,0.0,0.0,0.0,0.0,0.0,0.0,0.0,0.0,0.0,0.0,0.0,0.0,0.0,0.0,0.0,0.0,0.0,0.0,0.0,0.0,0.0,0.0,0.0,0.0,0.0,0.0,0.0,0.0,0.0,0.0,0.0,0.0,0.0,0.0,0.0,0.0,0.0,0.0,0.0,0.0,0.0,0.0,0.0,0.0,0.0,0.0,0.0,0.0,0.0,0.0,0.0,0.0,0.0,0.0,0.0,0.0,0.0,0.0,0.0,0.0,0.0,0.0,0.0,0.0,0.0,0.0,0.0,0.0,0.0,0.0,0.0,0.0,0.0,0.0,0.0,0.0,0.0,0.0,0.0,0.0,0.0,0.0,0.0,0.0,0.0,0.0,0.0,0.0,0.0,0.0,0.0,0.0,0.0,0.0,0.0,0.0,0.0,0.0,0.0,0.0,0.0,0.0,0.0,0.0,0.0,0.0,0.0,0.0,0.0,0.0,0.0,0.0,0.0,0.0,0.0,0.0,0.0,0.0,0.0,0.0,0.0,0.0,0.0,0.0,0.0,0.0,0.0,0.0,0.0,0.0,0.0,0.0,0.0,0.0,0.0,0.0,0.0,0.0,0.0,0.0,0.0,0.0,0.0,0.0,0.0,0.0,0.0,0.0,0.0,0.0,0.0,0.0,0.0,0.0,0.0,0.0,0.0,0.0,0.0,0.0,0.0,0.0,0.0,0.0,0.0,0.0,0.0,0.0,0.0,0.0,0.0,0.0,0.0,0.0,0.0,0.0,0.0,0.0,0.0,0.0,0.0,0.0,0.0,0.0,0.0,0.0,0.0,0.0,0.0,0.0,0.0,0.0,0.0,0.0,0.0,0.0,0.0,0.0,0.0,0.0,0.0,0.0,0.0,0.0,0.0,0.0,0.0,0.0,0.0,0.0,0.0,0.0,0.0,0.0,0.0,0.0,0.0,0.0,0.0,0.0,0.0,0.0,0.0,0.0,0.0,0.0,0.0,0.0,0.0,0.0,0.0,0.0,0.0,0.0,0.0,0.0,0.0,0.0,0.0,0.0,0.0,0.0,0.0,0.0,0.0,0.0,0.0,0.0,0.0,0.0,0.0,0.0,0.0,0.0,0.0,0.0,0.0,0.0,0.0,0.0,0.0,0.0,0.0,0.0,0.0,0.0,0.0,0.0,0.0,0.0,0.0,0.0,0.0,0.0,0.0,0.0,0.0,0.0,0.0,0.0,0.0,0.0,0.0,0.0,0.0,0.0,0.0,0.0,0.0,0.0,0.0,0.0,0.0,0.0,0.0,0.0,0.0,0.0,0.0,0.0,0.0,0.0,0.0,0.0,0.0,0.0,0.0,0.0,0.0,0.0,0.0,0.0,0.0,0.0,0.0,0.0,0.0,0.0,0.0,0.0,0.0,0.0,0.0,0.0,0.0,0.0,0.0,0.0,0.0,0.0,0.0,0.0,0.0,0.0,0.0,0.0,0.0,0.0,0.0,0.0,0.0,0.0,0.0,0.0,0.0,0.0,0.0,0.0,0.0,0.0,0.0,0.0,0.0,0.0,0.0,0.0,0.0,0.0,0.0,0.0,0.0,0.0,0.0,0.0,0.0,0.0,0.0,0.0,0.0,0.0,0.0,0.0,0.0,0.0,0.0,0.0,0.0,0.0,0.0,0.0,0.0,0.0,0.0,0.0,0.0,0.0,0.0,0.0,0.0,0.0,0.0,0.0,0.0,0.0,0.0,0.0,0.0,0.0,0.0,0.0,0.0,0.0,0.0,0.0,0.0,0.0,0.0,0.0,0.0,0.0,0.0,0.0,0.0,0.0,0.0,0.0,0.0,0.0,0.0,0.0,0.0,0.0,0.0,0.0,0.0,0.0,0.0,0.0,0.0,0.0,0.0,0.0,0.0,0.0,0.0,0.0,0.0,0.0,0.0,0.0,0.0,0.0,0.0,0.0,0.0,0.0,0.0,0.0,0.0,0.0,0.0,0.0,0.0,0.0,0.0,0.0,0.0,0.0,0.0,0.0,0.0,0.0,0.0,0.0,0.0,0.0,0.0,0.0,0.0,0.0,0.0,0.0,0.0,0.0,0.0,0.0,0.0,0.0,0.0,0.0,0.0,0.0,0.0,0.0,0.0,0.0,0.0,0.0,0.0,0.0,0.0,0.0,0.0,0.0,0.0,0.0,0.0,0.0,0.0,0.0,0.0,0.0,0.0,0.0,0.0,0.0,0.0,0.0,0.0,0.0,0.0,0.0,0.0,0.0,0.0,0.0,0.0,0.0,0.0,0.0,0.0,0.0,0.0,0.0,0.0,0.0,0.0,0.0,0.0,0.0,0.0,0.0,0.0,0.0,0.0,0.0,0.0,0.0,0.0,0.0,0.0,0.0,0.0,0.0,0.0,0.0,0.0,0.0,0.0,0.0,0.0,0.0,0.0,0.0,0.0,0.0,0.0,0.0,0.0,0.0,0.0,0.0,0.0,0.0,0.0,0.0,0.0,0.0,0.0,0.0,0.0,0.0,0.0,0.0,0.0,0.0,0.0,0.0,0.0,0.0,0.0,0.0,0.0,0.0,0.0,0.0,0.0,0.0,0.0,0.0,0.0,0.0,0.0,0.0,0.0,0.0,0.0,0.0,0.0,0.0,0.0,0.0,0.0,0.0,0.0,0.0,0.0,0.0,0.0,0.0,0.0,0.0,0.0,0.0,0.0,0.0,0.0,0.0,0.0,0.0,0.0,0.0,0.0,0.0,0.0,0.0,0.0,0.0,0.0,0.0,0.0,0.0,0.0,0.0,0.0,0.0,0.0,0.0,0.0,0.0,0.0,0.0,0.0,0.0,0.0,0.0,0.0,0.0,0.0,0.0,0.0,0.0,0.0,0.0,0.0,0.0,0.0,0.0,0.0,0.0,0.0,0.0,0.0,0.0,0.0,0.0,0.0,0.0,0.0,0.0,0.0,0.0,0.0,0.0,0.0,0.0,0.0,0.0,0.0,0.0,0.0,0.0,0.0,0.0,0.0,0.0,0.0,0.0,0.0,0.0,0.0,0.0,0.0,0.0,0.0,0.0,0.0,0.0,0.0,0.0,0.0,0.0,0.0,0.0,0.0,0.0,0.0,0.0,0.0,0.0,0.0,0.0,0.0,0.0,0.0,0.0,0.0,0.0,0.0,0.0,0.0,0.0,0.0,0.0,0.0,0.0,0.0,0.0,0.0,0.0,0.0,0.0,0.0,0.0,0.0,0.0,0.0,0.0,0.0,0.0,0.0,0.0,0.0,0.0,0.0,0.0,0.0,0.0,0.0,0.0,0.0,0.0,0.0,0.0,0.0,0.0,0.0,0.0,0.0,0.0,0.0,0.0,0.0,0.0,4.5863,4.4106,0.0,0.0,0.0,0.0,0.0,0.0,0.0,0.0,0.0,0.0,0.0,0.0,0.0,0.0,0.0,0.0,0.0,0.0,0.0,0.0,0.0,0.0,0.0,0.0,0.0,0.0,0.0,0.0,0.0,0.0,0.0,0.0,0.0,0.0,3.0613,3.0621,3.087,3.1266,3.1732,3.2601,3.3813,3.3837,3.407,3.4497,0.0,0.0,0.0,0.0,0.0,0.0,0.0,0.0,0.0,0.0,0.0,0.0,0.0,0.0,0.0,0.0,0.0,0.0,0.0,0.0,0.0,0.0,0.0,0.0,0.0,0.0,0.0,0.0,0.0,0.0,0.0,0.0,0.0,0.0,0.0,0.0,0.0,0.0,0.0,0.0,0.0,0.0,0.0,0.0,0.0,0.0,0.0,0.0,0.0,0.0,0.0,0.0,0.0,0.0,0.0,0.0,0.0,0.0,0.0,0.0,0.0,0.0,0.0,0.0,0.0,0.0,0.0,0.0,0.0,0.0,4.758,4.6687,0.0,0.0,0.0,0.0,0.0,0.0,0.0,0.0,0.0,0.0,0.0,0.0,0.0,0.0,0.0,0.0,0.0,0.0,0.0,0.0,0.0,0.0,0.0,3.0141,3.0715,3.0894,3.0894,3.118,3.1844,3.19,3.19,3.1882,3.1766,3.1426,3.0823,3.0886,3.1321,3.2128,3.3502,3.5002,3.6472,3.6634,3.6315,3.5577,0.0,0.0,0.0,0.0,0.0,0.0,0.0,0.0,0.0,0.0,0.0,0.0,0.0,0.0,0.0,0.0,0.0,0.0,0.0,0.0,0.0,0.0,0.0,0.0,0.0,0.0,0.0,0.0,0.0,0.0,0.0,0.0,0.0,0.0,0.0,0.0,0.0,0.0,0.0,0.0,0.0,0.0,0.0,0.0,0.0,0.0,0.0,0.0,0.0,0.0,0.0,0.0,0.0,0.0,0.0,0.0,0.0,0.0,0.0,0.0,0.0,0.0,0.0,0.0,4.8782,4.9263,4.9965,5.0503,5.0859,5.0945,4.9696,5.0008,5.1258,4.915,0.0,0.0,0.0,0.0,0.0,0.0,0.0,0.0,0.0,0.0,0.0,0.0,0.0,0.0,0.0,0.0,0.0,0.0,0.0,0.0,0.0,3.0164,3.0971,3.167,3.1732,3.1792,3.1909,3.1909,3.1909,3.1909,3.1164,3.1056,3.1709,3.1748,3.2198,3.3128,3.62,3.8213,3.9198,3.9908,4.016,3.9857,3.7667,0.0,0.0,0.0,0.0,0.0,0.0,0.0,0.0,0.0,0.0,0.0,0.0,0.0,0.0,0.0,0.0,0.0,0.0,0.0,0.0,0.0,0.0,0.0,0.0,0.0,0.0,0.0,0.0,0.0,0.0,0.0,0.0,0.0,0.0,0.0,0.0,0.0,0.0,0.0,0.0,0.0,0.0,0.0,4.5346,4.557,0.0,0.0,0.0,0.0,0.0,0.0,0.0,0.0,0.0,0.0,0.0,0.0,0.0,4.7142,4.7174,5.0231,5.1833,5.2064,5.3509,5.4294,5.442,5.3795,5.3912,5.4654,5.5162,0.0,5.1375,5.1023,0.0,0.0,0.0,0.0,0.0,0.0,0.0,0.0,0.0,0.0,0.0,0.0,0.0,0.0,0.0,0.0,0.0,0.0,0.0,0.0,0.0,3.146,3.2819,3.2703,3.4451,3.4917,3.3447,3.4279,3.4162,3.2701,3.274,3.2757,3.2695,3.2703,3.3845,3.6168,3.9108,4.0994,4.184,4.2067,4.2163,4.2112,4.0887,3.9883,3.9054,3.8694,0.0,0.0,0.0,0.0,0.0,0.0,0.0,0.0,0.0,0.0,0.0,0.0,0.0,0.0,0.0,0.0,0.0,0.0,0.0,0.0,0.0,0.0,0.0,0.0,0.0,0.0,0.0,0.0,0.0,0.0,0.0,0.0,0.0,0.0,0.0,0.0,0.0,0.0,0.0,4.3112,4.4646,4.4646,4.4724,4.3898,0.0,0.0,0.0,0.0,0.0,0.0,0.0,0.0,0.0,4.9698,5.0197,5.1123,5.2617,5.4095,5.5098,5.5591,5.6328,5.6914,5.7426,5.6528,5.6333,5.6762,5.7621,5.6606,5.4264,5.3795,5.278,5.1336,0.0,0.0,0.0,0.0,4.7463,4.7971,0.0,0.0,0.0,0.0,0.0,0.0,0.0,0.0,0.0,0.0,0.0,0.0,3.0341,3.3068,3.4777,3.4622,3.6744,3.7242,3.5305,3.5788,3.5244,3.3308,3.3425,3.3472,3.3293,3.4156,3.6301,3.9691,4.181,4.3277,4.416,4.3969,4.3891,4.3877,4.3959,4.2996,4.1285,4.1079,3.9609,0.0,0.0,0.0,0.0,0.0,0.0,0.0,0.0,0.0,0.0,0.0,0.0,0.0,0.0,0.0,0.0,0.0,0.0,0.0,0.0,0.0,0.0,0.0,0.0,0.0,0.0,0.0,0.0,0.0,0.0,0.0,0.0,0.0,0.0,0.0,0.0,0.0,0.0,4.4102,4.5248,4.4578,4.587,4.5433,0.0,0.0,0.0,0.0,0.0,0.0,4.7971,4.8496,5.0112,5.3152,5.3553,5.4732,5.6909,5.736,5.7773,5.8128,5.8128,5.8363,5.8753,5.7894,5.7504,5.7543,5.8402,5.7933,5.6567,5.6138,5.4927,5.3171,5.1449,5.0785,5.0707,5.0044,5.02,5.0902,0.0,0.0,0.0,0.0,0.0,0.0,0.0,0.0,0.0,0.0,0.0,3.1255,3.2905,3.4668,3.6394,3.7996,3.7529,3.7102,3.6985,3.4807,3.3439,3.3293,3.1739,3.1661,3.3254,3.6464,3.9799,4.3238,4.4132,4.5015,4.5875,4.5815,4.5736,4.5703,4.6381,4.5329,4.2919,4.2179,4.0785,3.8946,0.0,0.0,0.0,0.0,0.0,0.0,0.0,0.0,0.0,0.0,0.0,0.0,0.0,0.0,0.0,0.0,0.0,0.0,0.0,0.0,0.0,0.0,0.0,0.0,0.0,0.0,0.0,0.0,0.0,0.0,0.0,0.0,0.0,0.0,0.0,0.0,0.0,0.0,0.0,4.7484,5.0187,0.0,0.0,0.0,0.0,4.5969,4.7573,4.8934,4.9737,5.1394,5.3175,5.5015,5.5927,5.6875,5.7812,5.9397,5.9807,5.9026,5.9026,5.8636,5.7855,5.7035,5.6645,5.6723,5.7504,5.7387,5.6645,5.7387,5.6684,5.5005,5.324,5.2572,5.2572,5.2533,5.2533,5.2689,0.0,0.0,0.0,0.0,0.0,0.0,0.0,0.0,2.7777,2.8042,3.0581,3.2601,3.3215,3.6759,3.9129,3.9216,4.0952,4.1349,3.9707,3.7693,3.6331,3.5764,3.4078,3.4225,3.6518,3.9945,4.2267,4.3441,4.4838,4.5646,4.5786,4.5771,4.5665,4.5494,4.5649,4.5245,4.4441,4.4116,4.2986,4.1323,4.0004,3.8327,0.0,0.0,0.0,0.0,0.0,0.0,0.0,0.0,0.0,0.0,0.0,0.0,0.0,0.0,0.0,0.0,0.0,0.0,0.0,0.0,0.0,0.0,0.0,0.0,0.0,0.0,0.0,0.0,0.0,0.0,0.0,0.0,0.0,0.0,0.0,0.0,0.0,4.8468,5.0821,0.0,4.9226,4.9595,4.9798,4.942,5.1026,5.2679,5.409,5.4752,5.6182,5.8453,5.8384,5.8672,5.9492,5.9607,5.9442,5.9104,5.9104,5.8948,5.8597,5.7777,5.7387,5.7387,5.766,5.7348,5.6645,5.7465,5.7153,5.602,5.4845,5.4377,5.4298,5.3752,5.3557,5.3596,0.0,0.0,0.0,0.0,0.0,0.0,0.0,0.0,2.8197,2.8508,3.1591,3.3961,3.4536,3.8391,4.0956,4.0994,4.3061,4.3419,4.1146,3.9373,3.7739,3.6301,3.5663,3.6742,3.9625,4.1908,4.3335,4.3857,4.4626,4.5079,4.5256,4.5208,4.5204,4.5321,4.5464,4.5573,4.5589,4.5741,4.4905,4.3412,4.264,4.0995,3.8823,0.0,0.0,0.0,0.0,0.0,0.0,0.0,0.0,0.0,0.0,0.0,0.0,0.0,0.0,0.0,0.0,0.0,0.0,0.0,0.0,0.0,0.0,0.0,0.0,0.0,0.0,0.0,0.0,0.0,0.0,0.0,0.0,0.0,0.0,4.8302,5.0588,4.8895,5.2028,5.3419,5.1078,5.223,5.2853,5.2146,5.3494,5.4849,5.5978,5.6329,5.742,5.9474,5.9042,5.914,6.0,5.918,5.8746,5.8683,5.8406,5.8246,5.8246,5.766,5.7387,5.7387,5.7074,5.6645,5.6216,5.6723,5.6645,5.6138,5.5864,5.5552,5.524,5.4654,5.4264,5.3912,0.0,0.0,0.0,0.0,0.0,0.0,0.0,2.7032,2.8392,2.9292,3.246,3.5259,3.6906,3.9449,4.1673,4.3315,4.3527,4.2836,4.1146,3.9334,3.7179,3.4667,3.6289,3.883,4.2151,4.2286,4.3119,4.4711,4.3659,4.3559,4.4376,4.4149,4.4499,4.5301,4.6015,4.6351,4.6382,4.6879,4.6323,4.5038,4.4965,4.3956,4.22,0.0,0.0,0.0,0.0,0.0,0.0,0.0,0.0,0.0,0.0,0.0,0.0,0.0,0.0,0.0,0.0,0.0,0.0,0.0,0.0,0.0,0.0,0.0,0.0,0.0,0.0,0.0,0.0,0.0,0.0,0.0,0.0,0.0,4.6124,4.9158,5.0782,4.9148,5.4177,5.6496,5.3214,5.5085,5.5801,5.4142,5.4762,5.5247,5.5278,5.609,5.694,5.7806,5.7894,5.832,5.914,5.8281,5.7811,5.7804,5.693,5.6528,5.6528,5.6567,5.6528,5.6489,5.563,5.5279,5.524,5.5279,5.5318,5.5396,5.6255,5.6059,5.5318,5.5318,5.4693,5.3678,0.0,0.0,0.0,0.0,0.0,0.0,0.0,2.7032,2.8392,2.9292,3.2943,3.5904,3.6984,3.9945,4.2044,4.251,4.2624,4.2447,4.1885,3.851,3.62,3.5482,3.8878,4.1529,4.3122,4.4344,4.4831,4.4537,4.4211,4.4058,4.4097,4.3558,4.3886,4.5019,4.4646,4.4744,4.5256,4.6488,4.6807,4.644,4.6393,4.503,4.3114,0.0,0.0,0.0,0.0,0.0,0.0,0.0,0.0,0.0,0.0,0.0,0.0,0.0,0.0,0.0,0.0,0.0,0.0,0.0,0.0,0.0,0.0,0.0,0.0,0.0,0.0,0.0,0.0,0.0,0.0,0.0,4.625,4.8893,4.8844,5.1314,5.3397,5.4186,5.5754,5.6914,5.7226,5.6852,5.6614,5.6737,5.6422,5.645,5.7048,5.729,5.785,5.8804,5.824,5.8008,5.8242,5.6758,5.6014,5.6007,5.5134,5.4693,5.4732,5.5357,5.5318,5.4732,5.5123,5.4927,5.442,5.5044,5.5318,5.5396,5.6255,5.6059,5.5318,5.5318,5.3951,5.1882,0.0,0.0,0.0,0.0,0.0,0.0,0.0,2.7032,2.8392,2.9292,3.3138,3.6129,3.6984,3.9829,4.1703,4.1703,4.2088,4.1669,4.0166,3.7747,3.7148,0.0,0.0,4.3306,4.4499,4.5138,4.5156,4.4496,4.406,4.3897,4.4037,4.3579,4.3916,4.4876,4.4773,4.5092,4.579,4.6995,4.7725,4.8063,4.8002,4.6974,4.5396,4.4777,4.3728,4.2521,4.1893,4.2033,4.2476,4.2026,0.0,0.0,0.0,0.0,0.0,0.0,0.0,0.0,0.0,0.0,0.0,0.0,0.0,0.0,0.0,0.0,0.0,0.0,0.0,0.0,0.0,0.0,0.0,0.0,4.8377,5.0759,5.1435,5.3169,5.4747,5.5769,5.6549,5.7282,5.7916,5.7498,5.7185,5.7282,5.6871,5.6793,5.7265,5.729,5.7551,5.8086,5.7265,5.6797,5.6797,5.5078,5.4374,5.4757,5.3884,5.3639,5.4029,5.4537,5.4498,5.4029,5.4147,5.4147,5.4029,5.4537,5.4966,5.5357,0.0,0.0,0.0,0.0,5.2702,5.1141,0.0,0.0,0.0,0.0,0.0,0.0,0.0,2.7032,2.843,2.9408,3.3215,3.6129,3.6984,3.9332,4.0866,4.0857,4.1466,4.054,3.7444,3.7325,0.0,4.3189,4.3539,4.4372,4.5953,4.5219,4.4718,4.4476,4.3547,4.3463,4.4077,4.3857,4.422,4.5066,4.566,4.6323,4.7165,4.7867,4.8589,4.9227,4.9415,4.8995,4.8039,4.5914,4.503,4.4685,4.2535,4.2297,4.2972,4.3019,0.0,0.0,0.0,0.0,0.0,0.0,0.0,0.0,0.0,0.0,0.0,0.0,0.0,0.0,0.0,0.0,0.0,0.0,0.0,0.0,0.0,0.0,0.0,0.0,5.0242,5.208,5.3724,5.4758,5.5302,5.5202,5.6698,5.7498,5.6797,5.7344,5.7461,5.6797,5.664,5.6601,5.6601,5.6597,0.0,0.0,0.0,5.539,5.5312,5.3672,5.3241,5.3974,5.3025,5.3053,5.3986,5.399,5.3951,5.3834,5.3249,5.3249,5.3717,5.4029,5.4537,5.5162,5.5162,5.4693,5.3795,5.2038,5.1336,5.1023,0.0,0.0,0.0,0.0,0.0,0.0,0.0,2.7032,2.867,3.0224,3.3565,3.6129,3.6984,3.881,3.9945,3.9936,3.9457,3.8883,3.8205,0.0,4.0121,4.2364,4.3811,4.4982,4.588,4.5686,4.5162,4.4261,4.4,4.3886,4.3916,4.3247,4.4059,4.6011,4.5407,4.5873,4.7212,4.7897,4.7883,4.7522,4.8933,4.8964,4.8243,4.8438,4.7717,4.6665,4.7365,4.7417,4.7146,4.7109,4.6312,4.5266,4.4683,0.0,0.0,0.0,0.0,0.0,0.0,0.0,0.0,0.0,0.0,0.0,0.0,0.0,0.0,0.0,0.0,0.0,0.0,0.0,0.0,4.825,5.128,5.3747,5.4773,5.5723,5.6035,5.5306,5.6131,5.7003,5.7577,5.7187,5.707,5.7617,5.6992,5.6601,5.6601,5.6599,5.6599,5.6601,5.6445,5.6015,5.5312,5.4258,5.3825,5.3994,5.239,0.0,5.4016,5.3986,5.3639,5.3014,5.4264,5.3717,5.2078,5.4186,5.4732,5.4264,5.4264,5.4147,5.3795,5.2038,5.0945,5.0321,0.0,0.0,0.0,0.0,0.0,0.0,0.0,2.6689,2.7971,2.9214,3.205,3.4381,3.5718,3.7,3.7747,3.7794,3.7366,3.7833,0.0,4.045,4.1879,4.4064,4.4948,4.5576,4.5893,4.6345,4.6225,4.5577,4.5953,4.6091,4.5934,4.5468,4.5833,4.6822,4.6354,4.6717,4.773,4.8055,4.792,4.7627,4.8514,4.8363,4.765,4.7972,4.7566,4.6937,4.7666,4.7996,4.8227,4.854,4.8243,4.7645,4.6973,4.5445,4.3479,0.0,0.0,0.0,0.0,0.0,0.0,0.0,0.0,0.0,0.0,0.0,0.0,0.0,0.0,4.351,4.5647,0.0,4.8794,5.1396,5.2989,5.4186,5.5028,5.563,5.595,5.5906,5.629,5.6714,5.7187,5.6875,5.6797,5.7226,5.6836,5.6601,5.6601,5.6601,5.6406,5.5976,5.5937,5.5547,5.4648,5.4219,5.3982,5.4002,5.3123,5.3152,5.3982,5.3986,5.3756,5.3366,5.3795,5.3756,5.3444,5.4771,5.4771,5.3951,5.3522,5.3093,5.2585,5.1726,5.1102,5.0672,0.0,0.0,0.0,0.0,0.0,0.0,0.0,2.6339,2.7233,2.8236,3.0489,3.2601,3.4171,3.5072,3.5507,3.5405,3.5966,3.7553,0.0,4.182,4.353,4.5998,4.6056,4.6064,4.615,4.6887,4.7262,4.7249,4.7846,4.8105,4.801,4.7907,4.7785,4.772,4.7669,4.7964,4.8528,4.8469,4.8363,4.8183,4.8363,4.7733,4.6727,4.6899,4.6763,4.6501,4.6531,4.6973,4.7666,4.8576,4.892,4.8942,4.8711,4.7591,4.5946,4.3632,4.245,0.0,0.0,0.0,0.0,0.0,0.0,0.0,0.0,0.0,4.2762,4.4598,4.4986,4.588,4.8794,4.9765,5.1202,5.4465,5.4232,5.4069,5.5177,5.5179,5.5351,5.6249,5.6484,5.6601,5.6601,5.6601,5.6601,5.6601,5.6601,5.6601,5.6601,5.6601,5.6289,5.5586,5.5546,5.5116,5.4257,5.4061,5.4097,5.4242,5.3738,5.3766,5.422,5.3912,5.3756,5.3717,5.2819,5.3522,5.5279,5.4927,5.4381,5.3678,5.2975,5.2156,5.1414,5.1414,5.1414,5.1297,0.0,0.0,0.0,0.0,0.0,0.0,0.0,0.0,2.7466,2.9059,3.0846,3.2361,3.3332,3.4156,3.435,3.365,3.637,0.0,3.9781,4.2053,4.4171,4.5998,4.6076,4.6396,4.7039,4.7107,4.7448,4.8067,4.812,4.8049,4.7989,4.7969,4.8307,4.89,4.8618,4.8943,4.9711,4.9461,4.8896,4.8197,4.9008,4.7859,4.5828,4.7348,4.7035,4.5894,4.6555,4.6375,4.6113,4.7591,4.7628,4.7311,4.8926,4.8407,4.6746,4.4462,4.3292,4.1893,3.7895,3.88,4.1648,4.4799,4.5103,4.5608,0.0,0.0,4.7317,4.9804,5.0348,5.0658,5.1785,5.1474,5.194,5.4582,5.3727,5.3552,5.5918,5.5023,5.4452,5.5332,5.6129,5.6601,5.6601,5.6601,5.6601,5.6601,5.6601,5.6601,5.6601,5.6601,5.6562,5.6445,5.6434,5.6025,5.5166,5.4389,5.4381,5.5143,5.2796,5.2874,5.5031,5.3518,5.2858,5.278,5.1921,5.2975,5.5162,5.3639,5.2936,5.2819,5.2741,5.2156,5.1414,5.1414,5.1414,5.1375,0.0,0.0,0.0,0.0,0.0,0.0,0.0,0.0,0.0,2.856,2.9765,3.1047,3.2407,3.2842,3.2725,3.1856,3.5391,0.0,3.8887,4.2295,4.5026,4.6785,4.6873,4.7213,4.7999,4.8522,4.8914,4.9188,4.9582,4.9776,4.9743,4.9086,4.912,4.9755,4.8948,4.9029,4.9778,4.9582,4.8971,4.8183,4.8589,4.7808,4.6398,4.6615,4.6269,4.5735,4.6023,4.5282,0.0,0.0,4.6106,4.5781,4.7521,4.7061,4.5483,4.3535,4.2519,4.201,4.1931,4.203,4.3041,0.0,4.725,4.7504,4.9342,4.8895,4.8711,5.0791,5.1197,5.1458,5.2313,5.2574,5.2989,0.0,5.3327,5.3152,5.471,5.3969,5.3745,5.5126,5.5176,5.5287,5.5776,5.5853,5.605,5.6562,5.6133,5.6055,5.6562,5.6582,5.6372,5.5846,5.5851,5.5416,5.4537,5.4186,5.4181,5.4513,5.3431,5.3704,5.5182,5.4494,5.3951,5.3483,5.4147,5.3912,5.3053,5.3327,5.2858,5.1921,5.1921,5.1726,5.1414,5.1414,5.1414,5.1414,0.0,0.0,0.0,0.0,0.0,0.0,0.0,0.0,0.0,0.0,2.8968,3.0058,3.152,3.1682,3.1514,3.1086,0.0,0.0,0.0,4.2334,4.5346,4.731,4.763,4.8136,4.8954,4.9887,5.0422,5.0607,5.1139,5.1386,5.1305,5.0216,4.9931,5.032,4.9417,4.9257,4.975,4.9838,4.937,4.8589,4.8776,4.8251,4.7274,4.6636,4.581,4.505,4.474,4.3905,0.0,0.0,4.3847,4.3551,4.5153,4.481,4.3529,4.203,4.1,4.0902,4.362,4.3824,4.4034,4.7377,4.8405,4.8738,4.9236,4.9187,4.9439,5.0899,5.1385,5.1763,5.2375,5.2974,5.3468,5.3689,5.2899,5.2624,5.3758,5.3195,5.3178,5.4443,5.4422,5.4411,5.4587,5.4818,5.5212,5.5853,5.5506,5.5585,5.621,5.6454,5.6302,5.5694,5.5414,5.4989,5.4342,5.3865,5.3743,5.4006,5.3743,5.4055,5.4869,5.4689,5.4498,5.4381,5.5162,5.4225,5.2195,5.321,5.2741,5.1414,5.1414,5.1414,5.1414,5.1414,5.1414,5.1414,0.0,0.0,0.0,0.0,0.0,0.0,0.0,0.0,0.0,0.0,0.0,0.0,0.0,3.0845,3.113,3.1902,0.0,0.0,0.0,4.211,4.4694,4.7276,4.8223,4.905,4.9956,5.0744,5.1579,5.2417,5.2391,5.2305,5.2121,5.1134,5.0587,5.0478,5.0139,4.9959,4.9955,5.0493,5.0266,4.9527,5.0316,4.964,4.8138,4.8138,4.6177,4.3337,4.2509,0.0,0.0,4.138,4.0575,4.0123,4.182,4.1879,0.0,4.0163,3.8791,3.8099,4.02,4.1917,4.3775,4.6565,4.7908,4.9031,5.0647,5.0409,5.013,5.1006,5.1872,5.2485,5.2491,5.253,5.283,5.365,5.2407,5.194,5.3676,5.3202,5.2707,5.2772,5.4189,5.4528,0.0,5.3557,5.406,5.4078,5.4822,5.5304,5.5343,5.6131,5.6593,5.6563,5.575,5.5299,5.524,5.3526,5.3085,5.3972,5.3142,5.3181,5.4016,5.3166,5.3678,5.5162,5.3522,5.3249,5.3873,5.3053,5.2195,5.1414,5.1414,5.1414,5.1414,5.1414,5.1414,5.1414,0.0,0.0,0.0,0.0,0.0,0.0,0.0,0.0,0.0,0.0,0.0,0.0,0.0,0.0,0.0,0.0,0.0,0.0,0.0,4.0385,4.3233,4.6402,4.7977,4.9434,5.0813,5.1139,5.1676,5.2581,5.2553,5.2523,5.2441,5.1881,5.1563,5.1472,5.1037,5.1163,5.164,5.1654,5.1155,5.0378,5.061,5.0053,4.8889,4.7258,4.5604,4.3788,0.0,0.0,3.8093,3.7829,3.7192,3.6873,3.912,3.8958,3.7773,3.6977,3.7203,3.8223,4.07,0.0,4.3936,4.7235,4.7908,4.8172,4.9915,5.0121,5.0196,5.1101,5.011,4.9109,4.9139,4.9119,4.9225,4.9504,5.1035,5.2154,5.2155,5.2967,5.3325,5.2727,5.3657,0.0,0.0,0.0,5.3967,5.4,5.3732,5.4099,5.5248,5.5005,5.5348,5.6553,5.463,5.385,5.442,5.2689,5.2255,5.3152,5.3967,5.4557,5.4884,5.5162,5.4966,5.4459,5.442,5.36,5.2312,5.2585,5.2195,5.1414,5.1414,5.1414,5.1414,5.1414,5.1414,5.1414,0.0,0.0,0.0,0.0,0.0,0.0,0.0,0.0,0.0,0.0,0.0,0.0,0.0,0.0,0.0,0.0,0.0,0.0,0.0,0.0,4.1318,4.4137,4.5982,4.7439,4.8538,4.9169,5.0065,5.1195,5.1537,5.1996,5.2553,5.1981,5.1664,5.1524,5.114,5.1345,5.2009,5.1849,5.1209,5.0327,4.9995,4.9025,4.7492,4.5331,4.3841,0.0,0.0,0.0,3.5645,3.5342,3.4907,3.4756,3.6366,3.6425,3.5893,3.606,3.7083,3.8793,4.1508,4.2919,4.4292,4.7284,4.7663,4.7667,4.9098,4.9741,5.0065,5.0346,4.8803,4.7298,4.6978,4.7193,4.7301,4.7009,4.9644,5.1635,5.1365,5.2326,5.3091,5.3104,5.3845,5.4242,0.0,0.0,0.0,5.3576,5.3571,5.3855,5.4342,5.4401,5.4948,5.6098,5.3894,5.3113,5.399,5.2576,5.2455,5.3621,5.4674,5.5387,5.5747,5.5708,5.5396,5.4927,5.4537,5.36,5.2351,5.2585,5.2195,5.1414,5.1414,5.1414,5.1414,5.1414,5.1414,5.1414,0.0,0.0,0.0,0.0,0.0,0.0,0.0,0.0,0.0,0.0,0.0,0.0,0.0,0.0,0.0,0.0,0.0,0.0,0.0,0.0,0.0,4.0867,4.2555,4.3489,4.3592,4.5251,4.6933,4.8569,4.9442,5.0672,5.2222,5.1319,5.0748,5.0503,5.0335,5.055,5.1011,5.093,5.0307,4.9303,4.857,4.6769,4.4353,4.2812,0.0,0.0,0.0,0.0,3.4832,3.3998,3.3771,3.3865,3.3957,3.4562,3.5567,3.7336,3.8422,3.9623,4.236,4.3717,4.4807,4.6583,4.712,4.7439,4.8327,4.9207,4.9659,4.8904,4.7883,4.6886,0.0,0.0,4.7008,4.6385,4.856,5.059,5.1402,5.162,5.2239,0.0,0.0,0.0,0.0,0.0,0.0,5.2957,5.4337,5.4498,5.2858,5.4342,5.524,5.524,5.3587,5.3118,5.3912,5.3147,5.3571,5.5221,5.526,5.5738,5.6528,5.4888,5.5005,5.6333,5.3834,5.3171,5.3795,5.2975,5.2156,5.1414,5.1414,5.1414,5.1414,5.1414,5.1414,5.1414,0.0,0.0,0.0,0.0,0.0,0.0,0.0,0.0,0.0,0.0,0.0,0.0,0.0,0.0,0.0,0.0,0.0,0.0,0.0,0.0,0.0,0.0,0.0,0.0,0.0,0.0,0.0,4.6753,4.7657,4.8271,4.8729,4.8953,4.8709,4.8019,4.8337,4.8531,4.8671,4.8377,4.7424,4.6048,0.0,4.5402,4.3604,0.0,0.0,0.0,0.0,0.0,0.0,0.0,0.0,0.0,0.0,3.6878,3.7319,3.9106,4.0266,4.1294,4.2701,4.4238,4.5525,4.6032,4.6177,4.6484,4.7423,4.7874,4.8007,4.7844,4.557,4.3716,0.0,0.0,0.0,4.6878,5.0463,0.0,5.3317,5.4463,0.0,5.4033,0.0,5.5834,5.4987,5.5689,0.0,5.4728,5.445,5.4133,5.3704,5.4094,5.4333,5.4342,5.3284,5.2815,5.3014,5.3479,5.4216,5.5274,5.5938,5.6367,5.6567,5.6138,5.5474,5.4615,5.3951,5.3053,5.2038,5.1804,5.1609,5.1414,5.1414,5.1414,5.1414,5.1414,5.1414,5.1414,0.0,0.0,0.0,0.0,0.0,0.0,0.0,0.0,0.0,0.0,0.0,0.0,0.0,0.0,0.0,0.0,0.0,0.0,0.0,0.0,0.0,0.0,0.0,0.0,0.0,0.0,0.0,0.0,0.0,0.0,4.5732,4.6074,4.5968,4.5441,4.5659,4.5879,4.6101,4.5451,0.0,0.0,0.0,0.0,0.0,0.0,0.0,0.0,0.0,0.0,0.0,0.0,0.0,3.7781,3.8722,3.8984,3.9307,4.1062,0.0,4.2656,4.3989,4.5065,4.5854,4.5893,4.6224,4.6385,4.5784,4.6298,4.645,4.4947,4.3094,0.0,4.1848,4.3094,0.0,0.0,0.0,0.0,5.2812,5.3377,5.3811,0.0,5.4474,0.0,5.5231,5.5699,5.5933,5.5864,5.543,5.4801,5.4021,5.3982,5.3982,5.3982,5.3171,5.3053,5.3834,5.3951,5.4615,5.5864,5.6372,5.6606,5.6567,5.5825,5.5123,5.4498,5.3366,5.2507,5.1921,5.157,5.1414,5.1414,5.1414,5.1414,5.1414,5.1414,5.1414,5.1414,0.0,0.0,0.0,0.0,0.0,0.0,0.0,0.0,0.0,0.0,0.0,0.0,0.0,0.0,0.0,0.0,0.0,0.0,0.0,0.0,0.0,0.0,0.0,0.0,0.0,0.0,0.0,0.0,0.0,0.0,0.0,0.0,0.0,0.0,0.0,0.0,0.0,0.0,0.0,0.0,0.0,0.0,0.0,0.0,0.0,0.0,0.0,0.0,0.0,0.0,4.0331,3.9899,4.0819,4.1094,4.1338,4.3053,4.3466,4.375,4.5428,4.5917,4.598,4.6141,4.6698,4.661,4.4209,4.479,4.49,4.1529,0.0,4.0641,4.0011,4.2385,4.4417,4.4323,0.0,5.0544,5.1757,5.1187,5.1497,5.3908,5.3387,5.3459,5.4966,5.524,5.5591,5.6372,5.6528,5.5903,5.4264,5.4264,5.4298,5.4172,5.3323,5.3639,5.5279,5.4537,5.5005,5.6606,5.6606,5.6606,5.6528,5.4927,5.4537,5.5005,5.2624,5.1921,5.2468,5.1726,5.1414,5.1414,5.1414,5.1414,5.1414,5.1414,5.1414,5.1414,0.0,0.0,0.0,0.0,0.0,0.0,0.0,0.0,0.0,0.0,3.3222,0.0,0.0,0.0,0.0,0.0,0.0,0.0,0.0,0.0,0.0,0.0,0.0,0.0,0.0,0.0,0.0,0.0,0.0,0.0,0.0,0.0,0.0,0.0,0.0,0.0,0.0,0.0,0.0,0.0,0.0,0.0,0.0,0.0,0.0,0.0,0.0,0.0,0.0,0.0,4.2667,4.2667,4.3608,4.3337,4.3051,4.4899,4.4899,4.4525,4.5583,4.5953,4.6141,4.689,4.6668,4.5939,4.4832,4.4258,0.0,0.0,3.991,4.0104,4.0687,4.1848,4.388,4.7338,4.9146,5.1172,5.4203,5.3873,5.3752,0.0,5.4298,5.3908,5.4186,5.4888,0.0,5.5513,5.6177,5.6138,5.5123,5.5747,5.5825,5.5083,5.4225,5.4264,5.5279,5.5162,5.5591,5.6606,5.6606,5.6606,5.6567,5.5552,5.4771,5.4147,5.2975,5.2156,5.1609,5.1453,5.1414,5.1414,5.1414,5.1414,5.1414,5.1414,5.1414,5.1414,0.0,0.0,0.0,0.0,0.0,0.0,0.0,0.0,0.0,0.0,3.5837,3.6072,0.0,0.0,0.0,0.0,0.0,0.0,0.0,0.0,0.0,0.0,0.0,0.0,0.0,3.6673,3.6867,3.644,0.0,3.7489,3.7061,3.7061,3.7061,3.7053,3.688,0.0,0.0,0.0,0.0,0.0,0.0,0.0,0.0,0.0,0.0,0.0,0.0,0.0,0.0,0.0,4.2992,4.3627,4.4958,4.5064,4.4898,4.5784,4.5735,4.5491,4.5939,4.6085,4.6298,4.7202,4.6394,4.5101,4.3808,0.0,0.0,0.0,3.8019,3.8602,3.949,4.1085,0.0,4.5674,4.7949,4.9961,5.1695,5.2342,0.0,5.321,5.2893,5.2815,5.3288,5.3717,5.4147,5.4576,5.5435,5.5942,5.5981,5.5899,5.5699,5.527,5.445,5.4606,5.5894,5.5509,5.5747,5.6606,5.6606,5.6606,5.6567,5.5708,5.5083,5.4615,5.3756,5.3132,5.2702,5.2273,5.2078,5.2038,5.157,5.1414,5.1453,5.1921,5.1804,5.1453,0.0,0.0,0.0,0.0,0.0,0.0,0.0,3.3573,3.4666,3.7477,3.8414,3.8726,3.8414,3.7438,3.7009,0.0,0.0,0.0,0.0,0.0,0.0,0.0,0.0,0.0,0.0,0.0,0.0,3.609,3.6945,0.0,0.0,0.0,0.0,0.0,3.597,3.5813,3.5599,0.0,0.0,0.0,0.0,3.9105,0.0,0.0,0.0,0.0,0.0,0.0,0.0,0.0,4.2519,4.3288,4.4798,4.5437,4.5694,4.5881,4.5913,4.599,4.6388,4.6466,4.6707,4.7579,4.6605,4.4961,4.3016,4.1217,0.0,0.0,3.6479,3.7381,3.8252,0.0,4.2323,0.0,4.6163,4.8398,4.9,5.0265,5.1274,0.0,5.1523,0.0,5.2351,5.2585,0.0,5.3912,5.4966,5.5864,5.6567,5.5894,5.5499,5.5499,5.4875,5.5187,5.6514,5.5899,5.5903,5.6606,5.6606,5.6606,5.6567,5.5708,5.5318,5.524,5.4381,5.399,5.3912,5.3053,5.2702,5.2624,5.196,5.1687,5.1765,5.2663,5.2546,5.2038,0.0,0.0,0.0,0.0,0.0,0.0,0.0,3.4081,3.5798,3.9117,3.9624,4.0249,4.1771,4.0444,3.9195,0.0,0.0,0.0,0.0,0.0,0.0,0.0,0.0,0.0,0.0,0.0,0.0,3.6984,3.7838,0.0,0.0,0.0,0.0,0.0,0.0,3.6483,3.5699,3.5689,0.0,0.0,0.0,0.0,0.0,0.0,0.0,0.0,0.0,0.0,0.0,0.0,0.0,4.1388,4.2338,4.3202,4.3981,4.4783,0.0,0.0,4.6948,4.7384,4.7579,4.8475,4.7969,4.6598,4.4067,0.0,3.9918,3.6487,3.6479,3.7381,3.8252,3.9871,4.1668,0.0,0.0,4.7342,4.9664,5.0122,5.0824,5.239,0.0,0.0,5.1492,5.2234,5.3053,5.3912,5.5552,5.6528,5.6606,5.6528,5.6484,5.6484,5.6411,5.6445,5.6602,5.6528,5.6528,5.6606,5.6606,5.6606,5.6567,5.5708,5.5318,5.524,5.4381,5.399,5.3912,5.3053,5.2702,5.2702,5.2624,5.2585,5.2702,5.3561,5.3834,5.3756,0.0,0.0,0.0,0.0,0.0,0.0,0.0,3.4471,3.6111,4.0054,4.103,4.1849,4.306,4.2552,4.1381,0.0,0.0,0.0,0.0,0.0,0.0,0.0,0.0,0.0,0.0,0.0,3.8189,3.8645,3.8499,0.0,0.0,0.0,0.0,0.0,0.0,3.6897,3.653,3.653,0.0,0.0,0.0,0.0,0.0,0.0,0.0,0.0,0.0,0.0,0.0,0.0,0.0,0.0,4.0166,4.0563,0.0,0.0,4.4098,4.4565,4.6816,4.7447,4.7759,4.9177,4.7306,4.4883,4.3833,0.0,3.8167,3.6215,3.6479,3.7536,3.8913,3.9738,4.0967,0.0,0.0,0.0,4.8294,4.9454,5.0547,5.1765,5.1609,0.0,0.0,5.1718,5.2498,5.3904,5.5118,5.6059,5.6567,5.6606,5.6324,5.5762,5.5772,5.5772,5.5762,5.5772,5.605,5.6606,5.6606,5.6606,5.6606,5.6255,5.6098,5.6059,5.5708,5.5552,5.5513,5.4615,5.4264,5.4225,5.3678,5.3483,5.36,5.4459,5.4459,5.399,0.0,0.0,0.0,0.0,0.0,0.0,3.4315,3.4901,3.654,4.0561,4.1849,4.2747,4.3606,4.345,4.2669,4.1108,0.0,0.0,0.0,0.0,0.0,0.0,0.0,0.0,0.0,0.0,0.0,4.0065,3.9746,4.0002,0.0,0.0,3.9392,3.9082,0.0,0.0,0.0,0.0,0.0,0.0,0.0,0.0,0.0,0.0,0.0,0.0,0.0,0.0,0.0,0.0,0.0,0.0,0.0,0.0,0.0,0.0,4.3194,4.4175,4.6738,4.779,4.846,4.9683,4.7143,4.4214,0.0,0.0,3.7304,3.637,3.6673,3.7622,3.9365,3.9902,4.0703,4.2609,4.4061,4.5375,4.6651,4.8279,4.9645,5.0516,0.0,5.1019,5.1011,5.1713,5.2772,5.4255,5.5153,5.5938,5.6523,5.6558,5.6274,5.5594,5.5561,5.5561,5.5594,5.5567,5.5928,5.6606,5.6606,5.6606,5.6606,5.6606,5.6606,5.6606,5.6606,5.6606,5.6528,5.5669,5.5318,5.524,5.4615,5.4381,5.4498,5.5357,5.5318,5.4732,0.0,0.0,0.0,0.0,0.0,0.0,0.0,3.5447,3.7204,4.0639,4.1849,4.2747,4.3606,4.2942,4.2747,4.3606,0.0,0.0,0.0,0.0,0.0,0.0,0.0,0.0,0.0,0.0,0.0,0.0,0.0,4.2704,4.3559,4.2588,4.1684,4.083,0.0,0.0,0.0,0.0,0.0,0.0,0.0,0.0,0.0,0.0,0.0,0.0,0.0,0.0,0.0,0.0,0.0,0.0,0.0,3.8499,3.7653,0.0,4.2268,4.4184,4.6792,4.8709,4.9995,4.9995,4.8078,4.5726,0.0,0.0,3.8144,3.7264,3.71,3.7638,3.939,4.0395,4.1011,4.1094,4.3305,4.4996,4.5008,4.6483,4.7849,0.0,4.9579,5.0126,5.0126,5.2468,5.4342,5.5201,5.6045,5.6509,5.6509,5.6491,5.6491,5.6509,5.6491,5.6491,5.6509,5.6509,5.6514,5.6606,5.6606,5.6606,5.6606,5.6606,5.6606,5.6606,5.6606,5.6606,5.6528,5.5669,5.5318,5.5318,5.5279,5.5279,5.5396,5.6255,5.6567,5.645,0.0,0.0,0.0,0.0,0.0,0.0,0.0,3.5447,3.7009,3.9858,4.0952,4.2084,4.3528,4.345,4.3411,4.3684,0.0,0.0,0.0,0.0,0.0,0.0,0.0,0.0,0.0,0.0,0.0,0.0,0.0,0.0,0.0,4.3539,4.2656,4.1762,4.0907,4.0053,0.0,0.0,0.0,0.0,0.0,0.0,0.0,0.0,0.0,0.0,0.0,0.0,0.0,0.0,0.0,0.0,0.0,0.0,0.0,3.9863,4.0065,4.0735,4.3958,4.5212,4.5913,4.7042,4.497,4.251,4.1941,0.0,3.7436,3.7148,3.8517,4.013,4.1262,4.1741,4.2539,4.4354,4.4852,4.5395,0.0,0.0,0.0,5.0555,5.1874,5.2494,5.1854,5.3649,5.4937,5.5198,5.6023,5.6491,5.6491,5.6485,5.6212,5.5633,5.5627,5.5627,5.5594,5.5606,5.5923,5.6514,5.6563,5.6606,5.6606,5.6606,5.6606,5.6606,5.6606,5.6255,5.5708,5.5396,5.4966,5.442,5.442,5.442,5.4537,5.5396,5.5708,5.5669,0.0,0.0,0.0,0.0,0.0,0.0,0.0,3.5447,3.6813,3.9039,4.0093,4.1381,4.345,4.3411,4.3606,4.4582,0.0,0.0,0.0,0.0,0.0,0.0,0.0,0.0,0.0,0.0,0.0,0.0,0.0,0.0,0.0,0.0,0.0,4.3138,4.1936,0.0,0.0,0.0,0.0,0.0,0.0,0.0,4.3704,0.0,0.0,0.0,0.0,0.0,0.0,0.0,0.0,0.0,0.0,0.0,0.0,0.0,3.9069,3.9155,4.2649,4.3825,4.437,4.5771,4.328,4.0696,0.0,0.0,3.728,3.7965,3.9384,4.0799,4.1693,4.2145,4.2927,4.4575,4.5195,4.5863,0.0,0.0,0.0,5.1804,5.2576,5.3152,5.3532,5.4273,5.5003,5.5652,5.6205,5.6517,5.651,5.6503,5.6113,5.5223,5.5503,5.5698,5.5691,5.5672,5.5957,5.6509,5.6553,5.6563,5.6606,5.6606,5.6606,5.6567,5.6255,5.5786,0.0,5.5318,5.4966,5.4537,5.4849,5.4966,5.5044,5.5591,5.5786,5.5708,0.0,0.0,0.0,0.0,0.0,0.0,0.0,0.0,0.0,0.0,3.9312,4.0756,4.3255,4.2903,4.3489,0.0,0.0,0.0,0.0,0.0,0.0,0.0,0.0,0.0,0.0,0.0,0.0,4.3801,4.4527,4.5351,4.6169,0.0,0.0,0.0,0.0,0.0,0.0,0.0,0.0,0.0,4.1801,4.2151,0.0,0.0,0.0,0.0,0.0,0.0,0.0,0.0,0.0,0.0,0.0,0.0,0.0,0.0,0.0,0.0,0.0,4.3903,4.4642,4.5538,4.2688,4.0104,4.166,0.0,0.0,3.9357,3.9858,4.0242,4.1132,4.1914,4.2458,4.2633,4.4731,0.0,0.0,4.8634,0.0,0.0,5.2186,5.2645,5.4909,5.4557,5.4825,5.6368,5.6517,5.651,5.6496,5.6519,5.6129,5.5319,5.6081,5.6471,5.6418,5.64,5.6452,5.6503,5.6509,5.6553,5.6606,5.6606,5.6606,5.6567,5.5747,5.5357,5.5318,5.5318,5.524,5.5279,5.6098,5.6411,5.6406,5.6484,5.6484,5.6246,0.0,0.0,0.0,0.0,0.0,0.0,0.0,0.0,0.0,0.0,3.9312,4.0288,4.1576,4.2708,4.3645,0.0,0.0,0.0,0.0,0.0,0.0,0.0,0.0,0.0,0.0,0.0,0.0,4.4699,4.4862,4.5384,4.6211,4.5955,0.0,0.0,0.0,0.0,0.0,0.0,0.0,0.0,4.1374,4.1607,0.0,0.0,0.0,0.0,4.0985,4.0907,0.0,0.0,0.0,0.0,0.0,0.0,0.0,0.0,4.0535,4.0574,4.1397,0.0,4.1129,4.1984,4.0991,3.9869,0.0,0.0,0.0,0.0,0.0,4.2069,4.293,4.2729,4.3066,4.5043,4.5902,4.653,4.7147,5.0039,0.0,5.3591,5.4684,5.5075,5.4273,5.5243,5.6095,5.6464,5.6488,5.6519,5.6511,5.648,5.6402,5.6199,5.6386,5.6159,5.5521,5.5516,5.5828,5.651,5.6548,5.6558,5.6514,5.6563,5.6606,5.6606,5.6372,5.5903,5.5318,5.5318,5.4927,5.4342,5.4537,5.4562,5.4619,5.5288,5.5503,5.5397,0.0,0.0,0.0,0.0,0.0,0.0,0.0,0.0,0.0,0.0,0.0,0.0,0.0,0.0,0.0,0.0,0.0,0.0,0.0,0.0,0.0,0.0,0.0,0.0,0.0,0.0,0.0,0.0,0.0,4.5802,0.0,0.0,0.0,0.0,0.0,0.0,0.0,0.0,0.0,0.0,4.1102,0.0,0.0,0.0,0.0,0.0,4.0946,4.0935,0.0,4.0945,4.0955,4.0994,0.0,0.0,0.0,0.0,4.0991,4.0991,4.0991,4.0647,4.0526,4.1377,4.0671,3.9997,4.0777,0.0,0.0,0.0,0.0,0.0,4.2417,4.3063,4.402,0.0,4.703,0.0,0.0,5.1171,5.2733,5.4411,5.5031,5.5293,5.512,5.5588,5.6081,5.648,5.6519,5.6511,5.6503,5.6519,5.6324,5.5918,5.5514,5.5482,5.5779,5.5808,5.601,5.651,5.6536,5.6553,5.6558,5.6563,5.6606,5.6567,5.6177,5.5747,5.5318,5.5265,5.4752,5.3972,5.4351,5.4255,5.4008,5.4879,5.4904,5.4554,0.0,0.0,0.0,0.0,0.0,0.0,0.0,0.0,0.0,0.0,0.0,0.0,0.0,0.0,0.0,0.0,0.0,0.0,0.0,0.0,0.0,0.0,0.0,0.0,0.0,0.0,0.0,0.0,0.0,0.0,0.0,0.0,4.6289,0.0,0.0,0.0,0.0,0.0,0.0,0.0,4.0907,0.0,0.0,0.0,0.0,0.0,0.0,0.0,0.0,4.0989,4.1016,4.1038,4.1038,0.0,0.0,0.0,0.0,0.0,4.1004,4.1318,4.1709,4.2209,4.1355,4.0736,4.2021,0.0,0.0,0.0,0.0,0.0,0.0,4.3353,0.0,0.0,0.0,5.0962,5.2815,5.2459,5.2806,5.5036,5.4708,5.4807,5.6173,5.5737,5.5684,5.6433,5.648,5.648,5.6511,5.6503,5.6152,5.5411,5.4671,5.5022,5.6503,5.6098,5.6113,5.6517,5.6368,5.6386,5.6602,5.6606,5.6602,5.6523,5.5782,5.5465,5.546,5.5399,5.4879,5.4177,5.5007,5.4718,5.4009,5.4872,5.4624,5.3875,0.0,0.0,0.0,0.0,0.0,0.0,0.0,0.0,0.0,0.0,0.0,0.0,0.0,0.0,0.0,0.0,0.0,0.0,0.0,0.0,0.0,0.0,0.0,0.0,0.0,0.0,0.0,0.0,0.0,0.0,4.63,4.7045,4.6555,0.0,0.0,0.0,0.0,0.0,0.0,4.0907,4.0907,0.0,0.0,0.0,0.0,0.0,0.0,0.0,0.0,4.0984,4.1043,4.1093,4.1093,0.0,0.0,0.0,0.0,0.0,4.1082,4.2683,4.4054,4.2733,4.2733,4.2993,0.0,0.0,0.0,0.0,0.0,0.0,0.0,4.4099,4.4844,0.0,0.0,5.2064,5.4468,5.4757,5.4836,5.5191,5.575,5.5912,5.5432,5.5964,5.6379,5.6488,5.6519,5.6511,5.6503,5.6503,5.6425,5.6308,5.6152,5.623,5.6503,5.4305,5.4312,5.6496,5.575,5.5806,5.6509,5.6563,5.6553,5.6491,5.6374,5.6283,5.6215,5.6207,5.5701,5.4999,5.5918,5.5264,5.3916,5.4788,5.4509,5.3724,0.0,0.0,0.0,0.0,0.0,0.0,0.0,0.0,0.0,0.0,0.0,0.0,0.0,0.0,0.0,0.0,0.0,0.0,0.0,0.0,0.0,0.0,0.0,0.0,0.0,0.0,0.0,0.0,0.0,4.7002,4.7002,4.7393,4.6629,4.4921,0.0,0.0,0.0,0.0,4.1785,4.0961,0.0,0.0,0.0,0.0,0.0,0.0,0.0,0.0,0.0,0.0,4.1053,4.1087,4.1087,0.0,0.0,0.0,0.0,0.0,4.1108,4.2318,4.3606,4.3732,4.4429,0.0,0.0,0.0,0.0,0.0,0.0,0.0,0.0,0.0,4.7528,5.0961,5.181,5.2617,5.4261,5.4079,5.4103,5.5067,5.5506,5.5723,5.5825,5.6215,5.648,5.6519,5.6511,5.6503,5.6503,5.6503,5.6503,5.6503,5.5559,5.5277,5.5745,5.3135,5.3377,5.6441,5.6028,5.6081,5.6471,5.6478,5.6471,5.6457,5.6457,5.6457,5.6457,5.6394,5.5645,5.4476,5.4905,5.3964,5.2453,5.2835,5.333,5.3619,0.0,0.0,0.0,0.0,0.0,0.0,0.0,0.0,0.0,0.0,0.0,0.0,0.0,0.0,0.0,0.0,0.0,0.0,0.0,0.0,0.0,0.0,0.0,0.0,0.0,0.0,4.7081,4.6612,4.7081,4.7393,4.7588,4.7588,4.6742,0.0,0.0,0.0,0.0,0.0,4.2405,4.1579,0.0,0.0,0.0,0.0,0.0,0.0,0.0,0.0,0.0,0.0,0.0,0.0,0.0,0.0,0.0,4.1108,4.1108,4.1108,4.1108,4.1888,4.3056,4.4558,0.0,0.0,0.0,0.0,0.0,0.0,0.0,0.0,0.0,4.7533,5.0187,5.3001,5.3293,5.3428,5.4264,5.373,5.3786,5.5256,5.5335,5.5625,5.6611,5.6494,5.6494,5.6766,5.6572,5.6377,5.6182,5.6377,5.6299,5.587,5.4713,5.4315,5.4782,5.2816,5.3147,5.5792,5.5792,5.5918,5.6113,5.6324,5.6394,5.6377,5.6386,5.6433,5.6441,5.6407,5.5385,5.3896,5.4256,5.3447,5.208,5.1863,5.2624,5.358,0.0,0.0,0.0,0.0,0.0,0.0,0.0,0.0,0.0,0.0,0.0,0.0,0.0,0.0,0.0,0.0,0.0,0.0,0.0,0.0,0.0,0.0,0.0,0.0,0.0,4.6378,4.6768,4.751,4.6768,4.6807,4.7588,4.7588,4.7081,4.6225,0.0,0.0,0.0,0.0,4.4212,4.3339,4.2516,0.0,0.0,0.0,0.0,0.0,0.0,0.0,0.0,0.0,0.0,0.0,0.0,0.0,4.1108,4.1108,4.1108,4.1108,4.1108,4.2318,4.384,4.4774,0.0,0.0,0.0,0.0,0.0,0.0,0.0,0.0,0.0,4.9255,5.1258,5.231,5.3775,5.5022,5.5738,5.5782,5.5824,5.611,5.6057,5.646,5.7517,5.6835,5.668,5.7556,5.6865,5.6028,5.5229,5.5969,5.5657,5.4061,5.4645,5.4635,5.3896,5.3701,5.376,5.3983,5.3983,5.442,5.5225,5.6113,5.6402,5.6319,5.6368,5.6378,5.6317,5.6304,5.5294,5.3868,5.548,5.5608,5.4702,5.3831,5.3612,5.3689,0.0,0.0,0.0,0.0,0.0,0.0,0.0,0.0,0.0,0.0,0.0,0.0,0.0,0.0,0.0,0.0,0.0,0.0,0.0,0.0,0.0,0.0,0.0,4.6066,4.5519,4.6534,4.7002,4.6807,4.7002,4.7002,4.6807,4.7354,0.0,0.0,0.0,0.0,0.0,0.0,0.0,4.203,4.1678,4.1561,0.0,0.0,0.0,0.0,0.0,0.0,0.0,0.0,4.1108,4.1108,4.1108,4.1108,4.1108,4.1108,4.1108,4.1108,4.1108,4.2346,4.3739,4.4031,0.0,0.0,0.0,0.0,0.0,0.0,0.0,0.0,0.0,0.0,5.1889,5.2787,5.3846,5.4821,5.5595,5.5692,5.5692,5.5748,5.5788,5.598,5.6404,5.6203,5.6248,5.6666,5.6394,5.5874,5.5141,5.5413,5.5045,5.3905,5.3623,5.3302,5.2991,5.2435,5.2453,5.293,5.3524,5.4508,5.5819,5.5647,5.583,5.629,5.6314,5.6325,5.6314,5.6314,5.5614,5.4564,5.4645,5.4465,5.4129,5.3779,5.3635,5.3635,0.0,0.0,0.0,0.0,0.0,0.0,0.0,0.0,0.0,0.0,0.0,0.0,0.0,0.0,0.0,0.0,0.0,0.0,0.0,0.0,0.0,0.0,0.0,4.5441,4.5402,4.63,4.6612,4.63,4.7159,4.7276,4.6729,0.0,0.0,0.0,0.0,0.0,0.0,0.0,0.0,0.0,4.1615,4.1498,0.0,0.0,0.0,0.0,0.0,0.0,0.0,0.0,4.1108,4.1108,4.1108,4.1108,4.1104,4.1108,4.1296,4.1488,4.1488,4.2334,4.3317,0.0,0.0,0.0,0.0,0.0,0.0,0.0,0.0,0.0,0.0,0.0,0.0,5.2608,5.3546,5.4364,5.4902,5.5207,5.5399,5.5467,5.5477,5.5654,5.6038,5.5885,5.5998,5.6427,5.6233,5.5799,5.5141,5.508,5.4557,5.3476,5.2796,5.2463,5.2456,5.1897,5.1979,5.2795,5.3169,5.4257,5.5864,5.5578,5.5734,5.6291,5.6317,5.6302,5.6286,5.6286,5.5964,5.5369,5.444,5.4231,5.4435,5.442,5.4381,5.4366,0.0,0.0,0.0,0.0,0.0,0.0,0.0,0.0,0.0,0.0,0.0,0.0,0.0,0.0,0.0,0.0,0.0,0.0,0.0,0.0,0.0,0.0,0.0,4.4504,4.6222,4.5441,4.5441,4.63,4.7159,4.7588,4.7588,4.669,0.0,0.0,0.0,0.0,0.0,0.0,0.0,0.0,4.2747,4.2396,4.2279,0.0,0.0,0.0,0.0,0.0,0.0,0.0,4.1108,4.1108,4.1108,4.1101,4.1094,4.1104,4.1671,4.2304,4.2354,4.2348,4.2715,0.0,0.0,0.0,0.0,0.0,0.0,0.0,0.0,5.0752,5.0622,5.0548,5.0719,5.1376,5.2843,5.3899,5.3922,5.458,5.5157,5.5364,5.5352,5.5695,5.678,5.6088,5.6097,5.7185,5.6466,5.5744,5.513,5.5007,5.4218,5.2582,5.2441,5.2407,5.2407,5.2407,5.2834,5.3689,5.2795,5.33,5.5048,5.5897,5.6275,5.6291,5.6286,5.6275,5.6291,5.6291,5.6265,5.6121,5.5267,5.5433,5.618,5.6133,5.6078,5.6078,0.0,0.0,0.0,0.0,0.0,0.0,0.0,0.0,0.0,0.0,0.0,0.0,0.0,0.0,0.0,0.0,0.0,0.0,0.0,0.0,0.0,0.0,0.0,0.0,0.0,0.0,4.5441,4.63,4.6573,4.669,0.0,0.0,0.0,4.4465,0.0,0.0,0.0,0.0,0.0,0.0,4.1576,4.1498,4.1459,0.0,0.0,0.0,0.0,0.0,0.0,0.0,0.0,0.0,4.1056,4.1045,4.1011,4.0928,4.1045,4.1232,4.1263,4.248,0.0,4.362,0.0,0.0,0.0,0.0,0.0,0.0,5.22,5.1173,5.0495,5.0741,5.095,5.0544,5.1851,5.3034,5.3613,5.441,5.4971,5.5057,5.5085,5.5216,5.5527,5.5467,5.5585,5.6074,5.5441,5.4946,5.4846,5.3767,5.3196,5.3285,5.2146,5.1847,5.2474,5.1847,5.1979,5.2795,5.2523,5.33,5.5009,5.4645,5.4801,5.5437,5.5981,5.589,5.5359,5.5991,5.6194,5.611,5.5839,5.5552,5.5272,5.5835,5.5681,5.5255,0.0,0.0,0.0,0.0,0.0,0.0,0.0,0.0,0.0,0.0,4.1576,4.1888,0.0,0.0,0.0,0.0,0.0,0.0,0.0,0.0,0.0,0.0,0.0,0.0,0.0,4.5051,4.5753,0.0,0.0,0.0,0.0,0.0,0.0,4.4738,0.0,4.345,0.0,0.0,4.1423,4.1108,4.1108,4.1108,4.1108,0.0,0.0,0.0,0.0,0.0,0.0,0.0,0.0,0.0,4.0967,4.0935,4.0945,4.1186,4.1451,4.18,4.2098,4.349,0.0,4.4537,4.6219,4.8126,4.8652,0.0,0.0,0.0,5.1911,5.1839,5.1269,5.0976,5.0821,5.0947,5.1736,5.2513,5.3005,5.4103,5.489,5.492,5.4912,5.4941,5.4941,5.514,5.5326,5.5531,5.5245,5.4957,5.4746,5.3839,5.3377,5.3573,5.2291,5.2188,5.3353,5.2537,5.2355,5.2806,5.2806,5.3141,5.38,5.3715,5.3974,5.4504,5.5331,5.5394,5.4968,5.5845,5.6149,5.6117,5.6117,5.5736,5.5354,5.5818,5.5685,5.5302,0.0,0.0,3.7555,3.8456,0.0,0.0,0.0,0.0,0.0,0.0,4.1108,4.1108,0.0,0.0,0.0,0.0,0.0,0.0,0.0,0.0,0.0,0.0,0.0,0.0,0.0,0.0,0.0,0.0,0.0,0.0,0.0,0.0,4.5402,4.6144,0.0,4.4387,0.0,4.2555,4.1735,4.1108,4.103,4.103,4.1108,4.1108,0.0,0.0,0.0,0.0,0.0,0.0,0.0,0.0,4.1011,4.0906,4.0927,4.1682,4.2381,4.315,4.3943,4.4812,0.0,4.6414,4.7291,0.0,4.9771,5.1421,5.2196,5.0545,0.0,5.246,5.2379,5.1163,5.054,5.1878,5.2218,5.2332,5.2332,5.377,5.4829,5.4882,5.4958,5.4996,5.492,5.5104,5.5325,5.5476,5.5561,5.5384,5.4894,5.4691,5.4304,5.3722,5.2717,5.2978,5.468,5.3713,5.3232,5.3258,5.3258,5.2815,5.2008,5.3073,5.361,5.3722,5.4536,5.487,5.4909,5.5723,5.604,5.6046,5.6046,5.6068,5.6093,5.6093,5.6,5.5905,0.0,0.0,3.7555,3.8456,0.0,0.0,0.0,0.0,0.0,0.0,0.0,0.0,0.0,0.0,0.0,0.0,0.0,0.0,0.0,0.0,0.0,0.0,0.0,0.0,0.0,0.0,0.0,0.0,0.0,0.0,0.0,0.0,0.0,4.5246,0.0,4.3489,4.2594,4.103,4.0639,4.103,4.0348,4.0508,4.1108,4.1108,4.109,0.0,0.0,0.0,0.0,0.0,0.0,0.0,4.185,4.1583,4.1569,4.171,4.1809,4.2029,4.2895,4.4097,0.0,0.0,4.8414,4.953,4.9857,5.0795,5.144,5.1114,5.1288,5.1499,5.1499,5.1196,5.0827,5.0486,5.1519,5.2419,5.2437,5.3821,5.4882,5.4971,5.5519,5.567,5.5047,5.5722,5.5973,5.539,5.4962,5.4937,5.5399,5.4321,5.4181,5.5268,5.3219,5.2889,5.4534,5.2391,5.164,5.2278,5.2278,5.2183,5.1953,5.236,5.3243,5.4469,5.4553,5.4574,5.4535,5.4689,5.519,5.5787,5.5787,5.621,5.6767,5.6767,5.6344,5.584,0.0,0.0,0.0,0.0,0.0,0.0,0.0,0.0,0.0,0.0,0.0,0.0,0.0,0.0,0.0,0.0,0.0,0.0,0.0,0.0,0.0,0.0,4.4309,4.5402,4.6261,4.63,4.587,0.0,0.0,0.0,0.0,0.0,0.0,4.5597,0.0,4.384,4.2946,4.1608,4.1055,4.1055,4.0613,4.0686,4.1115,4.1115,4.11,4.111,4.1033,0.0,0.0,0.0,0.0,0.0,0.0,0.0,4.1698,4.1601,4.151,4.1705,4.2943,0.0,0.0,4.8175,0.0,4.9879,4.9879,5.0258,5.0561,5.0616,5.093,5.1206,5.1206,5.0865,5.0561,5.0523,5.1282,5.185,5.1868,5.3281,5.4314,5.4372,5.5102,5.5443,5.4979,5.5503,5.569,5.5222,5.4992,5.4894,5.4863,5.4501,5.4507,5.4978,5.3776,5.3682,5.4929,5.3259,5.2644,5.3046,5.3046,5.2815,5.2431,5.2569,5.3108,5.3976,5.4303,5.4223,5.3895,5.4703,5.5049,5.5126,5.5549,5.5972,5.6395,5.6395,5.6313,5.6307,0.0,0.0,0.0,0.0,0.0,0.0,0.0,0.0,0.0,0.0,0.0,0.0,0.0,0.0,0.0,0.0,0.0,0.0,0.0,0.0,0.0,0.0,4.4426,4.5246,4.5831,4.5987,4.5558,0.0,0.0,0.0,0.0,0.0,0.0,4.6261,0.0,0.0,4.3606,4.2451,4.1622,4.1072,4.095,4.0972,4.111,0.0,0.0,0.0,4.0916,4.096,4.1024,4.0739,0.0,0.0,0.0,0.0,4.1549,4.1476,4.1418,4.1743,4.3346,0.0,4.7224,4.9375,4.9879,0.0,4.9879,4.9879,4.9879,4.9879,5.0486,5.0978,5.0978,5.0372,5.0144,5.0865,5.1244,5.1357,5.1244,5.2646,5.3707,5.3707,5.4427,5.4882,5.495,5.5142,5.5265,5.5113,5.5183,5.4995,5.4308,5.4944,5.4982,5.4308,5.4205,5.4536,5.5339,5.447,5.4049,5.4153,5.4153,5.3872,5.3345,5.3398,5.3388,5.3353,5.4177,5.4101,5.3447,5.4831,5.51,5.4639,5.5369,5.5714,5.5868,5.5983,5.6352,5.6792,0.0,0.0,0.0,0.0,0.0,0.0,0.0,0.0,0.0,0.0,4.1108,4.0789,0.0,3.9901,3.9546,3.8516,3.9312,3.9831,3.9731,0.0,0.0,4.2477,4.4036,4.466,4.4071,4.4777,4.4383,0.0,0.0,0.0,0.0,0.0,0.0,0.0,0.0,0.0,0.0,4.1154,4.0515,4.1039,4.0292,4.0448,0.0,0.0,0.0,0.0,0.0,0.0,4.1562,4.0786,4.1475,0.0,0.0,0.0,4.1514,4.1495,4.1456,4.1743,4.3346,0.0,4.8643,0.0,4.9879,4.9879,0.0,4.9879,4.9879,4.9879,4.9993,5.0069,5.0069,4.9955,4.9917,5.0031,5.1282,5.2002,5.1319,5.2646,5.3707,5.3707,5.4427,5.4912,5.4971,5.5683,5.5855,5.5151,5.5157,5.5172,5.5057,5.5224,5.5224,5.5057,5.4409,5.4383,5.513,5.3606,5.3225,5.3922,5.3922,5.4253,5.4825,5.4852,5.46,5.4181,5.4929,5.4765,5.4,5.423,5.4689,5.5301,5.5377,5.5849,5.6484,5.721,5.7041,5.6654,0.0,0.0,0.0,0.0,0.0,0.0,0.0,0.0,0.0,0.0,0.0,4.0675,3.9845,3.9279,3.8617,3.7702,3.7962,3.8592,3.9597,4.0291,4.1147,4.2142,4.2928,4.3411,4.3642,4.4032,0.0,0.0,0.0,0.0,0.0,4.366,4.4601,0.0,0.0,0.0,0.0,0.0,0.0,4.105,4.0604,4.0637,0.0,0.0,0.0,0.0,0.0,0.0,0.0,4.054,4.115,4.1934,4.1112,0.0,0.0,0.0,4.0826,4.1341,4.3833,4.6228,4.8287,0.0,4.9879,4.9879,4.9879,4.9879,4.9879,4.9879,4.9879,4.9879,4.9879,4.9879,4.9879,4.9879,5.0523,5.0865,5.0523,5.1926,5.2987,5.2987,5.4124,5.4882,5.4941,5.5283,5.5359,5.5009,5.5028,5.5028,5.5028,5.4638,5.46,5.499,5.3829,5.3753,5.5019,5.3905,5.3742,5.458,5.458,5.477,5.5113,5.5113,5.4966,5.4766,5.5096,5.4737,5.4051,5.5004,5.5309,5.5309,5.6262,5.6806,5.7159,5.7501,5.772,5.7949,0.0,0.0,0.0,0.0,0.0,0.0,0.0,0.0,0.0,0.0,0.0,4.0344,3.9715,0.0,0.0,0.0,3.6931,3.7583,3.912,3.9158,3.9818,4.1352,4.1591,4.2078,4.2864,0.0,0.0,0.0,0.0,0.0,4.3637,4.3559,4.4501,0.0,4.5267,0.0,0.0,0.0,0.0,0.0,0.0,0.0,0.0,0.0,0.0,0.0,0.0,0.0,0.0,0.0,0.0,0.0,4.0501,4.0711,0.0,0.0,0.0,4.117,4.377,0.0,4.7214,4.8882,4.9451,4.9679,4.9868,4.9879,4.9879,4.9879,4.9879,4.9879,4.9879,4.9879,4.9879,4.9879,5.0069,5.022,5.022,5.1471,5.2494,5.2722,5.3821,5.4693,5.4882,5.492,5.492,5.492,5.492,5.492,5.492,5.4124,5.3973,5.4579,5.3424,5.3414,5.4667,5.4116,5.4258,5.5057,5.4829,5.4829,5.5057,5.5057,5.5057,5.5057,5.5113,5.477,5.4313,5.5531,5.5836,5.5569,5.6825,5.7405,5.7634,5.7824,5.8348,5.8978,0.0,0.0,0.0,0.0,0.0,0.0,0.0,0.0,0.0,0.0,0.0,3.9614,3.9536,3.8743,3.7838,3.6869,3.6814,3.7216,3.8105,3.8123,3.8542,3.9488,4.0262,0.0,4.0838,0.0,0.0,0.0,0.0,0.0,4.3412,4.3419,4.4284,4.5786,4.5173,4.4415,4.3557,0.0,0.0,0.0,0.0,4.0727,0.0,0.0,0.0,0.0,0.0,0.0,0.0,0.0,0.0,0.0,0.0,0.0,0.0,0.0,0.0,0.0,0.0,4.3983,4.5589,4.7213,4.8251,4.9048,4.9754,4.9879,4.9879,4.9879,4.9879,4.9879,4.9879,4.9879,4.9879,4.9879,5.0599,5.113,5.113,5.185,5.2722,5.3518,5.3707,5.4048,5.4844,5.492,5.492,5.492,5.492,5.492,5.492,5.4124,5.3707,5.3745,5.3669,5.3669,5.3783,5.3707,5.4086,5.4882,5.4124,5.4162,5.4882,5.4882,5.4882,5.4912,5.5057,5.5075,5.5037,5.5113,5.5607,5.6331,5.6445,5.694,5.7701,5.8538,5.8851,5.8912,0.0,0.0,0.0,0.0,0.0,0.0,0.0,0.0,0.0,0.0,0.0,0.0,0.0,3.8659,3.7797,3.6884,3.6227,3.629,3.7153,3.7661,3.8354,3.9227,4.0575,4.1092,4.0649,0.0,0.0,0.0,0.0,4.1339,4.2497,4.2458,4.2753,4.333,4.4305,4.451,4.4101,4.2654,0.0,0.0,4.1529,4.1312,0.0,0.0,0.0,0.0,0.0,0.0,0.0,0.0,0.0,0.0,0.0,0.0,0.0,0.0,0.0,0.0,0.0,0.0,4.4661,4.6311,4.7352,4.8175,4.901,4.9554,4.9879,4.9879,4.9879,4.9879,4.9879,4.9879,4.9879,4.9879,5.0144,5.0561,5.113,5.1888,5.2722,5.3594,5.4162,5.4579,5.4882,5.492,5.492,5.492,5.492,5.492,5.492,5.4124,5.3707,5.3707,5.2646,5.2343,5.2873,5.3442,5.4086,5.492,5.4617,5.4617,5.492,5.492,5.492,5.492,5.5548,5.5502,5.5009,5.5578,5.6299,5.7097,5.7666,5.8387,5.9109,5.9412,5.9526,5.9671,0.0,0.0,0.0,0.0,0.0,4.023,0.0,0.0,0.0,0.0,0.0,0.0,0.0,0.0,3.7723,3.6815,3.6464,3.6511,3.7064,3.7602,3.8278,3.9112,4.05,4.1132,4.0941,0.0,0.0,0.0,0.0,0.0,0.0,0.0,4.1942,4.2228,4.3192,0.0,0.0,0.0,0.0,4.2226,0.0,0.0,4.1238,0.0,0.0,0.0,0.0,0.0,0.0,0.0,0.0,0.0,0.0,0.0,0.0,0.0,0.0,0.0,4.1818,0.0,0.0,4.5582,4.6525,4.749,4.8884,4.939,4.9603,4.9868,4.9879,4.9993,5.0258,5.0107,4.9993,5.0296,5.0334,5.0751,5.1888,5.2494,5.3139,5.401,5.4579,5.492,5.492,5.492,5.492,5.492,5.492,5.492,5.492,5.3859,5.3139,5.2873,5.204,5.2002,5.2836,5.3404,5.4086,5.492,5.4617,5.4655,5.492,5.5185,5.5337,5.5375,5.5943,5.5716,5.4958,5.583,5.6664,5.746,5.8028,5.897,5.995,5.995,5.9982,6.0089,0.0,4.4095,4.3438,4.3399,4.187,4.0354,0.0,0.0,0.0,0.0,0.0,0.0,0.0,0.0,0.0,3.6863,3.7531,3.797,3.79,3.7917,3.8282,3.9109,3.9948,4.0788,4.1647,0.0,0.0,0.0,0.0,0.0,0.0,0.0,4.2044,0.0,4.1913,4.214,4.3105,0.0,4.2277,4.2885,0.0,4.1017,4.0444,0.0,0.0,0.0,4.2384,4.261,0.0,4.2601,0.0,0.0,0.0,0.0,0.0,0.0,0.0,0.0,0.0,0.0,0.0,4.4963,4.5764,4.6976,4.9328,4.934,4.8972,4.9717,4.9879,5.0144,5.1016,5.0486,5.022,5.1092,5.1244,5.1812,5.348,5.3707,5.401,5.4806,5.492,5.492,5.492,5.492,5.492,5.492,5.4882,5.4882,5.492,5.3328,5.2077,5.1282,5.1964,5.2798,5.3707,5.3669,5.4086,5.4882,5.4124,5.4124,5.492,5.5792,5.6209,5.6209,5.6247,5.5792,5.5034,5.5868,5.6664,5.7384,5.7422,5.8508,6.0013,6.0013,6.0013,6.0013,4.383,4.4067,4.4059,4.3327,4.2279,4.1232,0.0,0.0,0.0,0.0,0.0,0.0,0.0,0.0,0.0,3.8492,3.8115,3.7868,3.7814,3.841,3.9141,3.9947,4.1342,4.2202,0.0,0.0,0.0,0.0,0.0,0.0,0.0,0.0,0.0,0.0,4.0768,4.1129,4.1903,4.1113,0.0,0.0,4.2183,4.2141,0.0,0.0,0.0,0.0,0.0,4.3918,4.344,0.0,4.3095,4.2536,0.0,0.0,0.0,0.0,0.0,0.0,4.1074,0.0,0.0,0.0,0.0,0.0,4.7129,4.8123,4.8846,4.9048,4.9554,4.9955,5.022,5.0561,5.113,5.1926,5.1585,5.1812,5.348,5.3707,5.401,5.4806,5.492,5.492,5.492,5.492,5.492,5.492,5.4352,5.4276,5.4882,5.3897,5.2949,5.2115,5.1736,5.2229,5.3707,5.3063,5.348,5.492,5.4655,5.4693,5.492,5.5792,5.6209,5.6285,5.746,5.7497,5.6664,5.6323,5.6664,5.746,5.8066,5.9008,5.9918,5.9918,5.9918,5.9994,4.3363,4.3995,4.4337,4.3744,4.2925,4.2047,0.0,0.0,0.0,0.0,0.0,0.0,0.0,0.0,0.0,0.0,3.9385,3.904,3.9346,3.9521,3.9792,4.0291,4.1915,4.2795,0.0,0.0,0.0,0.0,0.0,0.0,0.0,0.0,0.0,0.0,0.0,0.0,0.0,0.0,0.0,0.0,4.2298,0.0,0.0,4.4211,4.4722,0.0,0.0,0.0,4.4259,4.4259,4.3559,0.0,0.0,0.0,0.0,0.0,0.0,0.0,0.0,0.0,0.0,0.0,0.0,0.0,4.7114,4.7881,4.8492,4.9124,4.9603,4.9993,5.0372,5.0561,5.1168,5.2684,5.2267,5.2305,5.3973,5.42,5.4503,5.5337,5.5451,5.5564,5.5906,5.564,5.5451,5.5451,5.4352,5.3594,5.3366,5.3252,5.276,5.1926,5.2115,5.2722,5.3707,5.3518,5.3935,5.492,5.492,5.492,5.4958,5.6133,5.6512,5.6285,5.7573,5.7687,5.6891,5.6739,5.7194,5.7952,5.8104,5.9089,6.034,5.9999,6.034,6.0947,0.0,4.3858,4.4421,4.452,4.3761,0.0,0.0,0.0,0.0,0.0,0.0,0.0,0.0,0.0,0.0,0.0,4.1011,4.0802,4.1399,4.071,0.0,0.0,0.0,0.0,0.0,0.0,0.0,0.0,0.0,0.0,0.0,0.0,0.0,0.0,4.031,4.031,0.0,0.0,0.0,4.1571,4.2279,4.2231,0.0,0.0,4.4549,4.4032,4.4724,4.4952,4.4914,4.4914,4.3931,0.0,0.0,0.0,0.0,0.0,4.1399,0.0,0.0,0.0,0.0,0.0,4.5277,0.0,4.7929,4.7957,4.8009,4.9364,4.9717,5.0058,5.093,5.0513,5.0816,5.3092,5.2911,5.3101,5.4693,5.4996,5.5337,5.6095,5.6285,5.6588,5.7194,5.6626,5.6171,5.6057,5.4579,5.2987,5.1282,5.204,5.2229,5.1509,5.2911,5.3745,5.3821,5.4465,5.4769,5.4769,5.4844,5.4844,5.4806,5.6512,5.6929,5.636,5.7194,5.7194,5.6664,5.727,5.7952,5.8483,5.7914,5.9089,6.0984,6.0189,6.0909,6.2159,4.2985,4.3798,4.4509,4.5166,0.0,0.0,0.0,0.0,0.0,0.0,0.0,0.0,0.0,0.0,0.0,0.0,0.0,4.1093,0.0,0.0,0.0,0.0,0.0,0.0,0.0,0.0,0.0,0.0,0.0,0.0,0.0,0.0,0.0,0.0,0.0,0.0,0.0,0.0,0.0,4.1495,4.2296,0.0,4.3453,4.4511,4.4838,4.47,4.4876,4.4914,4.4914,4.4962,4.4326,4.346,0.0,0.0,0.0,0.0,0.0,0.0,0.0,0.0,0.0,0.0,0.0,0.0,4.5159,4.6374,4.7762,4.8081,4.8642,4.9315,5.0152,5.076,5.1254,5.1749,5.2786,5.3841,5.4769,5.5489,5.6019,5.6171,5.6777,5.6967,5.6474,5.6285,5.5906,5.5223,5.4238,5.2987,5.1282,5.2646,5.3366,5.3215,5.3518,5.401,5.4655,5.42,5.3935,5.3935,5.4579,5.4579,5.401,5.5678,5.6702,5.7194,5.8066,5.871,5.9127,5.8635,5.8142,5.7763,5.8938,6.0075,6.0984,6.0189,6.053,6.1326,4.2934,4.3426,4.4085,4.5337,0.0,0.0,0.0,0.0,0.0,0.0,0.0,0.0,0.0,0.0,0.0,0.0,0.0,0.0,0.0,0.0,0.0,0.0,0.0,0.0,0.0,0.0,0.0,0.0,0.0,0.0,0.0,0.0,0.0,0.0,0.0,0.0,0.0,0.0,4.071,4.1461,4.2303,0.0,4.3856,4.4624,4.4914,4.4914,4.4914,4.4914,4.4914,4.4865,4.4321,0.0,0.0,4.2754,4.2208,0.0,4.1212,4.1911,0.0,0.0,0.0,4.4653,0.0,0.0,0.0,4.6473,4.7266,4.8119,4.7943,4.8109,4.9784,4.9784,4.9936,5.1192,5.2053,5.2835,5.3575,5.476,5.5868,5.6702,5.6815,5.6967,5.7384,5.6702,5.5678,5.4389,5.3935,5.3139,5.1888,5.3025,5.3707,5.3707,5.3707,5.4086,5.4882,5.3669,5.329,5.3707,5.4124,5.4086,5.3745,5.5451,5.6171,5.6209,5.7497,5.8028,5.8104,5.8938,5.8786,5.8142,5.8976,6.0302,6.1591,6.034,6.0947,6.2273,4.2646,4.2854,4.3393,4.503,0.0,0.0,0.0,0.0,0.0,0.0,0.0,0.0,0.0,0.0,0.0,0.0,0.0,0.0,0.0,0.0,0.0,0.0,4.1266,4.1475,0.0,0.0,0.0,0.0,0.0,0.0,0.0,0.0,0.0,0.0,0.0,0.0,0.0,0.0,0.0,4.1685,0.0,4.3137,4.3663,4.4407,4.4673,4.4711,4.4838,4.4914,4.4889,4.4764,4.436,4.3932,4.3615,4.3316,0.0,0.0,0.0,0.0,0.0,0.0,0.0,0.0,0.0,4.5932,0.0,0.0,0.0,4.8615,4.7829,4.7524,4.9733,4.9009,4.8743,5.0647,5.1166,5.1521,5.1988,5.3452,5.5064,5.6702,5.636,5.655,5.8066,5.6702,5.5072,5.3556,5.3328,5.2987,5.2456,5.3063,5.3594,5.3935,5.3783,5.401,5.4655,5.3328,5.2911,5.3442,5.3783,5.3859,5.3745,5.5261,5.5754,5.5451,5.6815,5.7194,5.7081,5.9051,5.962,5.9165,5.9165,6.0378,6.2008,6.0643,6.1515,6.3296,4.1711,4.1899,4.2475,4.4095,0.0,0.0,0.0,0.0,0.0,0.0,0.0,0.0,0.0,0.0,0.0,0.0,0.0,0.0,4.3666,0.0,0.0,0.0,0.0,0.0,4.1414,0.0,0.0,0.0,0.0,0.0,0.0,0.0,0.0,0.0,4.0984,0.0,0.0,0.0,4.2379,0.0,4.3336,4.3293,0.0,4.3634,4.3931,4.3999,4.4673,4.4914,4.4889,0.0,4.5127,4.5477,0.0,4.4731,4.487,4.3514,0.0,0.0,0.0,0.0,0.0,0.0,4.5697,0.0,4.5556,0.0,4.7729,4.8823,0.0,4.9075,5.0107,0.0,0.0,4.9419,5.0555,5.1231,5.0583,5.1839,5.3432,5.4996,5.511,5.5413,5.6398,5.4958,5.3594,5.2608,5.1888,5.1774,5.2381,5.2494,5.3252,5.4731,5.4086,5.3745,5.3859,5.3669,5.3215,5.257,5.4048,5.4389,5.3745,5.4655,5.5792,5.7118,5.7308,5.818,5.9506,5.9772,6.0264,6.0833,6.0833,6.0984,6.1212,6.1022,6.1629,6.2652,4.1519,4.1728,4.2096,4.3271,0.0,0.0,0.0,0.0,0.0,0.0,0.0,0.0,0.0,0.0,0.0,0.0,0.0,4.4805,0.0,0.0,0.0,0.0,0.0,0.0,0.0,0.0,4.1877,0.0,4.1017,0.0,0.0,0.0,0.0,0.0,4.1068,0.0,4.0977,0.0,4.2607,0.0,0.0,0.0,0.0,4.3946,4.4431,4.4507,4.4762,4.4865,4.4764,4.4632,4.5087,0.0,0.0,0.0,0.0,0.0,0.0,0.0,0.0,0.0,0.0,0.0,0.0,0.0,4.6467,0.0,4.7058,4.8098,0.0,0.0,0.0,0.0,0.0,0.0,4.993,5.0073,5.0188,5.0367,5.1433,5.404,5.386,5.3708,5.3993,5.3395,5.2798,5.2456,5.2115,5.204,5.2381,5.2873,5.348,5.42,5.3897,5.3935,5.4389,5.2987,5.257,5.3177,5.3366,5.3556,5.3745,5.4541,5.5299,5.5981,5.6967,5.7801,5.8559,5.9999,6.0795,6.1098,6.1098,6.1098,6.1098,6.1098,6.1667,6.2538,4.1217,0.0,0.0,0.0,0.0,0.0,0.0,0.0,0.0,0.0,0.0,0.0,4.56,4.5791,0.0,0.0,0.0,4.5589,0.0,0.0,4.4124,0.0,0.0,0.0,0.0,0.0,0.0,0.0,0.0,0.0,0.0,0.0,0.0,0.0,0.0,4.1625,4.1411,0.0,4.3118,4.2927,4.3156,4.3209,4.3323,4.4241,4.4749,4.4914,4.4865,4.4789,4.4685,4.4496,4.4915,4.5357,4.4606,4.4892,4.5312,0.0,0.0,0.0,4.4941,0.0,0.0,0.0,0.0,0.0,0.0,0.0,0.0,0.0,4.7182,0.0,0.0,0.0,0.0,0.0,0.0,4.9487,4.983,4.9515,5.0291,5.2905,5.3057,5.2954,5.2862,5.2617,5.2447,5.2447,5.1964,5.1812,5.2077,5.2873,5.3328,5.3328,5.3328,5.3631,5.42,5.2419,5.2267,5.3707,5.3518,5.3669,5.4048,5.4882,5.5375,5.564,5.6853,5.7649,5.8218,6.0037,6.0909,6.106,6.0871,6.106,6.1439,6.1439,6.2159,6.3183,4.0363,4.0381,0.0,0.0,0.0,0.0,0.0,0.0,0.0,0.0,0.0,0.0,0.0,0.0,0.0,0.0,0.0,4.7524,4.7594,0.0,4.5497,0.0,0.0,4.2726,0.0,0.0,0.0,0.0,0.0,0.0,0.0,0.0,0.0,0.0,0.0,4.2179,4.1549,4.3916,4.4478,4.3833,4.4521,4.4838,4.4724,4.4075,4.4279,4.4889,4.4764,4.4712,4.4659,4.4383,4.4827,4.5469,4.5313,4.5287,4.5467,0.0,0.0,0.0,4.7144,4.759,4.7441,4.6698,4.6508,4.635,4.5806,0.0,4.7087,0.0,0.0,0.0,0.0,0.0,0.0,0.0,0.0,0.0,0.0,4.9786,5.0579,5.1383,5.2905,5.3857,5.3857,5.3041,5.2493,5.2493,5.0957,5.0334,5.1206,5.2002,5.2456,5.2456,5.2456,5.2456,5.2494,5.2419,5.2798,5.3707,5.5337,5.564,5.4882,5.5754,5.6588,5.7308,5.7384,5.8331,5.9809,5.9885,6.0378,6.1022,6.0226,6.0947,6.2387,6.2387,6.341,6.4813,4.1112,0.0,0.0,0.0,0.0,0.0,0.0,4.4934,0.0,0.0,0.0,0.0,0.0,4.6199,4.6237,0.0,0.0,4.6809,4.6832,4.6313,0.0,0.0,0.0,4.4433,0.0,0.0,0.0,0.0,0.0,0.0,0.0,0.0,0.0,0.0,0.0,4.1968,0.0,0.0,0.0,0.0,0.0,4.5054,4.4166,4.4335,4.4525,4.4764,4.4605,4.4496,4.4411,4.4325,4.4766,4.527,4.4649,4.5212,4.603,4.5667,4.6153,4.6932,4.7381,4.79,4.8122,4.7414,4.6783,4.6364,4.6382,4.6623,4.7095,4.8164,0.0,0.0,0.0,0.0,0.0,0.0,0.0,0.0,0.0,4.8831,4.9152,5.0517,5.1637,5.2107,5.1497,5.1623,5.1467,5.0897,5.0274,5.0031,5.0334,5.1661,5.2419,5.2419,5.2949,5.3518,5.4048,5.2949,5.3101,5.4503,5.4541,5.4655,5.492,5.5792,5.636,5.6664,5.7763,5.8559,5.9127,5.9658,6.0378,6.1022,6.0189,6.125,6.3183,6.3183,6.3941,6.5002,4.1953,0.0,0.0,0.0,0.0,0.0,0.0,0.0,0.0,0.0,4.6199,0.0,4.6777,0.0,4.6138,0.0,4.6672,4.6755,4.6428,4.6428,0.0,4.6517,4.6003,0.0,0.0,0.0,0.0,0.0,0.0,4.2106,0.0,0.0,0.0,0.0,0.0,4.1854,4.2683,4.3802,4.4962,0.0,0.0,4.558,4.4512,4.4858,4.4708,4.4297,4.4383,4.4354,4.4304,4.4207,4.4488,4.4729,4.4172,4.492,4.5927,4.5601,4.6456,4.7603,4.7827,4.8308,4.8493,4.7821,4.7191,4.6776,4.6706,4.7143,4.766,4.8077,4.8716,4.9315,0.0,0.0,0.0,0.0,0.0,0.0,0.0,4.8602,4.8678,4.9748,5.0603,5.1089,5.1103,5.099,5.076,5.048,4.9884,4.9603,4.9879,5.1509,5.2267,5.2002,5.3101,5.4086,5.4882,5.3556,5.3707,5.5375,5.4844,5.4844,5.5375,5.6247,5.6815,5.7156,5.8218,5.8862,5.9165,5.9999,6.0795,6.1515,6.0984,6.2311,6.4434,6.3827,6.432,6.5533,4.2794,4.287,0.0,0.0,4.4743,0.0,0.0,0.0,4.645,0.0,4.7105,4.7615,4.7653,4.7615,4.731,4.6511,4.7205,4.7342,4.6542,4.6473,0.0,0.0,4.644,4.6058,4.5285,0.0,0.0,0.0,0.0,0.0,0.0,0.0,0.0,0.0,4.1915,0.0,4.2759,4.4372,4.5407,4.6016,4.6665,4.6457,4.5706,4.5559,4.4655,4.3605,4.4083,4.4304,4.4237,4.4085,4.4023,4.4023,4.4061,4.4554,4.5305,4.612,4.6866,4.7645,4.8529,4.8787,4.8601,4.7927,4.7705,4.7482,4.6773,4.7776,4.863,4.7961,4.9002,4.9924,4.9444,0.0,0.0,0.0,0.0,0.0,0.0,4.906,4.9022,4.9137,4.9786,5.0832,5.2361,5.1141,5.052,5.1152,4.972,4.9162,4.9841,5.1471,5.204,5.1282,5.2911,5.4124,5.4882,5.42,5.4617,5.6209,5.6247,5.6247,5.6285,5.7081,5.7914,5.871,5.8748,5.9165,5.9961,6.0719,6.1553,6.2349,6.2349,6.3903,6.5912,6.4396,6.485,6.6556,4.2908,4.3787,4.4704,0.0,4.5163,4.5277,0.0,0.0,0.0,0.0,4.7438,4.7745,4.8339,4.7897,4.7452,4.7248,4.7472,0.0,0.0,0.0,0.0,4.65,4.5948,4.5774,4.6135,4.4912,0.0,4.4017,0.0,0.0,4.31,0.0,0.0,0.0,0.0,4.2655,4.3398,4.4272,4.5423,4.6703,4.7417,4.6922,4.5735,4.5475,4.4834,4.4102,4.4065,4.4085,4.4085,4.3961,4.3929,4.404,4.4568,4.5312,4.6091,4.6799,4.7574,4.8274,4.8383,4.842,4.8421,4.8383,4.7867,4.7534,4.812,4.7974,4.8085,4.9194,4.9405,4.9538,5.0081,5.004,0.0,0.0,0.0,0.0,0.0,0.0,4.7876,4.9786,4.9587,4.9525,4.9992,5.0683,5.0647,4.9607,4.9632,4.9732,4.9906,5.1527,5.2361,5.2115,5.3707,5.4693,5.492,5.5337,5.5754,5.6209,5.6815,5.7081,5.7118,5.799,5.8483,5.871,5.9317,5.9696,5.9923,6.0113,6.0681,6.1439,6.1439,6.3334,6.6215,6.7011,6.7579,6.8034,4.3978,4.4628,0.0,4.5277,0.0,4.6228,4.5846,4.6892,0.0,4.8109,4.8441,0.0,4.9212,4.8833,4.8403,4.8049,4.8085,0.0,4.642,0.0,0.0,4.6487,4.6717,4.7091,4.7548,4.6206,0.0,4.5617,0.0,0.0,4.3864,0.0,0.0,0.0,0.0,4.2205,4.3039,4.4749,4.621,4.7454,4.8119,4.7708,0.0,4.6052,4.535,4.4661,4.4135,4.3961,4.3961,4.3897,4.4124,4.4461,4.4838,4.5764,4.6762,4.7169,4.7831,4.8419,4.8419,4.8419,4.842,4.8569,4.8237,4.8126,4.9121,4.8936,4.8825,4.986,4.978,4.9582,4.9765,4.9746,4.9617,0.0,0.0,0.0,0.0,0.0,0.0,4.9595,4.9625,4.9411,4.9137,4.982,4.9898,4.8985,4.9581,4.986,4.9492,5.1771,5.2883,5.2475,5.4419,5.564,5.5981,5.6474,5.6929,5.727,5.7384,5.7611,5.799,5.8483,5.89,5.9279,6.0075,6.0226,5.9961,6.106,6.178,6.2349,6.3789,6.5533,6.7352,6.8679,6.8944,6.8641,4.5277,4.5277,0.0,0.0,0.0,4.7327,4.6656,4.7381,4.8196,4.8833,0.0,4.9986,4.9986,4.9933,4.9614,4.8894,0.0,4.8289,4.672,4.7342,4.7384,4.6555,4.7973,4.8731,4.8718,4.7971,0.0,0.0,0.0,0.0,0.0,0.0,0.0,0.0,0.0,0.0,0.0,4.5492,4.7223,4.8156,4.8699,4.8481,4.7776,4.6958,4.6215,4.5477,4.4559,4.4156,4.4045,4.4013,4.4502,4.5137,4.5247,4.6173,4.7279,4.739,4.7868,4.8306,4.8457,4.8457,4.8494,4.8569,4.8605,4.8827,4.9898,4.9972,4.9898,5.0192,5.008,4.9709,4.9039,4.9019,4.9295,0.0,0.0,0.0,0.0,0.0,0.0,0.0,4.9792,0.0,4.9305,4.9134,4.9023,4.8909,4.967,4.9784,4.9074,5.195,5.329,5.2503,5.4988,5.6702,5.7384,5.7725,5.8218,5.8824,5.8293,5.8331,5.8862,5.9089,5.943,5.9923,6.0757,6.0681,6.0226,6.2501,6.3638,6.4244,6.739,6.8603,6.8716,6.9588,6.9399,6.8868,4.5277,0.0,0.0,0.0,0.0,4.6809,4.7296,4.8656,4.9404,4.891,4.9466,4.9906,4.9906,4.9906,4.9841,4.969,4.9717,0.0,0.0,0.0,0.0,4.7314,4.764,4.7802,4.7818,4.7656,4.7286,0.0,0.0,0.0,0.0,0.0,0.0,0.0,0.0,0.0,4.4823,4.602,4.7363,4.8739,4.8853,4.8816,4.8593,4.7813,4.737,4.708,4.6194,4.5453,4.4864,4.4731,4.5215,4.599,4.6581,4.6948,4.7241,4.7902,4.8196,4.8306,4.8306,4.8344,4.8344,4.8494,4.8532,4.8937,5.0526,4.9862,4.927,5.0713,4.9971,4.897,4.8927,4.8534,4.8649,4.9872,4.8732,4.8239,0.0,0.0,0.0,0.0,0.0,5.0,4.9923,4.9973,4.9668,4.8947,4.967,5.0,4.9743,5.163,5.2617,5.2447,5.5527,5.727,5.7384,5.943,6.0189,5.9696,6.0947,6.0871,5.9734,6.1136,6.106,5.9923,6.0757,6.1022,6.0984,6.2122,6.3827,6.5874,6.7845,6.8603,6.8716,6.9588,6.9778,6.9702,4.5277,0.0,0.0,0.0,4.6527,4.7296,4.8099,4.9188,4.9846,4.9454,4.9732,4.9933,4.9933,4.9906,4.9879,4.9879,4.9879,4.9576,4.8764,4.9136,4.8984,4.817,4.8548,4.8802,4.8802,4.8389,4.7808,4.7014,0.0,0.0,0.0,0.0,0.0,4.0265,0.0,4.2992,4.4135,4.6215,4.7553,4.8333,4.8672,4.8857,4.8746,4.7895,4.7564,4.749,4.6604,4.6274,4.6202,4.5657,4.6027,4.6764,4.7022,4.7388,4.7792,4.8196,4.8306,4.8306,4.8306,4.8306,4.8416,4.897,4.9082,4.9452,5.0708,5.0082,4.9529,5.038,4.9639,4.8822,4.8892,4.8758,4.8896,4.9579,4.9116,4.8996,4.9872,0.0,4.9619,0.0,0.0,0.0,5.0139,5.0163,4.982,4.8985,5.0051,5.0368,4.9416,5.1771,5.3148,5.312,5.5898,5.7611,5.8066,6.0075,6.0909,6.053,6.1326,6.1288,6.053,6.0909,6.0643,5.9961,6.1212,6.178,6.1932,6.4092,6.595,6.7504,6.8792,6.9285,6.9323,6.974,6.9891,6.9891,0.0,4.5769,0.0,0.0,4.7334,4.806,4.8694,4.944,4.9906,4.9959,4.9959,4.9959,4.9959,4.9933,4.9879,4.9879,4.9879,4.9652,4.8991,4.9576,4.9614,4.8954,4.9576,4.9879,4.9879,4.9299,4.8517,0.0,4.6139,4.4838,4.3649,0.0,4.1863,4.1183,4.2292,4.3095,4.3763,4.6294,4.7593,4.7964,4.8527,4.8787,4.8713,4.7975,4.7753,4.7749,4.6979,4.7128,4.7534,4.6801,4.6985,4.75,4.7388,4.7792,4.8306,4.8306,4.8306,4.8306,4.8306,4.8306,4.8453,4.915,4.9375,4.9673,5.0446,5.0118,4.9677,4.9936,4.9342,4.8822,4.8925,4.9243,4.9487,4.9551,5.0011,5.0289,5.0127,5.0323,5.0404,0.0,0.0,0.0,5.0152,5.0139,4.9872,4.9188,5.0355,5.0545,4.9163,5.1885,5.349,5.349,5.605,5.7914,5.8938,6.0568,6.1439,6.1629,6.1629,6.1553,6.1363,6.0909,6.0568,6.0492,6.2008,6.288,6.341,6.6404,6.8148,6.8944,6.9626,6.9891,6.9891,6.9891,6.9891,6.9929,4.7372,0.0,4.741,4.7462,4.8137,4.8694,4.877,4.944,4.9879,4.9906,4.9906,4.9906,4.9906,4.9906,4.9879,4.9879,4.9879,4.9879,4.9803,4.9841,4.9879,4.9803,4.9841,4.9879,4.9879,4.9884,4.9112,4.7517,4.7462,4.6036,4.334,4.329,4.3004,4.2605,4.2723,4.4061,4.6178,4.6338,4.7305,4.8676,4.8641,4.8678,4.8787,4.8713,4.8676,4.8676,4.8457,4.8421,4.8421,4.8162,4.8122,4.8196,4.8196,4.8233,4.8306,4.8306,4.8306,4.8306,4.8306,4.8306,4.8343,4.8416,4.8529,4.8826,4.9636,4.9233,4.8938,4.9751,4.9343,4.8892,4.9131,4.9697,5.0182,5.0408,5.118,5.15,5.09,5.1613,5.1585,5.0096,0.0,0.0,4.9982,4.9959,4.9974,4.9872,5.0076,5.0114,4.983,5.1547,5.2532,5.2532,5.5678,5.818,5.9772,6.1439,6.2652,6.3372,6.3372,6.2993,6.2311,6.2955,6.288,6.2235,6.3107,6.4358,6.5912,6.7731,6.8982,6.9778,6.9854,6.9891,6.9891,6.9891,6.9891,7.0005,4.7615,4.76,4.7753,4.8251,4.8568,4.8922,4.9402,4.9717,4.9879,4.9879,4.9879,4.9879,4.9879,4.9879,4.9879,4.9879,4.9879,4.9879,4.9879,4.9879,4.9879,4.9879,4.9879,4.9879,4.9879,4.9906,4.939,4.8277,4.7591,4.6172,4.4078,4.3849,4.3685,4.3578,4.448,4.5482,4.6413,4.7307,4.8086,4.8678,4.8642,4.8642,4.8678,4.8642,4.8642,4.8678,4.8569,4.8569,4.8532,4.8457,4.8419,4.8419,4.8306,4.8306,4.8306,4.8306,4.8306,4.8306,4.8306,4.8306,4.8416,4.893,4.9154,4.9452,5.0184,4.982,4.9528,5.0452,5.0083,4.9746,5.0408,5.0405,5.0508,5.1129,5.17,5.182,5.1013,5.1348,5.1244,5.0031,0.0,5.0323,4.9971,4.9959,5.0214,5.0745,5.0316,5.0012,5.0012,5.1499,5.2675,5.3196,5.5936,5.818,5.9885,6.1553,6.2576,6.2917,6.3372,6.3448,6.3145,6.3448,6.3979,6.4661,6.5495,6.6556,6.7693,6.8868,6.9588,6.9891,6.9891,6.9891,6.9891,6.9891,6.9891,6.9929,4.8289,4.8275,4.8465,4.9036,4.9112,4.9276,4.983,4.9879,4.9879,4.9879,4.9879,4.9879,4.9879,4.9879,4.9879,4.9879,4.9879,4.9879,4.9879,4.9879,4.9879,4.9879,4.9879,4.9879,4.9879,4.9879,4.9527,4.8783,4.7871,4.6713,4.5293,4.4916,4.4878,4.5138,4.619,4.6823,4.712,4.8125,4.8569,4.8569,4.8532,4.8532,4.8569,4.8532,4.8569,4.8605,4.8532,4.8494,4.8494,4.8457,4.8457,4.8419,4.8306,4.8306,4.8306,4.8306,4.8306,4.8306,4.8306,4.8306,4.8453,4.904,4.9265,4.9524,5.0291,5.0076,4.9895,5.0638,5.0194,4.9969,5.0859,5.0817,5.0994,5.1812,5.2456,5.2567,5.173,5.184,5.1509,5.041,5.0258,5.021,4.9997,4.9959,5.0225,5.0859,5.0567,5.0453,5.0772,5.183,5.294,5.4097,5.6505,5.8445,5.9885,6.1818,6.288,6.3145,6.3713,6.4244,6.4737,6.4737,6.5381,6.6518,6.739,6.8072,6.8679,6.955,6.9891,6.9891,6.9891,6.9891,6.9929,7.0157,7.0081,6.9967,4.9841,4.9841,4.9879,4.9879,4.9879,4.9879,4.9879,4.9879,4.9879,4.9879,4.9879,4.9879,4.9879,4.9879,4.9879,4.9879,4.9879,4.9879,4.9879,4.9879,4.9879,4.9879,4.9879,4.9879,4.9879,4.9879,4.95,4.8704,4.8548,4.7928,4.6974,4.6637,4.6884,4.7664,4.7599,4.8009,4.875,4.8569,4.8494,4.8494,4.8344,4.8344,4.8494,4.8494,4.8569,4.8605,4.8532,4.8494,4.8457,4.8344,4.8306,4.8306,4.8306,4.8306,4.8306,4.8306,4.8306,4.8306,4.8306,4.8306,4.8306,4.8306,4.8306,4.8565,4.9487,4.9709,4.9786,4.9973,4.9379,4.9082,4.9932,5.0822,5.1712,5.2746,5.3743,5.4138,5.3434,5.3543,5.3063,5.1395,5.1206,5.0865,4.9955,4.9879,4.9906,5.0024,5.074,5.1547,5.2343,5.2381,5.3177,5.4844,5.7346,5.9089,5.9885,6.2349,6.4017,6.4888,6.4888,6.576,6.7352,6.7352,6.7352,6.7428,6.8224,6.8603,6.8679,6.955,6.9891,6.9891,6.9891,6.9891,7.0005,7.0801,7.0574,7.0119,4.9879,4.9879,4.9879,4.9879,4.9879,4.9879,4.9879,4.9879,4.9879,4.9879,4.9879,4.9879,4.9879,4.9879,4.9879,4.9879,4.9879,4.9879,4.9879,4.9879,4.9879,4.9879,4.9879,4.9879,4.9879,4.9879,4.9738,4.94,4.8654,4.8033,4.7457,4.733,4.7673,4.8451,4.8309,4.8348,4.8569,4.8457,4.8344,4.8344,4.8419,4.8457,4.8494,4.8494,4.8494,4.8532,4.8382,4.8344,4.8344,4.8306,4.8306,4.8306,4.8306,4.8306,4.8306,4.8306,4.8306,4.8306,4.8306,4.8306,4.8306,4.8306,4.8344,4.8678,4.9525,5.023,5.0601,5.012,5.0304,5.0823,5.1676,5.212,5.2746,5.3781,5.4251,5.4113,5.287,5.2769,5.2191,5.0523,5.0827,5.1092,5.0827,5.0789,5.1016,5.1575,5.0844,5.0757,5.1684,5.3234,5.4381,5.4941,5.7415,5.9355,6.0681,6.2652,6.4055,6.4926,6.6063,6.7162,6.8224,6.883,6.8792,6.8262,6.9133,6.9133,6.8679,6.955,6.9891,6.9929,7.0498,7.0384,7.0005,7.0801,7.0574,7.0043,4.9879,4.9879,4.9879,4.9879,4.9879,4.9879,4.9879,4.9879,4.9879,4.9879,4.9879,4.9879,4.9879,4.9879,4.9879,4.9879,4.9879,4.9879,4.9879,4.9879,4.9879,4.9879,4.9879,4.9879,4.9879,4.9824,4.9835,4.9778,4.9047,4.8509,4.8147,4.8081,4.8305,4.8787,4.8642,4.8532,4.8494,4.8419,4.8344,4.8306,4.8419,4.8419,4.8419,4.8419,4.8419,4.8419,4.8306,4.8306,4.8306,4.8306,4.8306,4.8306,4.8306,4.8306,4.8306,4.8306,4.8306,4.8306,4.8306,4.8306,4.8306,4.8306,4.8419,4.8715,4.9639,5.0306,5.0639,5.0156,5.0489,5.1156,5.2011,5.2493,5.3233,5.4533,5.4627,5.4226,5.3361,5.274,5.2002,5.094,5.1054,5.1319,5.1623,5.1661,5.185,5.2381,5.203,5.2085,5.271,5.387,5.5093,5.6345,5.8477,6.0378,6.2008,6.3713,6.5002,6.5874,6.7542,6.8413,6.8641,6.9512,6.9399,6.8641,6.9512,6.974,6.9588,7.0119,7.0536,7.0877,7.137,7.1256,7.0915,7.1749,7.1332,7.046,4.9879,4.9879,4.9879,4.9879,4.9879,4.9879,4.9879,4.9879,4.9879,4.9879,4.9879,4.9879,4.9879,4.9879,4.9879,4.9879,4.9879,4.9879,4.9879,4.9879,4.9879,4.9879,4.9879,4.9879,4.9879,4.9778,4.9778,4.9852,4.9537,4.9193,4.889,4.8822,4.8787,4.8787,4.8642,4.8532,4.8494,4.8494,4.8419,4.8306,4.8306,4.8306,4.8306,4.8306,4.8306,4.8306,4.8306,4.8306,4.8306,4.8306,4.8306,4.8306,4.8306,4.8343,4.8379,4.8343,4.8306,4.8306,4.8306,4.8306,4.8306,4.8306,4.8419,4.879,4.9824,5.0045,5.0042,5.019,5.019,5.045,5.1305,5.2197,5.3312,5.4987,5.4755,5.4439,5.4528,5.3286,5.2419,5.2419,5.1812,5.1661,5.2419,5.2494,5.2532,5.257,5.3973,5.4882,5.4996,5.4477,5.5578,5.8672,6.034,6.197,6.36,6.5267,6.6556,6.7504,6.9133,6.9475,6.8716,6.9512,6.9475,6.883,6.9626,7.0422,7.1104,7.118,7.1673,7.2393,7.2431,7.2431,7.2507,7.3303,7.2583,7.1294,4.9879,4.9879,4.9879,4.9879,4.9879,4.9879,4.9879,4.9879,4.9879,4.9879,4.9879,4.9879,4.9879,4.9879,4.9879,4.9879,4.9879,4.9879,4.9879,4.9879,4.9879,4.9879,4.9879,4.9879,4.9879,4.9852,4.9741,4.9537,4.9193,4.8925,4.8822,4.8678,4.8642,4.8642,4.8458,4.842,4.8494,4.8419,4.8306,4.8306,4.8306,4.8306,4.8306,4.8306,4.8306,4.8306,4.8306,4.8306,4.8306,4.8306,4.8306,4.8306,4.8306,4.8746,4.915,4.8489,4.8306,4.8306,4.8306,4.8306,4.8306,4.8306,4.8458,4.8975,5.0565,5.0045,4.9559,5.0822,5.1082,5.1342,5.2159,5.3497,5.4466,5.4605,5.445,5.4246,5.3929,5.3034,5.2419,5.2419,5.2836,5.3177,5.3366,5.3404,5.3669,5.4276,5.4145,5.46,5.583,5.699,5.8235,5.9544,6.1212,6.2576,6.36,6.5267,6.6859,6.8337,6.9399,6.9778,6.9588,6.9816,7.0119,7.0498,7.0725,7.0915,7.1142,7.1824,7.2203,7.2431,7.3075,7.2924,7.2507,7.3303,7.2962,7.2203,4.9879,4.9879,4.9879,4.9879,4.9879,4.9879,4.9879,5.0258,5.0344,4.9955,5.0247,5.0323,4.9917,4.9879,4.9879,4.9879,4.9879,4.9879,4.9879,4.9879,4.9879,4.9879,4.9879,4.9879,4.9879,4.9824,4.9625,4.9289,4.9061,4.8927,4.8787,4.8678,4.8605,4.8532,4.8458,4.842,4.8419,4.8419,4.8344,4.8306,4.8306,4.8526,4.8857,4.8453,4.8563,4.882,4.8453,4.8306,4.8306,4.8306,4.8563,4.8893,4.8893,4.9481,5.0068,4.9591,4.9187,4.8893,4.8893,4.86,4.8379,4.8822,4.9304,4.9934,5.0972,5.0565,5.023,5.1193,5.1676,5.2085,5.2531,5.3684,5.4652,5.4759,5.4597,5.435,5.4125,5.3459,5.3139,5.3518,5.3973,5.4541,5.5337,5.5375,5.5564,5.6019,5.6012,5.6573,5.7801,5.9842,6.1017,6.1022,6.269,6.432,6.5874,6.6783,6.7693,6.8603,6.9096,6.9512,6.9891,7.027,7.0687,7.1104,7.1521,7.19,7.2279,7.2734,7.3189,7.3568,7.4023,7.3947,7.3606,7.4023,7.3682,7.2999,5.0096,5.002,4.9879,4.9879,4.9879,4.9879,4.9879,5.0534,5.0733,4.9993,5.054,5.073,4.9982,4.9879,4.9879,4.9879,4.9879,4.9879,4.9879,4.9879,4.9879,4.9879,4.9879,4.9879,4.9879,4.975,4.9514,4.9197,4.9061,4.8925,4.8787,4.8678,4.8569,4.8532,4.8569,4.8495,4.8344,4.8566,4.8529,4.8306,4.8453,4.893,4.9517,4.8783,4.904,4.9664,4.893,4.8673,4.8673,4.8526,4.9077,4.9738,4.9627,5.0215,5.0986,5.0986,5.0508,4.9921,4.9811,4.9224,4.8932,4.9818,5.0483,5.1038,5.1452,5.1417,5.1343,5.1677,5.2308,5.2828,5.2977,5.3795,5.4688,5.5285,5.4965,5.4597,5.4667,5.411,5.4048,5.4996,5.511,5.5754,5.7422,5.7611,5.7687,5.7952,5.8635,5.943,6.0226,6.2501,6.3562,6.2993,6.4471,6.6367,6.8565,6.8603,6.8603,6.8603,6.8868,6.9361,7.0119,7.0915,7.1408,7.1711,7.2317,7.3037,7.3795,7.3795,7.425,7.4895,7.4895,7.4895,7.4895,7.4895,7.444,7.3795,5.0844,5.0399,4.9879,4.9879,4.9879,4.9879,4.9879,4.9993,5.0069,4.9917,5.002,5.0058,4.9917,4.9879,4.9879,4.9879,4.9879,4.9879,4.9879,4.9879,4.9879,4.9879,4.9879,4.9879,4.9879,4.9596,4.9352,4.9197,4.8993,4.8892,4.8787,4.8787,4.8678,4.8569,4.8532,4.8494,4.8494,4.9191,4.9005,4.8379,4.9077,4.9481,4.9591,4.9444,4.9884,5.0618,5.0472,5.0398,5.0325,4.9627,4.9921,5.0508,4.9811,5.0618,5.1793,5.1793,5.172,5.1463,5.0802,5.0508,5.0622,5.1514,5.1408,5.1449,5.2971,5.227,5.1751,5.3162,5.3534,5.3869,5.4727,5.5585,5.6069,5.586,5.5131,5.4667,5.4822,5.417,5.4276,5.583,5.5981,5.6664,5.8331,5.8483,5.9051,6.0416,6.0643,6.1098,6.197,6.3713,6.4964,6.5533,6.648,6.7504,6.8603,6.8603,6.8603,6.8603,7.0043,7.0763,7.0915,7.1787,7.2962,7.4288,7.3682,7.3909,7.4705,7.4705,7.4781,7.4895,7.4895,7.4895,7.4895,7.4895,7.4819,7.4705,5.0399,5.0172,5.0031,5.0523,5.022,5.0069,5.0523,5.0978,5.0903,4.9993,5.0675,5.1092,5.0637,5.0599,5.0789,5.1206,5.0865,5.0599,5.0599,5.0144,4.9879,4.9879,4.9879,4.9852,4.9807,4.9537,4.9321,4.9197,4.8962,4.8785,4.8678,4.9159,4.927,4.9157,4.9599,4.9781,4.9779,5.0108,4.9738,4.9077,4.9921,5.0251,5.0251,5.0251,5.0729,5.1389,5.0949,5.0802,5.0729,5.0362,5.0765,5.1389,5.0986,5.1683,5.2637,5.2637,5.2344,5.1834,5.1066,5.1507,5.2283,5.2736,5.3256,5.3927,5.4825,5.442,5.4162,5.4983,5.5169,5.5321,5.5884,5.6369,5.6814,5.7205,5.6247,5.5662,5.6171,5.5564,5.5678,5.7346,5.7914,5.8862,6.053,6.0681,6.0984,6.1743,6.1818,6.2387,6.3676,6.4888,6.6139,6.7428,6.7845,6.8034,6.7958,6.7958,6.8413,6.9323,7.0081,7.1142,7.2469,7.2393,7.3037,7.4174,7.3795,7.3833,7.425,7.4705,7.4895,7.4895,7.4895,7.4895,7.4895,7.4895,7.4895,7.4895,5.0144,5.0182,5.0334,5.0827,5.0523,5.0372,5.0827,5.1433,5.1433,5.0334,5.1319,5.1964,5.1547,5.1471,5.1736,5.2343,5.185,5.1471,5.1471,5.0865,5.0296,4.9917,5.0041,4.9996,4.9634,4.9633,4.9444,4.9131,4.9078,4.9047,4.8938,4.9713,5.0006,4.9924,5.0628,5.0845,5.0802,5.0986,5.0618,4.9921,5.0765,5.1096,5.1096,5.1096,5.1573,5.2197,5.1573,5.1353,5.1353,5.1132,5.172,5.2527,5.2344,5.2968,5.3775,5.3775,5.3335,5.2757,5.2213,5.2991,5.399,5.4112,5.5036,5.5965,5.6125,5.6125,5.6203,5.6283,5.6469,5.6697,5.7117,5.7154,5.7411,5.8452,5.7375,5.6601,5.7181,5.6948,5.7245,5.8656,5.9559,6.0766,6.247,6.2621,6.2773,6.3259,6.3259,6.3827,6.5116,6.595,6.6973,6.8262,6.8716,6.8603,6.7996,6.8186,6.8906,7.0157,7.0574,7.1749,7.3606,7.3151,7.3303,7.3909,7.3909,7.3909,7.3947,7.4629,7.4895,7.4895,7.4895,7.4895,7.4932,7.5122,7.5084,7.497,5.094,5.1092,5.0865,5.0107,5.0599,5.0865,5.0107,5.0031,5.0334,5.1016,5.1206,5.1547,5.2267,5.2305,5.2343,5.2381,5.2343,5.2305,5.2305,5.2267,5.1509,4.9955,5.0496,5.0387,4.9415,5.0006,4.9877,4.8925,4.9601,4.9898,4.9898,5.0675,5.0929,5.0812,5.0848,5.0845,5.0839,5.161,5.1463,5.0765,5.1573,5.1903,5.1903,5.1903,5.2417,5.3115,5.3041,5.3041,5.2931,5.216,5.2931,5.4106,5.3371,5.4179,5.5427,5.5427,5.5478,5.5491,5.5454,5.5576,5.5775,5.5899,5.5973,5.6125,5.6243,5.632,5.6283,5.632,5.6878,5.7702,5.8646,5.8353,5.8276,5.9102,5.8003,5.7016,5.6847,5.7664,5.849,5.9177,6.015,6.1389,6.3049,6.3238,6.3916,6.5686,6.5836,6.5874,6.5988,6.6821,6.7352,6.7466,6.8982,6.9778,6.9702,7.046,7.0877,7.1029,7.2583,7.3416,7.3644,7.4364,7.4743,7.4819,7.4819,7.4819,7.4819,7.4857,7.4895,7.4895,7.4895,7.4895,7.5008,7.5728,7.5539,7.5122,5.113,5.1319,5.1623,5.2153,5.2381,5.2419,5.2267,5.2267,5.2191,5.1964,5.2419,5.2873,5.3177,5.3215,5.3404,5.3897,5.348,5.3215,5.3215,5.2229,5.1528,5.129,5.1533,5.1381,5.0792,5.1024,5.0852,5.0342,5.0602,5.0675,5.056,5.1372,5.1661,5.1577,5.2091,5.2312,5.2307,5.2601,5.227,5.161,5.2417,5.2454,5.205,5.2564,5.2931,5.3225,5.3225,5.3518,5.3922,5.3592,5.4216,5.5097,5.4766,5.514,5.5815,5.6418,5.702,5.7666,5.8141,5.7518,5.6825,5.6945,5.7357,5.7728,5.7806,5.8178,5.8549,5.8549,5.9218,6.0013,6.0638,6.045,6.0564,6.162,6.0303,5.9401,5.9853,5.9778,5.9966,6.0792,6.2222,6.3615,6.4747,6.4973,6.5347,6.6063,6.5646,6.5798,6.6859,6.8224,6.8679,6.8148,6.9778,7.0384,6.9891,7.0195,7.1142,7.2658,7.3303,7.3909,7.4402,7.4212,7.4099,7.4099,7.4099,7.4099,7.4136,7.4705,7.4895,7.4895,7.4895,7.4895,7.4932,7.5236,7.5501,7.5728,5.1547,5.1964,5.2494,5.3177,5.3101,5.3025,5.3252,5.3101,5.2911,5.2836,5.3328,5.3783,5.4048,5.4086,5.4314,5.4844,5.4389,5.4086,5.4086,5.2929,5.2113,5.173,5.2096,5.2086,5.1625,5.1817,5.1675,5.1194,5.1453,5.1449,5.1253,5.2099,5.2426,5.2417,5.2968,5.3225,5.3225,5.3225,5.2894,5.2417,5.3004,5.3041,5.2821,5.3371,5.3739,5.3959,5.3959,5.4326,5.4766,5.4766,5.5317,5.5978,5.6022,5.6294,5.6756,5.7396,5.8264,5.9128,5.9684,5.9165,5.854,5.8661,5.8884,5.9144,5.9441,5.9924,6.0333,6.0333,6.0778,6.1348,6.1905,6.1715,6.1831,6.2818,6.1766,6.0975,6.1534,6.1387,6.1426,6.1988,6.3499,6.4708,6.5351,6.554,6.5841,6.6333,6.5951,6.6291,6.7693,6.8868,6.9323,6.902,7.0346,7.1066,7.1066,7.1066,7.1938,7.3606,7.3871,7.4326,7.4895,7.4288,7.4023,7.4023,7.4023,7.4023,7.4061,7.4667,7.4895,7.4895,7.4895,7.4895,7.497,7.5501,7.588,7.6303,5.2267,5.3101,5.3442,5.257,5.2419,5.2419,5.2419,5.1736,5.185,5.348,5.3707,5.401,5.4806,5.492,5.492,5.492,5.492,5.492,5.492,5.473,5.3503,5.1021,5.2132,5.2447,5.1625,5.2269,5.2122,5.1194,5.1931,5.222,5.214,5.2863,5.3225,5.3225,5.3225,5.3225,5.3225,5.3225,5.3225,5.3225,5.3225,5.3702,5.4399,5.4399,5.4913,5.5574,5.5574,5.5574,5.5611,5.5611,5.6124,5.6822,5.6956,5.7678,5.8437,5.8486,5.9159,5.9832,5.9881,6.0555,6.1224,6.1187,6.0555,6.0147,6.1001,6.1187,6.1224,6.1224,6.1224,6.1484,6.2264,6.1917,6.1703,6.2308,6.188,6.1442,6.1267,6.2071,6.2683,6.2683,6.36,6.4326,6.4558,6.4634,6.5275,6.6898,6.7278,6.7769,6.8565,6.8603,6.902,6.9891,7.0687,7.1938,7.3606,7.3606,7.3606,7.3644,7.4478,7.4895,7.4895,7.4895,7.4895,7.4895,7.4895,7.4895,7.4895,7.4895,7.4895,7.4895,7.4895,7.4895,7.5122,7.679,7.6948,7.6728,5.329,5.3973,5.4465,5.42,5.4162,5.4162,5.4162,5.3973,5.3973,5.4465,5.4541,5.4617,5.4882,5.492,5.492,5.492,5.5451,5.5731,5.5605,5.5303,5.4793,5.4008,5.379,5.3533,5.3126,5.3349,5.3235,5.2819,5.3001,5.3068,5.2899,5.3665,5.3739,5.3225,5.3812,5.4032,5.3995,5.3445,5.3849,5.484,5.4289,5.4509,5.5244,5.5244,5.539,5.5574,5.5574,5.5941,5.6455,5.6455,5.7014,5.7921,5.8688,5.9516,6.0226,6.0358,6.0995,6.1626,6.167,6.1856,6.193,6.1336,6.1001,6.089,6.115,6.1633,6.2041,6.2041,6.2487,6.3015,6.3376,6.3184,6.3066,6.3376,6.3184,6.2984,6.2896,6.3264,6.3499,6.3363,6.4416,6.5295,6.5811,6.5974,6.6507,6.756,6.8405,6.8713,6.8411,7.0231,7.1104,7.0725,7.2128,7.3113,7.3606,7.3606,7.3909,7.4516,7.4781,7.4895,7.4895,7.4895,7.4895,7.4895,7.4895,7.4895,7.4895,7.4895,7.4895,7.4895,7.4895,7.5236,7.5804,7.6417,7.7217,7.821,5.4124,5.4579,5.492,5.492,5.4655,5.4541,5.4844,5.4617,5.4541,5.4844,5.492,5.5034,5.5375,5.5413,5.5527,5.5868,5.6299,5.6468,5.6271,5.5955,5.5809,5.5809,5.5287,5.4912,5.4797,5.4758,5.4603,5.4441,5.4437,5.4312,5.4142,5.4326,5.4326,5.4179,5.4326,5.4583,5.484,5.4363,5.4693,5.5537,5.506,5.5354,5.6051,5.6051,5.6271,5.6565,5.6895,5.7116,5.7336,5.7675,5.8289,5.9021,5.9967,6.0648,6.11,6.11,6.1656,6.2287,6.2287,6.2546,6.2703,6.2264,6.193,6.1781,6.2079,6.2524,6.2896,6.2896,6.3267,6.3647,6.3742,6.3691,6.3691,6.3873,6.4084,6.4264,6.4314,6.4657,6.4887,6.4843,6.5421,6.6036,6.6475,6.6941,6.7706,6.8955,6.9863,7.0252,6.9924,7.1783,7.262,7.2128,7.3416,7.4136,7.4136,7.4136,7.4402,7.4895,7.4895,7.4895,7.4895,7.4895,7.4895,7.4895,7.4895,7.4895,7.4895,7.4895,7.4895,7.4932,7.5274,7.569,7.6183,7.6989,7.7944,7.8897,5.4769,5.492,5.492,5.492,5.4276,5.4048,5.4806,5.4352,5.42,5.492,5.5072,5.5413,5.6209,5.6285,5.6557,5.7315,5.7229,5.7137,5.7037,5.6781,5.6668,5.678,5.655,5.6432,5.6506,5.6236,5.6002,5.5918,5.5828,5.5742,5.5574,5.4913,5.495,5.5574,5.4913,5.5023,5.5684,5.5611,5.5684,5.5794,5.5721,5.6198,5.6932,5.6932,5.7373,5.8107,5.8841,5.8694,5.8263,5.921,5.976,6.0122,6.0863,6.1248,6.1366,6.1278,6.1715,6.2308,6.2308,6.2826,6.3465,6.3668,6.3156,6.2784,6.3453,6.3676,6.3713,6.3713,6.3788,6.3825,6.3825,6.387,6.3915,6.4059,6.4818,6.5384,6.5516,6.6063,6.6469,6.6603,6.6587,6.6618,6.6866,6.7653,6.8903,7.0701,7.1476,7.2014,7.2467,7.3265,7.372,7.372,7.4478,7.4895,7.4895,7.4895,7.4895,7.4895,7.4895,7.4895,7.4895,7.4895,7.4895,7.4895,7.4895,7.4895,7.4895,7.4895,7.4932,7.5084,7.5804,7.6183,7.6566,7.8166,7.8897,7.9169,5.4882,5.492,5.492,5.492,5.4769,5.4693,5.4882,5.5337,5.5716,5.5906,5.6474,5.6929,5.7118,5.6992,5.7003,5.7154,5.7627,5.8052,5.8501,5.7902,5.7711,5.8223,5.7624,5.7546,5.8178,5.6792,5.6002,5.5918,5.5828,5.5742,5.5611,5.6088,5.6051,5.5611,5.6088,5.6381,5.6492,5.5868,5.6308,5.7409,5.6785,5.7005,5.774,5.774,5.785,5.8033,5.8217,5.8593,5.9246,6.0322,6.1115,6.1715,6.199,6.2517,6.3082,6.3037,6.3103,6.3123,6.3251,6.3363,6.3613,6.4336,6.4419,6.4159,6.3713,6.4085,6.4568,6.4568,6.5088,6.5617,6.5725,6.5769,6.5814,6.5858,6.6143,6.6256,6.6023,6.6357,6.6555,6.6238,6.6889,6.7568,6.8054,6.9394,7.0497,7.1154,7.2079,7.2792,7.3095,7.4093,7.4629,7.4629,7.4819,7.4895,7.4895,7.4895,7.4895,7.4895,7.4895,7.4895,7.4895,7.4895,7.4895,7.4895,7.4895,7.4895,7.4895,7.4895,7.5274,7.588,7.6032,7.6945,7.8283,7.8707,7.9397,8.0125,5.492,5.5223,5.5527,5.5527,5.583,5.6095,5.6095,5.6474,5.6777,5.6777,5.7118,5.7504,5.7824,5.7862,5.798,5.8257,5.8535,5.8803,5.9102,5.8572,5.8415,5.8825,5.8702,5.8661,5.8698,5.8455,5.7919,5.71,5.697,5.6882,5.6748,5.6785,5.6785,5.6748,5.6785,5.7005,5.7336,5.6932,5.7226,5.796,5.7556,5.7629,5.7997,5.8088,5.8088,5.8198,5.9062,5.9964,6.0794,6.1374,6.1863,6.2271,6.2732,6.3132,6.3419,6.3419,6.3373,6.3447,6.391,6.4021,6.4207,6.519,6.5422,6.5311,6.4902,6.5125,6.5422,6.5422,6.5849,6.6284,6.6374,6.6469,6.6518,6.6555,6.7321,6.7653,6.7016,6.7741,6.8227,6.8036,6.8027,6.8315,6.8989,7.0648,7.1776,7.2014,7.3079,7.3791,7.4048,7.4585,7.4895,7.4895,7.4895,7.4895,7.4895,7.4895,7.5084,7.5463,7.5084,7.4895,7.4895,7.4895,7.4895,7.4895,7.4895,7.4895,7.4895,7.4895,7.5387,7.6145,7.6562,7.7552,7.8732,7.9236,7.9854,8.0392,5.511,5.5716,5.6247,5.636,5.6967,5.7384,5.7384,5.7535,5.7611,5.7611,5.7693,5.8008,5.8589,5.8802,5.9105,5.9731,5.9626,5.9515,5.9478,5.9278,5.9231,5.9393,5.9859,5.9812,5.9144,6.0226,6.0063,5.8393,5.8371,5.8235,5.7997,5.7336,5.7373,5.796,5.7299,5.7373,5.7997,5.7997,5.807,5.8217,5.8217,5.8217,5.8263,5.8354,5.8326,5.8444,6.001,6.1291,6.2234,6.2345,6.2493,6.2715,6.3382,6.3585,6.3638,6.3638,6.3638,6.3833,6.4641,6.4827,6.5059,6.6044,6.6314,6.6388,6.6648,6.65,6.6314,6.6314,6.6528,6.6822,6.7016,6.7155,6.7321,6.7471,6.8602,6.916,6.851,6.9386,7.0154,7.0256,6.9581,6.9472,7.0252,7.1752,7.278,7.3016,7.3883,7.4563,7.4812,7.4854,7.4895,7.4895,7.4895,7.4895,7.4895,7.4895,7.5311,7.6107,7.5425,7.5198,7.5349,7.5349,7.5349,7.5349,7.5349,7.5349,7.5349,7.5349,7.5804,7.66,7.732,7.8116,7.8955,7.9765,8.0195,8.0392,5.5868,5.6133,5.6398,5.7118,5.7308,5.7384,5.7384,5.8028,5.8521,5.8521,5.8996,5.9383,5.9663,5.9568,5.9731,6.0416,6.0379,6.0265,6.007,6.074,6.1065,6.0896,6.0964,6.0964,6.0853,6.0944,6.0108,5.8393,5.8869,5.8694,5.7997,5.7886,5.7886,5.7997,5.7886,5.7886,5.7997,5.7997,5.84,5.9061,5.9061,5.9108,5.921,5.921,5.8895,5.8504,5.9427,6.0811,6.2308,6.3012,6.3715,6.4261,6.4277,6.4842,6.5445,6.5445,6.5483,6.5568,6.5858,6.5811,6.5949,6.6898,6.7168,6.7503,6.8914,6.8134,6.7168,6.7168,6.7688,6.849,6.9435,6.964,6.9864,7.0574,7.0421,7.0309,7.0474,7.0236,7.0246,7.071,7.1292,7.1998,7.2815,7.3127,7.3378,7.3677,7.3991,7.426,7.4563,7.4771,7.4895,7.4895,7.4895,7.4895,7.4895,7.4895,7.5311,7.6107,7.5994,7.6335,7.7055,7.7055,7.7055,7.7055,7.7055,7.7055,7.7055,7.7055,7.7548,7.8268,7.8382,7.8993,7.984,8.0197,8.0353,8.0392,5.6702,5.727,5.7687,5.8066,5.8483,5.8786,5.8786,5.9127,5.9355,5.9355,5.9592,5.9753,5.9753,6.0066,6.0448,6.0678,6.1056,6.1166,6.0927,6.1177,6.1273,6.1187,6.1633,6.1626,6.11,6.1855,6.1348,5.9632,5.9863,5.9732,5.9355,5.9355,5.9098,5.8694,5.8694,5.8437,5.7997,5.7997,5.8217,5.8584,5.9117,5.9348,5.9476,6.0092,6.01,6.0004,6.0863,6.2197,6.3604,6.3975,6.4546,6.4992,6.4561,6.5004,6.5595,6.5223,6.5493,6.6023,6.6601,6.6712,6.7009,6.8271,6.8654,6.8951,7.014,6.9843,6.9323,6.9323,6.9718,7.0198,7.0714,7.0845,7.1004,7.1237,7.1444,7.1434,7.0971,7.1132,7.1181,7.092,7.2072,7.2629,7.2072,7.3006,7.3442,7.3105,7.3719,7.4168,7.426,7.4519,7.4649,7.4649,7.4812,7.5122,7.5577,7.5577,7.6221,7.751,7.751,7.7472,7.7396,7.6903,7.6941,7.7358,7.6903,7.6941,7.7396,7.7396,7.7889,7.8609,7.8609,7.9187,7.9992,8.0154,8.0275,8.0392]},{"header":{"parameterUnit":"m.s-1","parameterCategory":1,"la1":30.6,"la2":28.766,"lo1":-90.7593,"lo2":-88.6598,"dy":0.0162,"dx":0.0183,"nx":116,"ny":114,"refTime":"2024-02-16T06:00:00:Z","depth":0,"parameterNumber":3,"parameterNumberName":"V-component_of_WINDS"},"data":[0.0,0.0,0.0,0.0,0.0,0.0,0.0,0.0,0.0,0.0,0.0,0.0,0.0,0.0,0.0,0.0,0.0,0.0,0.0,0.0,0.0,0.0,0.0,0.0,0.0,0.0,0.0,0.0,0.0,0.0,0.0,0.0,0.0,0.0,0.0,0.0,0.0,0.0,0.0,0.0,0.0,0.0,0.0,0.0,0.0,0.0,0.0,0.0,0.0,0.0,0.0,0.0,0.0,0.0,0.0,0.0,0.0,0.0,0.0,0.0,0.0,0.0,0.0,0.0,0.0,0.0,0.0,0.0,0.0,0.0,0.0,0.0,0.0,0.0,0.0,0.0,0.0,0.0,0.0,0.0,0.0,0.0,0.0,0.0,0.0,0.0,0.0,0.0,0.0,0.0,0.0,0.0,0.0,0.0,0.0,0.0,0.0,0.0,0.0,0.0,0.0,0.0,0.0,0.0,0.0,0.0,0.0,0.0,0.0,0.0,0.0,0.0,0.0,0.0,0.0,0.0,0.0,0.0,0.0,0.0,0.0,0.0,0.0,0.0,0.0,0.0,0.0,0.0,0.0,0.0,0.0,0.0,0.0,0.0,0.0,0.0,0.0,0.0,0.0,0.0,0.0,0.0,0.0,0.0,0.0,0.0,0.0,0.0,0.0,0.0,0.0,0.0,0.0,0.0,0.0,0.0,0.0,0.0,0.0,0.0,0.0,0.0,0.0,0.0,0.0,0.0,0.0,0.0,0.0,0.0,0.0,0.0,0.0,0.0,0.0,0.0,0.0,0.0,0.0,0.0,0.0,0.0,0.0,0.0,0.0,0.0,0.0,0.0,0.0,0.0,0.0,0.0,0.0,0.0,0.0,0.0,0.0,0.0,0.0,0.0,0.0,0.0,0.0,0.0,0.0,0.0,0.0,0.0,0.0,0.0,0.0,0.0,0.0,0.0,0.0,0.0,0.0,0.0,0.0,0.0,0.0,0.0,0.0,0.0,0.0,0.0,0.0,0.0,0.0,0.0,0.0,0.0,0.0,0.0,0.0,0.0,0.0,0.0,0.0,0.0,0.0,0.0,0.0,0.0,0.0,0.0,0.0,0.0,0.0,0.0,0.0,0.0,0.0,0.0,0.0,0.0,0.0,0.0,0.0,0.0,0.0,0.0,0.0,0.0,0.0,0.0,0.0,0.0,0.0,0.0,0.0,0.0,0.0,0.0,0.0,0.0,0.0,0.0,0.0,0.0,0.0,0.0,0.0,0.0,0.0,0.0,0.0,0.0,0.0,0.0,0.0,0.0,0.0,0.0,0.0,0.0,0.0,0.0,0.0,0.0,0.0,0.0,0.0,0.0,0.0,0.0,0.0,0.0,0.0,0.0,0.0,0.0,0.0,0.0,0.0,0.0,0.0,0.0,0.0,0.0,0.0,0.0,0.0,0.0,0.0,0.0,0.0,0.0,0.0,0.0,0.0,0.0,0.0,0.0,0.0,0.0,0.0,0.0,0.0,0.0,0.0,0.0,0.0,0.0,0.0,0.0,0.0,0.0,0.0,0.0,0.0,0.0,0.0,0.0,0.0,0.0,0.0,0.0,0.0,0.0,0.0,0.0,0.0,0.0,0.0,0.0,0.0,0.0,0.0,0.0,0.0,0.0,0.0,0.0,0.0,0.0,0.0,0.0,0.0,0.0,0.0,0.0,0.0,0.0,0.0,0.0,0.0,0.0,0.0,0.0,0.0,0.0,0.0,0.0,0.0,0.0,0.0,0.0,0.0,0.0,0.0,0.0,0.0,0.0,0.0,0.0,0.0,0.0,0.0,0.0,0.0,0.0,0.0,0.0,0.0,0.0,0.0,0.0,0.0,0.0,0.0,0.0,0.0,0.0,0.0,0.0,0.0,0.0,0.0,0.0,0.0,0.0,0.0,0.0,0.0,0.0,0.0,0.0,0.0,0.0,0.0,0.0,0.0,0.0,0.0,0.0,0.0,0.0,0.0,0.0,0.0,0.0,0.0,0.0,0.0,0.0,0.0,0.0,0.0,0.0,0.0,0.0,0.0,0.0,0.0,0.0,0.0,0.0,0.0,0.0,0.0,0.0,0.0,0.0,0.0,0.0,0.0,0.0,0.0,0.0,0.0,0.0,0.0,0.0,0.0,0.0,0.0,0.0,0.0,0.0,0.0,0.0,0.0,0.0,0.0,0.0,0.0,0.0,0.0,0.0,0.0,0.0,0.0,0.0,0.0,0.0,0.0,0.0,0.0,0.0,0.0,0.0,0.0,0.0,0.0,0.0,0.0,0.0,0.0,0.0,0.0,0.0,0.0,0.0,0.0,0.0,0.0,0.0,0.0,0.0,0.0,0.0,0.0,0.0,0.0,0.0,0.0,0.0,0.0,0.0,0.0,0.0,0.0,0.0,0.0,0.0,0.0,0.0,0.0,0.0,0.0,0.0,0.0,0.0,0.0,0.0,0.0,0.0,0.0,0.0,0.0,0.0,0.0,0.0,0.0,0.0,0.0,0.0,0.0,0.0,0.0,0.0,0.0,0.0,0.0,0.0,0.0,0.0,0.0,0.0,0.0,0.0,0.0,0.0,0.0,0.0,0.0,0.0,0.0,0.0,0.0,0.0,0.0,0.0,0.0,0.0,0.0,0.0,0.0,0.0,0.0,0.0,0.0,0.0,0.0,0.0,0.0,0.0,0.0,0.0,0.0,0.0,0.0,0.0,0.0,0.0,0.0,0.0,0.0,0.0,0.0,0.0,0.0,0.0,0.0,0.0,0.0,0.0,0.0,0.0,0.0,0.0,0.0,0.0,0.0,0.0,0.0,0.0,0.0,0.0,0.0,0.0,0.0,0.0,0.0,0.0,0.0,0.0,0.0,0.0,0.0,0.0,0.0,0.0,0.0,0.0,0.0,0.0,0.0,0.0,0.0,0.0,0.0,0.0,0.0,0.0,0.0,0.0,0.0,0.0,0.0,0.0,0.0,0.0,0.0,0.0,0.0,0.0,0.0,0.0,0.0,0.0,0.0,0.0,0.0,0.0,0.0,0.0,0.0,0.0,0.0,0.0,0.0,0.0,0.0,0.0,0.0,0.0,0.0,0.0,0.0,0.0,0.0,0.0,0.0,0.0,0.0,0.0,0.0,0.0,0.0,0.0,0.0,0.0,0.0,0.0,0.0,0.0,0.0,0.0,0.0,0.0,0.0,0.0,0.0,0.0,0.0,0.0,0.0,0.0,0.0,0.0,0.0,0.0,0.0,0.0,0.0,0.0,0.0,0.0,0.0,0.0,0.0,0.0,0.0,0.0,0.0,0.0,0.0,0.0,0.0,0.0,0.0,0.0,0.0,0.0,0.0,0.0,0.0,0.0,0.0,0.0,0.0,0.0,0.0,0.0,0.0,0.0,0.0,0.0,0.0,0.0,0.0,0.0,0.0,0.0,0.0,0.0,0.0,0.0,0.0,0.0,0.0,0.0,0.0,0.0,0.0,0.0,0.0,0.0,0.0,0.0,0.0,0.0,0.0,0.0,0.0,0.0,0.0,0.0,0.0,0.0,0.0,0.0,0.0,0.0,0.0,0.0,0.0,0.0,0.0,0.0,0.0,0.0,0.0,0.0,0.0,0.0,0.0,0.0,0.0,0.0,0.0,0.0,0.0,0.0,0.0,0.0,0.0,0.0,0.0,0.0,0.0,0.0,0.0,0.0,0.0,0.0,0.0,0.0,0.0,0.0,0.0,0.0,0.0,0.0,0.0,0.0,0.0,0.0,0.0,0.0,0.0,0.0,0.0,0.0,0.0,0.0,0.0,0.0,0.0,0.0,0.0,0.0,0.0,0.0,0.0,0.0,0.0,0.0,0.0,0.0,0.0,0.0,0.0,0.0,0.0,0.0,0.0,0.0,0.0,0.0,0.0,0.0,0.0,0.0,0.0,0.0,0.0,0.0,0.0,0.0,0.0,0.0,0.0,0.0,0.0,0.0,0.0,0.0,0.0,0.0,0.0,0.0,0.0,0.0,0.0,0.0,0.0,0.0,0.0,0.0,0.0,0.0,0.0,0.0,0.0,0.0,0.0,0.0,0.0,0.0,0.0,0.0,0.0,0.0,0.0,0.0,0.0,0.0,0.0,0.0,0.0,0.0,0.0,0.0,0.0,0.0,0.0,0.0,0.0,0.0,0.0,0.0,0.0,0.0,0.0,0.0,0.0,0.0,0.0,0.0,0.0,0.0,0.0,0.0,0.0,0.0,0.0,0.0,0.0,0.0,0.0,0.0,0.0,0.0,0.0,0.0,0.0,0.0,0.0,0.0,0.0,0.0,0.0,0.0,0.0,0.0,0.0,0.0,0.0,0.0,0.0,0.0,0.0,0.0,0.0,0.0,0.0,0.0,0.0,0.0,0.0,0.0,0.0,0.0,0.0,0.0,0.0,0.0,0.0,0.0,0.0,0.0,0.0,0.0,0.0,0.0,0.0,0.0,0.0,0.0,0.0,0.0,0.0,0.0,0.0,0.0,0.0,0.0,0.0,0.0,0.0,0.0,0.0,0.0,0.0,0.0,0.0,0.0,0.0,0.0,0.0,0.0,0.0,0.0,0.0,0.0,0.0,0.0,0.0,0.0,0.0,0.0,0.0,0.0,0.0,0.0,0.0,0.0,0.0,0.0,0.0,0.0,0.0,0.0,0.0,0.0,0.0,0.0,0.0,0.0,0.0,0.0,0.0,0.0,0.0,0.0,0.0,0.0,0.0,0.0,0.0,0.0,0.0,0.0,0.0,0.0,0.0,0.0,0.0,0.0,0.0,0.0,0.0,0.0,0.0,0.0,0.0,0.0,0.0,0.0,0.0,0.0,0.0,0.0,0.0,0.0,0.0,0.0,0.0,0.0,0.0,0.0,0.0,0.0,0.0,0.0,0.0,0.0,0.0,0.0,0.0,0.0,0.0,0.0,0.0,0.0,0.0,0.0,0.0,0.0,0.0,0.0,0.0,0.0,0.0,0.0,0.0,0.0,0.0,0.0,0.0,0.0,0.0,0.0,0.0,0.0,0.0,0.0,0.0,0.0,0.0,0.0,0.0,0.0,0.0,0.0,0.0,0.0,0.0,0.0,0.0,0.0,0.0,0.0,0.0,0.0,0.0,0.0,0.0,0.0,0.0,0.0,0.0,0.0,0.0,0.0,0.0,0.0,0.0,0.0,0.0,0.0,0.0,0.0,0.0,0.0,0.0,0.0,0.0,0.0,0.0,0.0,0.0,0.0,0.0,0.0,0.0,0.0,0.0,0.0,0.0,0.0,0.0,0.0,0.0,0.0,0.0,0.0,0.0,0.0,0.0,0.0,0.0,0.0,0.0,0.0,0.0,0.0,0.0,0.0,0.0,0.0,0.0,0.0,0.0,0.0,0.0,0.0,0.0,0.0,0.0,0.0,0.0,0.0,0.0,0.0,0.0,0.0,0.0,0.0,0.0,0.0,0.0,0.0,0.0,0.0,0.0,0.0,0.0,0.0,0.0,0.0,0.0,0.0,0.0,0.0,0.0,0.0,0.0,0.0,0.0,0.0,0.0,0.0,0.0,0.0,0.0,0.0,0.0,0.0,0.0,0.0,0.0,0.0,0.0,0.0,0.0,0.0,0.0,0.0,0.0,0.0,0.0,0.0,0.0,0.0,0.0,0.0,0.0,0.0,0.0,0.0,0.0,0.0,0.0,0.0,0.0,0.0,0.0,0.0,0.0,0.0,0.0,0.0,0.0,0.0,0.0,0.0,0.0,0.0,0.0,0.0,0.0,0.0,0.0,0.0,0.0,0.0,0.0,0.0,0.0,0.0,0.0,0.0,0.0,0.0,0.0,0.0,0.0,0.0,0.0,0.0,0.0,0.0,0.0,0.0,0.0,0.0,0.0,0.0,0.0,0.0,0.0,0.0,0.0,0.0,0.0,0.0,0.0,0.0,0.0,0.0,0.0,0.0,0.0,0.0,0.0,0.0,0.0,0.0,0.0,0.0,0.0,0.0,0.0,0.0,0.0,0.0,0.0,0.0,0.0,0.0,0.0,0.0,0.0,0.0,0.0,0.0,0.0,0.0,0.0,0.0,0.0,0.0,0.0,0.0,0.0,0.0,0.1802,0.1733,0.0,0.0,0.0,0.0,0.0,0.0,0.0,0.0,0.0,0.0,0.0,0.0,0.0,0.0,0.0,0.0,0.0,0.0,0.0,0.0,0.0,0.0,0.0,0.0,0.0,0.0,0.0,0.0,0.0,0.0,0.0,0.0,0.0,0.0,-0.3894,-0.3828,-0.3722,-0.3701,-0.3405,-0.3355,-0.3405,-0.3556,-0.3581,-0.3626,0.0,0.0,0.0,0.0,0.0,0.0,0.0,0.0,0.0,0.0,0.0,0.0,0.0,0.0,0.0,0.0,0.0,0.0,0.0,0.0,0.0,0.0,0.0,0.0,0.0,0.0,0.0,0.0,0.0,0.0,0.0,0.0,0.0,0.0,0.0,0.0,0.0,0.0,0.0,0.0,0.0,0.0,0.0,0.0,0.0,0.0,0.0,0.0,0.0,0.0,0.0,0.0,0.0,0.0,0.0,0.0,0.0,0.0,0.0,0.0,0.0,0.0,0.0,0.0,0.0,0.0,0.0,0.0,0.0,0.0,0.1869,0.1732,0.0,0.0,0.0,0.0,0.0,0.0,0.0,0.0,0.0,0.0,0.0,0.0,0.0,0.0,0.0,0.0,0.0,0.0,0.0,0.0,0.0,0.0,0.0,-0.3567,-0.3703,-0.352,-0.352,-0.3759,-0.4122,-0.3988,-0.3988,-0.4127,-0.4112,-0.3998,-0.3785,-0.3587,-0.3569,-0.3732,-0.3374,-0.3293,-0.3512,-0.385,-0.3897,-0.3818,0.0,0.0,0.0,0.0,0.0,0.0,0.0,0.0,0.0,0.0,0.0,0.0,0.0,0.0,0.0,0.0,0.0,0.0,0.0,0.0,0.0,0.0,0.0,0.0,0.0,0.0,0.0,0.0,0.0,0.0,0.0,0.0,0.0,0.0,0.0,0.0,0.0,0.0,0.0,0.0,0.0,0.0,0.0,0.0,0.0,0.0,0.0,0.0,0.0,0.0,0.0,0.0,0.0,0.0,0.0,0.0,0.0,0.0,0.0,0.0,0.0,0.0,0.0,0.0,0.213,0.1828,0.1854,0.2095,0.1998,0.1779,0.1735,0.1746,0.179,0.1716,0.0,0.0,0.0,0.0,0.0,0.0,0.0,0.0,0.0,0.0,0.0,0.0,0.0,0.0,0.0,0.0,0.0,0.0,0.0,0.0,0.0,-0.337,-0.3529,-0.3608,-0.3756,-0.3904,-0.3918,-0.3918,-0.3918,-0.3918,-0.3895,-0.3813,-0.3613,-0.3617,-0.3455,-0.319,-0.3486,-0.3764,-0.412,-0.4459,-0.4664,-0.4894,-0.4458,0.0,0.0,0.0,0.0,0.0,0.0,0.0,0.0,0.0,0.0,0.0,0.0,0.0,0.0,0.0,0.0,0.0,0.0,0.0,0.0,0.0,0.0,0.0,0.0,0.0,0.0,0.0,0.0,0.0,0.0,0.0,0.0,0.0,0.0,0.0,0.0,0.0,0.0,0.0,0.0,0.0,0.0,0.0,-0.4267,-0.4388,0.0,0.0,0.0,0.0,0.0,0.0,0.0,0.0,0.0,0.0,0.0,0.0,0.0,-0.2058,-0.1132,-0.0548,0.0565,0.2159,0.2219,0.2133,0.19,0.1879,0.1883,0.1909,0.1926,0.0,0.1794,0.1782,0.0,0.0,0.0,0.0,0.0,0.0,0.0,0.0,0.0,0.0,0.0,0.0,0.0,0.0,0.0,0.0,0.0,0.0,0.0,0.0,0.0,-0.3376,-0.3522,-0.3509,-0.3697,-0.3747,-0.3885,-0.383,-0.3817,-0.387,-0.3875,-0.3732,-0.3581,-0.3509,-0.3483,-0.3403,-0.3852,-0.4218,-0.4398,-0.5165,-0.5644,-0.5731,-0.6019,-0.5872,-0.5315,-0.5352,0.0,0.0,0.0,0.0,0.0,0.0,0.0,0.0,0.0,0.0,0.0,0.0,0.0,0.0,0.0,0.0,0.0,0.0,0.0,0.0,0.0,0.0,0.0,0.0,0.0,0.0,0.0,0.0,0.0,0.0,0.0,0.0,0.0,0.0,0.0,0.0,0.0,0.0,0.0,-0.4246,-0.4201,-0.4201,-0.4208,-0.4227,0.0,0.0,0.0,0.0,0.0,0.0,0.0,0.0,0.0,-0.3257,-0.34,-0.2232,0.0115,0.0826,0.1443,0.1941,0.209,0.2112,0.2005,0.1974,0.1967,0.1982,0.2012,0.1977,0.1895,0.1879,0.1843,0.1793,0.0,0.0,0.0,0.0,0.1865,0.1885,0.0,0.0,0.0,0.0,0.0,0.0,0.0,0.0,0.0,0.0,0.0,0.0,-0.3189,-0.3403,-0.3579,-0.3563,-0.3538,-0.3668,-0.3789,-0.3682,-0.3627,-0.3721,-0.3734,-0.3666,-0.3499,-0.3515,-0.3655,-0.3909,-0.4302,-0.4549,-0.4739,-0.5691,-0.6266,-0.6362,-0.7356,-0.7195,-0.6262,-0.6323,-0.6362,0.0,0.0,0.0,0.0,0.0,0.0,0.0,0.0,0.0,0.0,0.0,0.0,0.0,0.0,0.0,0.0,0.0,0.0,0.0,0.0,0.0,0.0,0.0,0.0,0.0,0.0,0.0,0.0,0.0,0.0,0.0,0.0,0.0,0.0,0.0,0.0,0.0,0.0,-0.4149,-0.4058,-0.4096,-0.4114,-0.4175,0.0,0.0,0.0,0.0,0.0,0.0,-0.4302,-0.4136,-0.3504,-0.2321,-0.2924,-0.1911,0.0745,0.1627,0.2144,0.203,0.203,0.2038,0.2052,0.2022,0.2008,0.2009,0.2039,0.2023,0.1975,0.196,0.1918,0.1857,0.1909,0.1884,0.1882,0.1857,0.1863,0.1889,0.0,0.0,0.0,0.0,0.0,0.0,0.0,0.0,0.0,0.0,0.0,-0.3078,-0.3458,-0.3491,-0.3504,-0.3575,-0.3531,-0.3491,-0.348,-0.3275,-0.322,-0.3499,-0.3336,-0.3328,-0.3495,-0.3591,-0.4008,-0.4545,-0.4638,-0.4831,-0.5227,-0.5727,-0.6326,-0.683,-0.7554,-0.7687,-0.7182,-0.6869,-0.6917,-0.7218,0.0,0.0,0.0,0.0,0.0,0.0,0.0,0.0,0.0,0.0,0.0,0.0,0.0,0.0,0.0,0.0,0.0,0.0,0.0,0.0,0.0,0.0,0.0,0.0,0.0,0.0,0.0,0.0,0.0,0.0,0.0,0.0,0.0,0.0,0.0,0.0,0.0,0.0,0.0,-0.405,-0.406,0.0,0.0,0.0,0.0,-0.4325,-0.4371,-0.4496,-0.5118,-0.4158,-0.3369,-0.2643,-0.1098,-0.0124,0.0,0.1426,0.2089,0.2061,0.2061,0.2048,0.202,0.1992,0.1978,0.1981,0.2008,0.2004,0.1978,0.2004,0.1979,0.1921,0.2092,0.218,0.218,0.2179,0.2179,0.2185,0.0,0.0,0.0,0.0,0.0,0.0,0.0,0.0,-0.2919,-0.3009,-0.3147,-0.3355,-0.3491,-0.3782,-0.4026,-0.3949,-0.3853,-0.3799,-0.3736,-0.3463,-0.3338,-0.3522,-0.3507,-0.3597,-0.3838,-0.411,-0.4442,-0.4853,-0.501,-0.5504,-0.6537,-0.6637,-0.7335,-0.8329,-0.8977,-0.9205,-0.9042,-0.8875,-0.8746,-0.8689,-0.9052,-0.9025,0.0,0.0,0.0,0.0,0.0,0.0,0.0,0.0,0.0,0.0,0.0,0.0,0.0,0.0,0.0,0.0,0.0,0.0,0.0,0.0,0.0,0.0,0.0,0.0,0.0,0.0,0.0,0.0,0.0,0.0,0.0,0.0,0.0,0.0,0.0,0.0,0.0,-0.4454,-0.4446,0.0,-0.4307,-0.4121,-0.4029,-0.4324,-0.4352,-0.4262,-0.4257,-0.4309,-0.4052,-0.3447,-0.1274,0.0,0.0,0.052,0.1167,0.2064,0.2064,0.2059,0.2046,0.2018,0.2004,0.2004,0.2014,0.2003,0.1978,0.2007,0.1996,0.1956,0.2035,0.2018,0.2015,0.1994,0.1987,0.1989,0.0,0.0,0.0,0.0,0.0,0.0,0.0,0.0,-0.3026,-0.3059,-0.3251,-0.3495,-0.363,-0.395,-0.4214,-0.4218,-0.3957,-0.3894,-0.3871,-0.3531,-0.3385,-0.3655,-0.3748,-0.3943,-0.4165,-0.4497,-0.4746,-0.4997,-0.5479,-0.6235,-0.7168,-0.7464,-0.8174,-0.9221,-0.9871,-1.0103,-1.0211,-1.0771,-1.0574,-0.9923,-1.0631,-1.0602,-0.995,0.0,0.0,0.0,0.0,0.0,0.0,0.0,0.0,0.0,0.0,0.0,0.0,0.0,0.0,0.0,0.0,0.0,0.0,0.0,0.0,0.0,0.0,0.0,0.0,0.0,0.0,0.0,0.0,0.0,0.0,0.0,0.0,0.0,0.0,-0.4545,-0.4426,-0.4493,-0.4552,-0.4321,-0.3684,-0.3996,-0.4044,-0.3532,-0.3858,-0.4076,-0.416,-0.4186,-0.4267,-0.455,-0.1546,0.0,0.0,0.0,0.0641,0.1793,0.1912,0.2034,0.2034,0.2014,0.2004,0.2004,0.1993,0.1978,0.1963,0.1981,0.1978,0.196,0.1951,0.194,0.1929,0.1909,0.1895,0.1883,0.0,0.0,0.0,0.0,0.0,0.0,0.0,-0.2901,-0.3047,-0.3079,-0.3197,-0.3473,-0.3879,-0.3972,-0.4104,-0.4171,-0.4,-0.3842,-0.3871,-0.3528,-0.3498,-0.3873,-0.4135,-0.4253,-0.443,-0.4631,-0.4913,-0.5094,-0.6233,-0.6899,-0.7227,-0.8083,-0.8751,-0.932,-1.0096,-1.0382,-1.0602,-1.2342,-1.2304,-1.1021,-1.1315,-1.1163,-1.0619,0.0,0.0,0.0,0.0,0.0,0.0,0.0,0.0,0.0,0.0,0.0,0.0,0.0,0.0,0.0,0.0,0.0,0.0,0.0,0.0,0.0,0.0,0.0,0.0,0.0,0.0,0.0,0.0,0.0,0.0,0.0,0.0,0.0,-0.4746,-0.4625,-0.4443,-0.43,-0.4145,-0.3455,-0.1742,-0.349,-0.3902,-0.2009,-0.299,-0.3984,-0.4593,-0.3676,-0.3857,-0.5693,-0.2022,0.0,0.0,0.0,0.0378,0.1009,0.1615,0.1974,0.1974,0.1975,0.1974,0.1973,0.1943,0.193,0.1929,0.193,0.1932,0.1934,0.1964,0.1958,0.1932,0.1932,0.191,0.1874,0.0,0.0,0.0,0.0,0.0,0.0,0.0,-0.2901,-0.3047,-0.3079,-0.3462,-0.3694,-0.3887,-0.411,-0.4326,-0.4374,-0.401,-0.3807,-0.3941,-0.3539,-0.3486,-0.3964,-0.4172,-0.4365,-0.4532,-0.4856,-0.5405,-0.5863,-0.6509,-0.7472,-0.8771,-0.827,-0.9028,-1.06,-1.0307,-1.0742,-1.1599,-1.2892,-1.3201,-1.277,-1.3084,-1.2594,-1.1754,0.0,0.0,0.0,0.0,0.0,0.0,0.0,0.0,0.0,0.0,0.0,0.0,0.0,0.0,0.0,0.0,0.0,0.0,0.0,0.0,0.0,0.0,0.0,0.0,0.0,0.0,0.0,0.0,0.0,0.0,0.0,-0.4657,-0.4923,-0.5026,-0.5054,-0.5024,-0.4979,-0.4021,-0.2983,-0.2123,-0.1613,-0.173,-0.2601,-0.1601,-0.1971,-0.3989,-0.3881,-0.3032,-0.1668,-0.0508,0.0,0.0,0.0,0.0367,0.0978,0.1564,0.191,0.1911,0.1933,0.1932,0.1911,0.1925,0.1918,0.19,0.1922,0.1932,0.1934,0.1964,0.1958,0.1932,0.1932,0.1884,0.1812,0.0,0.0,0.0,0.0,0.0,0.0,0.0,-0.2901,-0.3047,-0.3079,-0.3483,-0.3797,-0.3887,-0.4098,-0.4199,-0.4199,-0.3867,-0.3737,-0.3868,-0.3718,-0.3822,0.0,0.0,-0.4647,-0.4873,-0.5143,-0.5645,-0.6452,-0.6978,-0.7938,-0.926,-0.8965,-0.9636,-1.1189,-1.0956,-1.1452,-1.2484,-1.3254,-1.3685,-1.3782,-1.3991,-1.347,-1.2589,-1.2628,-1.2024,-1.1096,-1.1029,-1.048,-0.9806,-0.9317,0.0,0.0,0.0,0.0,0.0,0.0,0.0,0.0,0.0,0.0,0.0,0.0,0.0,0.0,0.0,0.0,0.0,0.0,0.0,0.0,0.0,0.0,0.0,0.0,-0.4978,-0.5111,-0.5406,-0.5354,-0.5272,-0.5247,-0.3211,-0.1625,-0.1264,-0.0502,-0.0499,-0.1625,-0.062,-0.062,-0.2125,-0.3253,-0.2764,-0.0127,0.0,0.0,0.0,0.0,0.0356,0.0956,0.1529,0.1873,0.1887,0.1904,0.1903,0.1887,0.1891,0.1891,0.1887,0.1904,0.1919,0.1933,0.0,0.0,0.0,0.0,0.184,0.1786,0.0,0.0,0.0,0.0,0.0,0.0,0.0,-0.2901,-0.3051,-0.3091,-0.3491,-0.3797,-0.3887,-0.3961,-0.3935,-0.4024,-0.381,-0.3636,-0.3605,-0.4005,0.0,-0.4254,-0.4672,-0.4958,-0.5236,-0.5452,-0.5987,-0.6846,-0.7678,-0.835,-0.9068,-0.9723,-1.0412,-1.1236,-1.1596,-1.2304,-1.308,-1.3613,-1.3933,-1.4116,-1.4169,-1.3933,-1.3435,-1.3057,-1.2594,-1.2078,-1.1796,-1.1333,-1.0913,-1.0726,0.0,0.0,0.0,0.0,0.0,0.0,0.0,0.0,0.0,0.0,0.0,0.0,0.0,0.0,0.0,0.0,0.0,0.0,0.0,0.0,0.0,0.0,0.0,0.0,-0.517,-0.5244,-0.5291,-0.5152,-0.5203,-0.5437,-0.2599,-0.0502,-0.0,0.0,0.0,0.0,0.0,0.0,0.0,-0.2224,0.0,0.0,0.0,0.0,0.0,0.0,0.0348,0.106,0.1504,0.1853,0.2003,0.1885,0.1884,0.188,0.1859,0.1859,0.1876,0.1887,0.1904,0.1926,0.1926,0.191,0.1879,0.1817,0.1793,0.1782,0.0,0.0,0.0,0.0,0.0,0.0,0.0,-0.2901,-0.3013,-0.3177,-0.3528,-0.3797,-0.3887,-0.4079,-0.411,-0.4197,-0.3886,-0.3744,-0.3847,0.0,-0.4305,-0.464,-0.4701,-0.5125,-0.5837,-0.6116,-0.675,-0.7904,-0.8453,-0.9028,-0.9636,-0.9588,-1.0071,-1.1153,-1.1321,-1.1864,-1.2761,-1.3508,-1.3843,-1.3964,-1.4147,-1.404,-1.372,-1.389,-1.357,-1.3271,-1.3806,-1.3485,-1.2854,-1.2843,-1.2193,-1.1077,-0.96,0.0,0.0,0.0,0.0,0.0,0.0,0.0,0.0,0.0,0.0,0.0,0.0,0.0,0.0,0.0,0.0,0.0,0.0,0.0,0.0,-0.5071,-0.539,-0.5057,-0.347,-0.3286,-0.3918,-0.5569,-0.5158,-0.3486,-0.0251,0.0,0.0,0.0,0.0,0.0,0.0,-0.0494,-0.0494,-0.0,0.0,0.0,0.0,0.0,0.0587,0.1768,0.1829,0.0,0.224,0.2003,0.1873,0.1851,0.1895,0.1876,0.1819,0.1892,0.1911,0.1895,0.1895,0.1891,0.1879,0.1817,0.1779,0.1757,0.0,0.0,0.0,0.0,0.0,0.0,0.0,-0.2805,-0.294,-0.3071,-0.3369,-0.3614,-0.3597,-0.3726,-0.3718,-0.3639,-0.3598,-0.3643,0.0,-0.4162,-0.4402,-0.4534,-0.4724,-0.5092,-0.5737,-0.5896,-0.6497,-0.7627,-0.8206,-0.8751,-0.9345,-0.9665,-1.0371,-1.1457,-1.1557,-1.2191,-1.3237,-1.3666,-1.3854,-1.3882,-1.3911,-1.3868,-1.3663,-1.4096,-1.409,-1.4015,-1.4573,-1.456,-1.4057,-1.4378,-1.372,-1.2655,-1.1494,-1.0492,-0.944,0.0,0.0,0.0,0.0,0.0,0.0,0.0,0.0,0.0,0.0,0.0,0.0,0.0,0.0,-0.4573,-0.4798,0.0,-0.5128,-0.5402,-0.5569,-0.4979,-0.3125,-0.1943,-0.1709,-0.2808,-0.295,-0.2228,-0.025,0.0,0.0,0.0,0.0,0.0,0.0,0.0,0.0,0.0,0.0,0.0,0.0,0.0,0.0471,0.1532,0.2087,0.2321,0.2121,0.2003,0.1877,0.1864,0.1879,0.1877,0.1866,0.1913,0.1913,0.1884,0.1869,0.1854,0.1836,0.1806,0.1785,0.177,0.0,0.0,0.0,0.0,0.0,0.0,0.0,-0.2768,-0.2862,-0.303,-0.3272,-0.3355,-0.3366,-0.3377,-0.3341,-0.3175,-0.3463,-0.3699,0.0,-0.4211,-0.4383,-0.4429,-0.4638,-0.4943,-0.5564,-0.5653,-0.6117,-0.7061,-0.7792,-0.8374,-0.8898,-0.9638,-1.0594,-1.1567,-1.1775,-1.2516,-1.3572,-1.3784,-1.3868,-1.393,-1.3868,-1.38,-1.362,-1.4004,-1.4185,-1.4106,-1.4671,-1.4698,-1.4573,-1.5199,-1.4607,-1.3688,-1.3052,-1.2086,-1.0925,-0.9473,-0.8444,0.0,0.0,0.0,0.0,0.0,0.0,0.0,0.0,0.0,-0.4212,-0.4687,-0.4728,-0.4822,-0.5128,-0.523,-0.5382,-0.5725,-0.57,-0.4968,-0.3254,-0.1324,0.0121,0.0368,0.0123,0.0,0.0,0.0,0.0,0.0,0.0,0.0,0.0,0.0,0.0,0.0,0.0242,0.0361,0.0355,0.0354,0.0708,0.1302,0.2346,0.2583,0.2012,0.1883,0.1877,0.1876,0.1844,0.1869,0.193,0.1918,0.1899,0.1874,0.185,0.1821,0.1795,0.1795,0.1795,0.1791,0.0,0.0,0.0,0.0,0.0,0.0,0.0,0.0,-0.2887,-0.3054,-0.3242,-0.3401,-0.3503,-0.3515,-0.3535,-0.3463,-0.3742,0.0,-0.4181,-0.4235,-0.4253,-0.4429,-0.4437,-0.4774,-0.5359,-0.6097,-0.6774,-0.7398,-0.8052,-0.8689,-0.922,-0.9324,-0.9828,-1.0617,-1.1672,-1.2316,-1.2625,-1.3717,-1.4136,-1.4162,-1.4169,-1.4063,-1.3902,-1.4138,-1.3821,-1.3268,-1.379,-1.3847,-1.3769,-1.455,-1.4561,-1.4126,-1.3454,-1.2519,-1.1439,-1.0061,-0.9005,-0.8238,-0.771,-0.6929,-0.5946,-0.5005,-0.4741,-0.4794,0.0,0.0,-0.4973,-0.5235,-0.5292,-0.5324,-0.5443,-0.541,-0.5459,-0.5737,-0.5647,-0.5039,-0.3298,-0.1321,0.0356,0.1449,0.0612,0.0,0.0,0.0,0.0,0.0,0.0,0.0,0.0,0.0,0.0,0.0,0.1108,0.1834,0.1806,0.1662,0.1899,0.2408,0.2421,0.2424,0.2282,0.1986,0.1846,0.1843,0.1813,0.185,0.1926,0.1873,0.1849,0.1844,0.1842,0.1821,0.1795,0.1795,0.1795,0.1794,0.0,0.0,0.0,0.0,0.0,0.0,0.0,0.0,0.0,-0.2939,-0.3063,-0.3195,-0.3335,-0.3307,-0.3295,-0.3348,-0.372,0.0,-0.4087,-0.4166,-0.4336,-0.4402,-0.4307,-0.4442,-0.4833,-0.51,-0.5465,-0.5822,-0.6748,-0.7328,-0.7545,-0.8655,-0.9548,-1.0349,-1.1638,-1.2452,-1.2989,-1.3867,-1.4158,-1.393,-1.3933,-1.3822,-1.3634,-1.3587,-1.3377,-1.3114,-1.3523,-1.3413,0.0,0.0,-1.3657,-1.3236,-1.3402,-1.272,-1.1657,-1.0754,-0.9621,-0.8452,-0.7394,-0.6563,-0.5858,0.0,-0.4862,-0.4679,-0.4751,-0.4493,-0.4369,-0.4779,-0.5043,-0.5182,-0.5268,-0.541,-0.5569,0.0,-0.5722,-0.5118,-0.3226,-0.1295,0.0704,0.2768,0.253,0.1689,0.073,0.0853,0.0734,0.0,0.0,0.0,0.0,0.1482,0.1969,0.1219,0.0975,0.1209,0.1904,0.1892,0.201,0.2499,0.2216,0.2227,0.2409,0.2022,0.1884,0.1868,0.1891,0.1883,0.1853,0.1862,0.1846,0.1813,0.1813,0.1806,0.1795,0.1795,0.1795,0.1795,0.0,0.0,0.0,0.0,0.0,0.0,0.0,0.0,0.0,0.0,-0.2343,-0.2432,-0.2758,-0.2702,-0.2826,-0.3199,0.0,0.0,0.0,-0.417,-0.4267,-0.4243,-0.4167,-0.4211,-0.4283,-0.4365,-0.4522,-0.465,-0.5601,-0.6196,-0.6527,-0.8066,-0.9254,-1.0123,-1.1522,-1.251,-1.3098,-1.3821,-1.404,-1.3933,-1.3986,-1.3836,-1.3556,-1.3373,-1.3136,-1.2811,-1.304,-1.2693,0.0,0.0,-1.247,-1.2078,-1.2734,-1.2217,-1.1257,-1.0968,-0.9938,-0.8601,-0.7006,-0.6452,-0.6091,-0.5503,-0.5088,-0.4908,-0.4632,-0.4303,-0.4108,-0.4453,-0.4722,-0.487,-0.5043,-0.5334,-0.5502,-0.5643,-0.5677,-0.5299,-0.3995,-0.0929,0.1625,0.3092,0.3448,0.2971,0.1549,0.1675,0.1566,0.0853,0.0484,0.0243,0.0245,0.1848,0.2704,0.231,0.133,0.108,0.1898,0.2116,0.2229,0.2476,0.2229,0.2242,0.2396,0.2029,0.1903,0.1899,0.1926,0.1894,0.1823,0.1858,0.1842,0.1795,0.1795,0.1795,0.1795,0.1795,0.1795,0.1795,0.0,0.0,0.0,0.0,0.0,0.0,0.0,0.0,0.0,0.0,0.0,0.0,0.0,-0.1819,-0.2245,-0.3283,0.0,0.0,0.0,-0.4055,-0.4107,-0.3721,-0.4113,-0.4076,-0.3493,-0.4439,-0.4739,-0.4586,-0.5276,-0.6075,-0.7209,-0.7756,-0.8692,-0.9926,-1.1345,-1.211,-1.2455,-1.3648,-1.4176,-1.4202,-1.4428,-1.4234,-1.3803,-1.3803,-1.3132,-1.212,-1.1889,0.0,0.0,-1.1282,-1.0967,-1.0845,-1.1303,-1.0928,0.0,-1.0387,-0.9762,-0.8621,-0.7088,-0.7015,-0.7031,-0.6027,-0.567,-0.5478,-0.5435,-0.5076,-0.4717,-0.4575,-0.4538,-0.4707,-0.5054,-0.5058,-0.5203,-0.5639,-0.5508,-0.5459,-0.576,-0.0232,0.3339,0.2073,0.2721,0.2977,0.0,0.1987,0.2124,0.2598,0.1555,0.0965,0.0966,0.0367,0.0988,0.2964,0.28,0.2414,0.1929,0.2688,0.2898,0.2356,0.2553,0.2554,0.224,0.1973,0.1874,0.1926,0.1869,0.1859,0.1881,0.1853,0.1823,0.1795,0.1795,0.1795,0.1795,0.1795,0.1795,0.1795,0.0,0.0,0.0,0.0,0.0,0.0,0.0,0.0,0.0,0.0,0.0,0.0,0.0,0.0,0.0,0.0,0.0,0.0,0.0,-0.3622,-0.3782,-0.3856,-0.3776,-0.3674,-0.3553,-0.3913,-0.4067,-0.4023,-0.4367,-0.4711,-0.5165,-0.6945,-0.8051,-0.8613,-1.1081,-1.2283,-1.2636,-1.3841,-1.4187,-1.4208,-1.4393,-1.4352,-1.4019,-1.3328,-1.2862,-1.2247,0.0,0.0,-1.0118,-1.0048,-0.9705,-0.9536,-1.0208,-0.9894,-0.9156,-0.8792,-0.8333,-0.7863,-0.7177,0.0,-0.6762,-0.6323,-0.567,-0.5063,-0.4916,-0.4385,-0.3951,-0.391,-0.4054,-0.4296,-0.4407,-0.4621,-0.474,-0.5094,-0.4241,-0.3418,-0.2733,0.0462,0.2795,0.2994,0.3164,0.0,0.0,0.0,0.2474,0.2594,0.2463,0.2126,0.1688,0.1921,0.2175,0.2346,0.2505,0.2469,0.19,0.2185,0.2281,0.2321,0.2474,0.2382,0.2036,0.1926,0.1919,0.1902,0.19,0.1872,0.1827,0.1836,0.1823,0.1795,0.1795,0.1795,0.1795,0.1795,0.1795,0.1795,0.0,0.0,0.0,0.0,0.0,0.0,0.0,0.0,0.0,0.0,0.0,0.0,0.0,0.0,0.0,0.0,0.0,0.0,0.0,0.0,-0.3706,-0.3764,-0.372,-0.3629,-0.3607,-0.3546,-0.3611,-0.3692,-0.383,-0.3978,-0.4367,-0.6152,-0.7376,-0.8045,-1.0404,-1.1854,-1.2606,-1.3409,-1.3841,-1.3957,-1.3983,-1.3826,-1.3506,-1.2678,-1.2055,0.0,0.0,0.0,-0.9135,-0.9058,-0.8865,-0.8666,-0.9151,-0.8913,-0.8452,-0.8077,-0.7967,-0.7804,-0.7319,-0.7182,-0.7015,-0.654,-0.5747,-0.501,-0.4836,-0.4242,-0.3611,-0.3521,-0.3734,-0.393,-0.4007,-0.4233,-0.4346,-0.4526,-0.3471,-0.2142,-0.0448,0.137,0.2782,0.3248,0.3293,0.3199,0.0,0.0,0.0,0.2456,0.2573,0.2351,0.1898,0.2375,0.2399,0.1959,0.2353,0.2319,0.1885,0.2066,0.2176,0.2341,0.2387,0.2176,0.1947,0.1945,0.1934,0.1918,0.1904,0.1872,0.1828,0.1836,0.1823,0.1795,0.1795,0.1795,0.1795,0.1795,0.1795,0.1795,0.0,0.0,0.0,0.0,0.0,0.0,0.0,0.0,0.0,0.0,0.0,0.0,0.0,0.0,0.0,0.0,0.0,0.0,0.0,0.0,0.0,-0.3486,-0.391,-0.3996,-0.3718,-0.3561,-0.3591,-0.3716,-0.3566,-0.3877,-0.4569,-0.5394,-0.6569,-0.7999,-0.9216,-1.0745,-1.2247,-1.258,-1.3128,-1.3557,-1.3128,-1.2751,-1.2404,-1.1672,0.0,0.0,0.0,0.0,-0.8685,-0.8477,-0.842,-0.8365,-0.8152,-0.8138,-0.813,-0.8277,-0.843,-0.8422,-0.766,-0.761,-0.7498,-0.6754,-0.5994,-0.53,-0.5079,-0.4521,-0.3799,-0.342,-0.3453,-0.369,0.0,0.0,-0.4113,-0.4058,-0.3289,-0.1877,0.0673,0.2479,0.3309,0.0,0.0,0.0,0.0,0.0,0.0,0.2312,0.2016,0.1903,0.1846,0.1898,0.1929,0.1929,0.2223,0.2203,0.1883,0.2437,0.2573,0.2411,0.2413,0.219,0.1974,0.1917,0.1921,0.1967,0.188,0.1857,0.1879,0.185,0.1821,0.1795,0.1795,0.1795,0.1795,0.1795,0.1795,0.1795,0.0,0.0,0.0,0.0,0.0,0.0,0.0,0.0,0.0,0.0,0.0,0.0,0.0,0.0,0.0,0.0,0.0,0.0,0.0,0.0,0.0,0.0,0.0,0.0,0.0,0.0,0.0,-0.3885,-0.3855,-0.4011,-0.4156,-0.5469,-0.6197,-0.6642,-0.885,-1.0095,-1.0567,-1.1838,-1.2265,-1.2123,0.0,-1.2272,-1.1888,0.0,0.0,0.0,0.0,0.0,0.0,0.0,0.0,0.0,0.0,-0.8176,-0.853,-0.8223,-0.8009,-0.784,-0.7529,-0.7106,-0.6702,-0.6469,-0.5977,-0.5399,-0.5089,-0.4504,-0.3884,-0.3451,-0.3486,-0.3633,0.0,0.0,0.0,-0.3792,-0.3529,0.0,0.0582,0.1783,0.0,0.2714,0.0,0.2682,0.2401,0.2431,0.0,0.2031,0.2139,0.2245,0.2227,0.2244,0.2135,0.1898,0.1977,0.196,0.1851,0.1984,0.213,0.2051,0.2076,0.2092,0.1975,0.196,0.1937,0.1907,0.1884,0.1853,0.1817,0.1809,0.1802,0.1795,0.1795,0.1795,0.1795,0.1795,0.1795,0.1795,0.0,0.0,0.0,0.0,0.0,0.0,0.0,0.0,0.0,0.0,0.0,0.0,0.0,0.0,0.0,0.0,0.0,0.0,0.0,0.0,0.0,0.0,0.0,0.0,0.0,0.0,0.0,0.0,0.0,0.0,-0.3901,-0.4843,-0.5441,-0.5882,-0.7846,-0.9022,-0.9694,-1.0807,0.0,0.0,0.0,0.0,0.0,0.0,0.0,0.0,0.0,0.0,0.0,0.0,0.0,-0.7687,-0.7352,-0.7225,-0.7197,-0.7148,0.0,-0.6852,-0.6672,-0.6333,-0.6037,-0.5737,-0.5267,-0.4875,-0.461,-0.4152,-0.3758,-0.3439,-0.3581,0.0,-0.3477,-0.3581,0.0,0.0,0.0,0.0,0.0115,0.1514,0.2467,0.0,0.2497,0.0,0.217,0.2188,0.2198,0.1951,0.2057,0.2153,0.2122,0.2121,0.2121,0.2121,0.1857,0.1853,0.188,0.1884,0.1907,0.1951,0.1969,0.1977,0.1975,0.1949,0.1925,0.1903,0.1864,0.1834,0.1813,0.1801,0.1795,0.1795,0.1795,0.1795,0.1795,0.1795,0.1795,0.1795,0.0,0.0,0.0,0.0,0.0,0.0,0.0,0.0,0.0,0.0,0.0,0.0,0.0,0.0,0.0,0.0,0.0,0.0,0.0,0.0,0.0,0.0,0.0,0.0,0.0,0.0,0.0,0.0,0.0,0.0,0.0,0.0,0.0,0.0,0.0,0.0,0.0,0.0,0.0,0.0,0.0,0.0,0.0,0.0,0.0,0.0,0.0,0.0,0.0,0.0,-0.7021,-0.6766,-0.6465,-0.5958,-0.5626,-0.5764,-0.5916,-0.5857,-0.5678,-0.5536,-0.534,-0.4951,-0.4497,-0.418,-0.4257,-0.3919,-0.3534,-0.3542,0.0,-0.3824,-0.3413,-0.3615,-0.3691,-0.3391,0.0,-0.0551,-0.0226,0.1564,0.2586,0.2,0.2331,0.2451,0.1919,0.1929,0.1941,0.1969,0.1974,0.1952,0.1895,0.1895,0.2015,0.2247,0.1979,0.1873,0.193,0.1904,0.1921,0.1977,0.1977,0.1977,0.1974,0.1918,0.1904,0.1921,0.1838,0.1813,0.1832,0.1806,0.1795,0.1795,0.1795,0.1795,0.1795,0.1795,0.1795,0.1795,0.0,0.0,0.0,0.0,0.0,0.0,0.0,0.0,0.0,0.0,0.116,0.0,0.0,0.0,0.0,0.0,0.0,0.0,0.0,0.0,0.0,0.0,0.0,0.0,0.0,0.0,0.0,0.0,0.0,0.0,0.0,0.0,0.0,0.0,0.0,0.0,0.0,0.0,0.0,0.0,0.0,0.0,0.0,0.0,0.0,0.0,0.0,0.0,0.0,0.0,-0.5996,-0.5996,-0.5741,-0.5994,-0.6338,-0.5811,-0.5811,-0.5961,-0.5698,-0.5236,-0.4951,-0.4928,-0.4802,-0.4626,-0.4317,-0.4164,0.0,0.0,-0.3667,-0.3685,-0.3291,-0.3477,-0.355,-0.3414,-0.1824,-0.0112,0.1301,0.1881,0.1994,0.0,0.2015,0.2,0.1892,0.1917,0.0,0.1939,0.1962,0.196,0.1925,0.1947,0.1949,0.1924,0.1894,0.1895,0.193,0.1926,0.1941,0.1977,0.1977,0.1977,0.1975,0.194,0.1913,0.1891,0.185,0.1821,0.1802,0.1797,0.1795,0.1795,0.1795,0.1795,0.1795,0.1795,0.1795,0.1795,0.0,0.0,0.0,0.0,0.0,0.0,0.0,0.0,0.0,0.0,0.1251,0.126,0.0,0.0,0.0,0.0,0.0,0.0,0.0,0.0,0.0,0.0,0.0,0.0,0.0,-0.3854,-0.3875,-0.383,0.0,-0.394,-0.3895,-0.3895,-0.3895,-0.3976,-0.4773,0.0,0.0,0.0,0.0,0.0,0.0,0.0,0.0,0.0,0.0,0.0,0.0,0.0,0.0,0.0,-0.4993,-0.4585,-0.4626,-0.4736,-0.4818,-0.461,-0.4706,-0.4781,-0.4626,-0.4336,-0.4152,-0.413,-0.3957,-0.3946,-0.3929,0.0,0.0,0.0,-0.3745,-0.3802,-0.3542,-0.3685,0.0,-0.2494,-0.136,-0.0,0.1579,0.2057,0.0,0.1858,0.1963,0.196,0.1861,0.1876,0.1891,0.1906,0.1936,0.1954,0.1955,0.2074,0.2188,0.2172,0.2139,0.2145,0.2196,0.206,0.1947,0.1977,0.1977,0.1977,0.1975,0.1945,0.1924,0.1907,0.1877,0.1855,0.184,0.1825,0.1819,0.1817,0.1801,0.1795,0.1797,0.1813,0.1809,0.1797,0.0,0.0,0.0,0.0,0.0,0.0,0.0,0.1172,0.1211,0.1309,0.1341,0.1352,0.1341,0.1307,0.1292,0.0,0.0,0.0,0.0,0.0,0.0,0.0,0.0,0.0,0.0,0.0,0.0,-0.3793,-0.3883,0.0,0.0,0.0,0.0,0.0,-0.4496,-0.4794,-0.4924,0.0,0.0,0.0,0.0,-0.6544,0.0,0.0,0.0,0.0,0.0,0.0,0.0,0.0,-0.4281,-0.3597,-0.3821,-0.3676,-0.3396,-0.351,-0.3613,-0.362,-0.3549,-0.3555,-0.3471,-0.3327,-0.3259,-0.3243,-0.3574,-0.3515,0.0,0.0,-0.3834,-0.3846,-0.3768,0.0,-0.3424,0.0,-0.0907,0.0106,0.1497,0.2195,0.2351,0.0,0.2024,0.0,0.1828,0.1836,0.0,0.1883,0.1919,0.1951,0.1975,0.2196,0.2302,0.2302,0.2276,0.2289,0.2344,0.2074,0.1952,0.1977,0.1977,0.1977,0.1975,0.1945,0.1932,0.1929,0.1899,0.1885,0.1883,0.1853,0.184,0.1838,0.1814,0.1805,0.1808,0.1839,0.1835,0.1817,0.0,0.0,0.0,0.0,0.0,0.0,0.0,0.119,0.125,0.1366,0.1384,0.1406,0.1459,0.1412,0.1369,0.0,0.0,0.0,0.0,0.0,0.0,0.0,0.0,0.0,0.0,0.0,0.0,-0.3887,-0.3977,0.0,0.0,0.0,0.0,0.0,0.0,-0.4157,-0.4462,-0.454,0.0,0.0,0.0,0.0,0.0,0.0,0.0,0.0,0.0,0.0,0.0,0.0,0.0,-0.3803,-0.3704,-0.3685,-0.3751,-0.3525,0.0,0.0,-0.3386,-0.3313,-0.3327,-0.339,-0.3354,-0.3361,-0.3662,0.0,-0.358,-0.3754,-0.3834,-0.3846,-0.3768,-0.3664,-0.3279,0.0,0.0,0.0413,0.1517,0.186,0.1886,0.1829,0.0,0.0,0.1798,0.1824,0.1853,0.1883,0.194,0.1974,0.1977,0.1974,0.2096,0.2096,0.197,0.2094,0.21,0.1974,0.1974,0.1977,0.1977,0.1977,0.1975,0.1945,0.1932,0.1929,0.1899,0.1885,0.1883,0.1853,0.184,0.184,0.1838,0.1836,0.184,0.187,0.188,0.1877,0.0,0.0,0.0,0.0,0.0,0.0,0.0,0.1204,0.1261,0.1399,0.1433,0.1461,0.1504,0.1486,0.1445,0.0,0.0,0.0,0.0,0.0,0.0,0.0,0.0,0.0,0.0,0.0,-0.3173,-0.4147,-0.4046,0.0,0.0,0.0,0.0,0.0,0.0,-0.3959,-0.4081,-0.4081,0.0,0.0,0.0,0.0,0.0,0.0,0.0,0.0,0.0,0.0,0.0,0.0,0.0,0.0,-0.3868,-0.3816,0.0,0.0,-0.3761,-0.3801,-0.3582,-0.3526,-0.3549,-0.3439,-0.3308,-0.3237,-0.3642,0.0,-0.3423,-0.3726,-0.3834,-0.3862,-0.3833,-0.3389,-0.2685,0.0,0.0,0.0,0.1581,0.1943,0.1986,0.1808,0.1802,0.0,0.0,0.2032,0.2063,0.2118,0.2045,0.1958,0.1975,0.1977,0.2213,0.2557,0.2313,0.2313,0.2557,0.2313,0.2202,0.1977,0.1977,0.1977,0.1977,0.1964,0.1959,0.1958,0.1945,0.194,0.1939,0.1907,0.1895,0.1894,0.1874,0.1868,0.1872,0.1902,0.1902,0.1885,0.0,0.0,0.0,0.0,0.0,0.0,0.1198,0.1219,0.1276,0.1416,0.1461,0.1493,0.1523,0.1517,0.149,0.1436,0.0,0.0,0.0,0.0,0.0,0.0,0.0,0.0,0.0,0.0,0.0,-0.3682,-0.374,-0.394,0.0,0.0,-0.414,-0.4108,0.0,0.0,0.0,0.0,0.0,0.0,0.0,0.0,0.0,0.0,0.0,0.0,0.0,0.0,0.0,0.0,0.0,0.0,0.0,0.0,0.0,0.0,-0.3779,-0.3768,-0.3576,-0.3656,-0.3601,-0.3474,-0.34,-0.3286,0.0,0.0,-0.3428,-0.3742,-0.3854,-0.3788,-0.3617,-0.279,-0.1777,-0.0837,0.0288,0.1188,0.1629,0.2002,0.2059,0.1764,0.0,0.1893,0.2116,0.2145,0.2073,0.2132,0.2167,0.2076,0.2097,0.2222,0.2457,0.2792,0.2669,0.2669,0.2792,0.2548,0.232,0.1977,0.1977,0.1977,0.1977,0.1977,0.1977,0.1977,0.1977,0.1977,0.1974,0.1944,0.1932,0.1929,0.1907,0.1899,0.1903,0.1933,0.1932,0.1911,0.0,0.0,0.0,0.0,0.0,0.0,0.0,0.1238,0.1299,0.1419,0.1461,0.1493,0.1523,0.15,0.1493,0.1523,0.0,0.0,0.0,0.0,0.0,0.0,0.0,0.0,0.0,0.0,0.0,0.0,0.0,-0.3548,-0.4482,-0.4382,-0.4381,-0.4291,0.0,0.0,0.0,0.0,0.0,0.0,0.0,0.0,0.0,0.0,0.0,0.0,0.0,0.0,0.0,0.0,0.0,0.0,0.0,-0.4046,-0.3874,0.0,-0.3605,-0.3671,-0.3375,-0.3406,-0.3496,-0.3496,-0.3467,-0.3498,0.0,0.0,-0.3673,-0.3834,-0.3899,-0.3624,-0.2841,-0.1675,-0.0626,-0.009,0.1134,0.1965,0.167,0.1928,0.1985,0.0,0.1731,0.175,0.175,0.1832,0.1898,0.1928,0.2325,0.2467,0.2467,0.2837,0.2837,0.2467,0.2837,0.2837,0.2467,0.2467,0.2344,0.1977,0.1977,0.1977,0.1977,0.1977,0.1977,0.1977,0.1977,0.1977,0.1974,0.1944,0.1932,0.1932,0.193,0.193,0.1934,0.1964,0.1975,0.1971,0.0,0.0,0.0,0.0,0.0,0.0,0.0,0.1238,0.1292,0.1392,0.143,0.147,0.152,0.1517,0.1516,0.1525,0.0,0.0,0.0,0.0,0.0,0.0,0.0,0.0,0.0,0.0,0.0,0.0,0.0,0.0,0.0,-0.4288,-0.4483,-0.4389,-0.43,-0.421,0.0,0.0,0.0,0.0,0.0,0.0,0.0,0.0,0.0,0.0,0.0,0.0,0.0,0.0,0.0,0.0,0.0,0.0,0.0,-0.3751,-0.3682,-0.3653,-0.3556,-0.3558,-0.3613,-0.3702,-0.3638,-0.3532,-0.3762,0.0,-0.3687,-0.3822,-0.3455,-0.2894,-0.2343,-0.1184,0.0093,0.1355,0.1664,0.1784,0.0,0.0,0.0,0.1765,0.2038,0.2177,0.2491,0.2577,0.2639,0.2893,0.2813,0.2837,0.2837,0.296,0.2946,0.2794,0.2915,0.2915,0.2792,0.2549,0.2442,0.2344,0.2099,0.1977,0.1977,0.1977,0.1977,0.1977,0.1977,0.1964,0.1945,0.1934,0.1919,0.19,0.19,0.19,0.1904,0.1934,0.1945,0.1944,0.0,0.0,0.0,0.0,0.0,0.0,0.0,0.1238,0.1286,0.1363,0.14,0.1445,0.1517,0.1516,0.1523,0.1557,0.0,0.0,0.0,0.0,0.0,0.0,0.0,0.0,0.0,0.0,0.0,0.0,0.0,0.0,0.0,0.0,0.0,-0.3964,-0.4223,0.0,0.0,0.0,0.0,0.0,0.0,0.0,-0.4594,0.0,0.0,0.0,0.0,0.0,0.0,0.0,0.0,0.0,0.0,0.0,0.0,0.0,-0.3848,-0.377,-0.3731,-0.3738,-0.3784,-0.3904,-0.3691,-0.365,0.0,0.0,-0.3672,-0.3488,-0.2927,-0.2227,-0.1456,-0.0552,0.0468,0.1751,0.1874,0.1802,0.0,0.0,0.0,0.1809,0.2066,0.2321,0.2571,0.2607,0.2883,0.316,0.3069,0.3086,0.3209,0.3332,0.3309,0.3136,0.303,0.3041,0.3162,0.2796,0.2565,0.2467,0.2346,0.2099,0.1977,0.1977,0.1977,0.1975,0.1964,0.1948,0.0,0.1932,0.1919,0.1904,0.1915,0.1919,0.1922,0.1941,0.1948,0.1945,0.0,0.0,0.0,0.0,0.0,0.0,0.0,0.0,0.0,0.0,0.1373,0.1423,0.151,0.1498,0.1519,0.0,0.0,0.0,0.0,0.0,0.0,0.0,0.0,0.0,0.0,0.0,0.0,0.153,0.0583,-0.0099,-0.0504,0.0,0.0,0.0,0.0,0.0,0.0,0.0,0.0,0.0,-0.4393,-0.443,0.0,0.0,0.0,0.0,0.0,0.0,0.0,0.0,0.0,0.0,0.0,0.0,0.0,0.0,0.0,0.0,0.0,-0.3745,-0.3808,-0.3884,-0.3735,-0.3685,-0.3828,0.0,0.0,-0.2752,-0.2263,-0.1581,-0.0269,0.0091,0.0463,0.1396,0.1757,0.0,0.0,0.1911,0.0,0.0,0.205,0.2299,0.2397,0.2382,0.2514,0.2954,0.3086,0.3209,0.3455,0.3704,0.3679,0.3505,0.3185,0.3207,0.3451,0.3079,0.2835,0.259,0.2467,0.2346,0.1977,0.1977,0.1977,0.1975,0.1947,0.1933,0.1932,0.1932,0.1929,0.193,0.1959,0.197,0.2093,0.2096,0.2096,0.221,0.0,0.0,0.0,0.0,0.0,0.0,0.0,0.0,0.0,0.0,0.1373,0.1407,0.1452,0.1491,0.1524,0.0,0.0,0.0,0.0,0.0,0.0,0.0,0.0,0.0,0.0,0.0,0.0,0.1561,0.1371,0.0792,-0.0101,-0.1404,0.0,0.0,0.0,0.0,0.0,0.0,0.0,0.0,-0.4349,-0.4373,0.0,0.0,0.0,0.0,-0.4308,-0.43,0.0,0.0,0.0,0.0,0.0,0.0,0.0,0.0,-0.2036,-0.2038,-0.1988,0.0,-0.4051,-0.4135,-0.3406,-0.2701,0.0,0.0,0.0,0.0,0.0,-0.0367,0.0,0.0653,0.1316,0.177,0.1803,0.1727,0.1955,0.1966,0.0,0.2106,0.2149,0.2164,0.2607,0.2774,0.294,0.333,0.3579,0.3704,0.3828,0.3702,0.3697,0.3807,0.3325,0.3189,0.3396,0.2788,0.2804,0.3209,0.2469,0.2222,0.2344,0.2099,0.1977,0.1977,0.1969,0.1952,0.1932,0.1932,0.1918,0.1898,0.1904,0.2263,0.2743,0.2656,0.303,0.351,0.0,0.0,0.0,0.0,0.0,0.0,0.0,0.0,0.0,0.0,0.0,0.0,0.0,0.0,0.0,0.0,0.0,0.0,0.0,0.0,0.0,0.0,0.0,0.0,0.0,0.0,0.0,0.0,0.0,0.1299,0.0,0.0,0.0,0.0,0.0,0.0,0.0,0.0,0.0,0.0,-0.432,0.0,0.0,0.0,0.0,0.0,-0.4304,-0.4032,0.0,-0.3492,-0.2864,-0.2238,0.0,0.0,0.0,0.0,-0.1431,-0.1431,-0.1431,-0.213,-0.2834,-0.2984,-0.2399,-0.1834,-0.187,0.0,0.0,0.0,0.0,0.0,0.0648,0.141,0.1922,0.0,0.1951,0.0,0.0,0.2011,0.2072,0.2138,0.2282,0.2535,0.2889,0.2913,0.3185,0.3702,0.3704,0.3828,0.3951,0.3704,0.3692,0.391,0.3517,0.3393,0.3656,0.3169,0.3058,0.3209,0.2716,0.2346,0.2222,0.2099,0.1977,0.1975,0.1962,0.1947,0.1932,0.2292,0.2391,0.2356,0.2611,0.2962,0.3185,0.2996,0.3238,0.3815,0.0,0.0,0.0,0.0,0.0,0.0,0.0,0.0,0.0,0.0,0.0,0.0,0.0,0.0,0.0,0.0,0.0,0.0,0.0,0.0,0.0,0.0,0.0,0.0,0.0,0.0,0.0,0.0,0.0,0.0,0.0,0.0,0.0101,0.0,0.0,0.0,0.0,0.0,0.0,0.0,-0.43,0.0,0.0,0.0,0.0,0.0,0.0,0.0,0.0,-0.2327,-0.1791,-0.1164,-0.1164,0.0,0.0,0.0,0.0,0.0,-0.0984,-0.0902,-0.091,-0.1197,-0.0993,-0.0711,-0.0917,0.0,0.0,0.0,0.0,0.0,0.0,0.1988,0.0,0.0,0.0,0.2336,0.196,0.2061,0.219,0.2162,0.2508,0.2872,0.2944,0.3043,0.3284,0.3822,0.3702,0.3702,0.3828,0.3951,0.3927,0.3875,0.3823,0.3847,0.3951,0.3554,0.3309,0.3086,0.2954,0.2585,0.21,0.1977,0.21,0.2097,0.207,0.2179,0.23,0.2782,0.2996,0.2958,0.3485,0.3706,0.3777,0.3116,0.3341,0.4004,0.0,0.0,0.0,0.0,0.0,0.0,0.0,0.0,0.0,0.0,0.0,0.0,0.0,0.0,0.0,0.0,0.0,0.0,0.0,0.0,0.0,0.0,0.0,0.0,0.0,0.0,0.0,0.0,0.0,0.0,0.1617,0.154,0.0813,0.0,0.0,0.0,0.0,0.0,0.0,-0.43,-0.43,0.0,0.0,0.0,0.0,0.0,0.0,0.0,0.0,-0.161,-0.0985,-0.0179,-0.0179,0.0,0.0,0.0,0.0,0.0,0.0986,0.1025,0.0865,-0.028,0.028,0.1126,0.0,0.0,0.0,0.0,0.0,0.0,0.0,0.1925,0.186,0.0,0.0,0.2159,0.2616,0.2271,0.2274,0.3013,0.28,0.2686,0.2905,0.3178,0.3448,0.3579,0.3704,0.3828,0.3951,0.3951,0.3946,0.3937,0.3927,0.3932,0.3951,0.344,0.3322,0.3455,0.28,0.2437,0.2467,0.2099,0.2346,0.2837,0.2831,0.3073,0.3561,0.3684,0.3651,0.3605,0.3298,0.3743,0.448,0.3831,0.441,0.5291,0.0,0.0,0.0,0.0,0.0,0.0,0.0,0.0,0.0,0.0,0.0,0.0,0.0,0.0,0.0,0.0,0.0,0.0,0.0,0.0,0.0,0.0,0.0,0.0,0.0,0.0,0.0,0.0,0.0,0.1641,0.1641,0.1655,0.1017,-0.0196,0.0,0.0,0.0,0.0,-0.2739,-0.2774,0.0,0.0,0.0,0.0,0.0,0.0,0.0,0.0,0.0,0.0,0.0358,0.0717,0.0717,0.0,0.0,0.0,0.0,0.0,0.1436,0.1478,0.1523,0.1241,0.1454,0.0,0.0,0.0,0.0,0.0,0.0,0.0,0.0,0.0,0.2907,0.3675,0.3282,0.2873,0.2844,0.3308,0.3546,0.3127,0.3638,0.3897,0.3537,0.3561,0.3702,0.3704,0.3828,0.3951,0.3951,0.3951,0.3951,0.3951,0.4007,0.4108,0.4143,0.3949,0.385,0.3699,0.3427,0.3185,0.3207,0.3083,0.3207,0.3453,0.3453,0.3453,0.3453,0.382,0.3891,0.3809,0.3839,0.4366,0.5051,0.4739,0.49,0.5163,0.0,0.0,0.0,0.0,0.0,0.0,0.0,0.0,0.0,0.0,0.0,0.0,0.0,0.0,0.0,0.0,0.0,0.0,0.0,0.0,0.0,0.0,0.0,0.0,0.0,0.0,0.1644,0.1628,0.1644,0.1655,0.1662,0.1662,0.1224,0.0,0.0,0.0,0.0,0.0,-0.1203,-0.1361,0.0,0.0,0.0,0.0,0.0,0.0,0.0,0.0,0.0,0.0,0.0,0.0,0.0,0.0,0.0,0.1436,0.1436,0.1436,0.1436,0.1463,0.1598,0.214,0.0,0.0,0.0,0.0,0.0,0.0,0.0,0.0,0.0,0.3428,0.406,0.4637,0.4428,0.4205,0.4033,0.4819,0.5061,0.3864,0.4841,0.5111,0.4083,0.4074,0.4074,0.4094,0.408,0.4066,0.4052,0.4066,0.406,0.4029,0.4306,0.4394,0.4432,0.4505,0.4299,0.4024,0.4024,0.391,0.3924,0.3692,0.382,0.4066,0.3943,0.3822,0.3699,0.4192,0.4237,0.4242,0.4628,0.4911,0.5244,0.5451,0.5299,0.5159,0.0,0.0,0.0,0.0,0.0,0.0,0.0,0.0,0.0,0.0,0.0,0.0,0.0,0.0,0.0,0.0,0.0,0.0,0.0,0.0,0.0,0.0,0.0,0.0,0.0,0.162,0.1633,0.1659,0.1633,0.1635,0.1662,0.1662,0.1644,0.1513,0.0,0.0,0.0,0.0,-0.0772,-0.1324,-0.1392,0.0,0.0,0.0,0.0,0.0,0.0,0.0,0.0,0.0,0.0,0.0,0.0,0.0,0.1436,0.1436,0.1436,0.1436,0.1436,0.1478,0.1531,0.1661,0.0,0.0,0.0,0.0,0.0,0.0,0.0,0.0,0.0,0.4418,0.4823,0.4462,0.5178,0.6026,0.6967,0.6602,0.6237,0.6145,0.6263,0.581,0.4527,0.4723,0.471,0.453,0.4351,0.4532,0.4711,0.4774,0.4747,0.4611,0.4661,0.478,0.4715,0.4698,0.4467,0.413,0.413,0.4044,0.3741,0.3309,0.3697,0.4803,0.4189,0.4561,0.5671,0.5794,0.569,0.5424,0.4976,0.4865,0.4906,0.5777,0.599,0.5998,0.0,0.0,0.0,0.0,0.0,0.0,0.0,0.0,0.0,0.0,0.0,0.0,0.0,0.0,0.0,0.0,0.0,0.0,0.0,0.0,0.0,0.0,0.0,0.1609,0.159,0.1625,0.1641,0.1635,0.1641,0.1641,0.1635,0.1654,0.0,0.0,0.0,0.0,0.0,0.0,0.0,0.0367,0.0364,0.0363,0.0,0.0,0.0,0.0,0.0,0.0,0.0,0.0,0.1436,0.1436,0.1436,0.1436,0.1436,0.1436,0.1436,0.1436,0.1436,0.1756,0.2101,0.25,0.0,0.0,0.0,0.0,0.0,0.0,0.0,0.0,0.0,0.0,0.7177,0.6949,0.7568,0.8193,0.8557,0.8945,0.8945,0.8332,0.8587,0.8366,0.7301,0.7025,0.6657,0.5706,0.5679,0.538,0.4824,0.4848,0.4574,0.4124,0.4691,0.478,0.4287,0.4818,0.5051,0.498,0.4918,0.4889,0.5129,0.4868,0.5007,0.5544,0.5298,0.5176,0.5298,0.5298,0.5233,0.5134,0.5503,0.5725,0.5928,0.6246,0.6467,0.6467,0.0,0.0,0.0,0.0,0.0,0.0,0.0,0.0,0.0,0.0,0.0,0.0,0.0,0.0,0.0,0.0,0.0,0.0,0.0,0.0,0.0,0.0,0.0,0.1587,0.1585,0.1617,0.1628,0.1617,0.1647,0.1651,0.1632,0.0,0.0,0.0,0.0,0.0,0.0,0.0,0.0,0.0,0.1453,0.1449,0.0,0.0,0.0,0.0,0.0,0.0,0.0,0.0,0.1436,0.1436,0.1436,0.1436,0.1525,0.1436,0.1623,0.1721,0.1721,0.2033,0.2649,0.0,0.0,0.0,0.0,0.0,0.0,0.0,0.0,0.0,0.0,0.0,0.0,0.8922,0.9683,1.0199,1.0299,1.0981,1.102,1.003,1.0407,1.0315,0.9252,0.8976,0.8244,0.6803,0.678,0.6111,0.4824,0.5061,0.4773,0.4091,0.4735,0.4936,0.4589,0.5111,0.5463,0.5549,0.5354,0.5463,0.5872,0.5596,0.5612,0.5916,0.5671,0.5421,0.5172,0.5172,0.5265,0.5331,0.5962,0.6419,0.6684,0.6802,0.6798,0.6916,0.0,0.0,0.0,0.0,0.0,0.0,0.0,0.0,0.0,0.0,0.0,0.0,0.0,0.0,0.0,0.0,0.0,0.0,0.0,0.0,0.0,0.0,0.0,0.1554,0.1614,0.1587,0.1587,0.1617,0.1647,0.1662,0.1662,0.163,0.0,0.0,0.0,0.0,0.0,0.0,0.0,0.0,0.1493,0.148,0.1476,0.0,0.0,0.0,0.0,0.0,0.0,0.0,0.1436,0.1436,0.1436,0.1615,0.1794,0.1525,0.2002,0.2587,0.2405,0.2497,0.2893,0.0,0.0,0.0,0.0,0.0,0.0,0.0,0.0,0.7925,0.8244,0.8686,0.9286,1.0219,1.1232,1.2072,1.2325,1.2601,1.2354,1.139,1.1639,1.1331,1.0012,0.989,0.9136,0.7656,0.7434,0.6598,0.4944,0.5418,0.5459,0.4485,0.5165,0.5508,0.5508,0.5508,0.5553,0.5643,0.5549,0.5602,0.5786,0.5136,0.5295,0.5916,0.5172,0.5295,0.5916,0.5916,0.6162,0.6394,0.6297,0.6561,0.6898,0.7266,0.7383,0.7383,0.0,0.0,0.0,0.0,0.0,0.0,0.0,0.0,0.0,0.0,0.0,0.0,0.0,0.0,0.0,0.0,0.0,0.0,0.0,0.0,0.0,0.0,0.0,0.0,0.0,0.0,0.1587,0.1617,0.1626,0.163,0.0,0.0,0.0,0.1553,0.0,0.0,0.0,0.0,0.0,0.0,0.1452,0.1449,0.1448,0.0,0.0,0.0,0.0,0.0,0.0,0.0,0.0,0.0,0.2511,0.269,0.2598,0.2683,0.323,0.3789,0.3882,0.4652,0.0,0.5646,0.0,0.0,0.0,0.0,0.0,0.0,0.9439,0.9831,1.0044,1.0785,1.1295,1.1321,1.209,1.2855,1.3119,1.3314,1.3324,1.2964,1.2844,1.2621,1.231,1.1663,1.0679,0.9509,0.8533,0.76,0.6856,0.6007,0.5474,0.5366,0.5366,0.5221,0.4822,0.5221,0.5463,0.5549,0.552,0.5602,0.5782,0.5503,0.5518,0.5827,0.5884,0.5998,0.6185,0.6503,0.6775,0.7138,0.7104,0.719,0.7522,0.7723,0.7702,0.7643,0.0,0.0,0.0,0.0,0.0,0.0,0.0,0.0,0.0,0.0,0.1452,0.1463,0.0,0.0,0.0,0.0,0.0,0.0,0.0,0.0,0.0,0.0,0.0,0.0,0.0,0.1573,0.1598,0.0,0.0,0.0,0.0,0.0,0.0,0.1562,0.0,0.1517,0.0,0.0,0.1356,0.1436,0.1436,0.1436,0.1436,0.0,0.0,0.0,0.0,0.0,0.0,0.0,0.0,0.0,0.2685,0.3132,0.3492,0.3422,0.4357,0.541,0.5542,0.6306,0.0,0.7453,0.8046,0.8703,0.9898,0.0,0.0,0.0,1.0916,1.1255,1.1483,1.1886,1.2201,1.2349,1.2899,1.3336,1.3461,1.374,1.3813,1.3693,1.3564,1.3444,1.3444,1.2603,1.176,1.0543,0.9493,0.8336,0.7329,0.673,0.6318,0.5985,0.6189,0.6061,0.5843,0.6102,0.6312,0.6484,0.6484,0.6643,0.6725,0.612,0.5911,0.609,0.6426,0.6556,0.6506,0.6733,0.7143,0.7388,0.7388,0.7585,0.778,0.7845,0.795,0.8142,0.0,0.0,0.1311,0.1259,0.0,0.0,0.0,0.0,0.0,0.0,0.1436,0.1436,0.0,0.0,0.0,0.0,0.0,0.0,0.0,0.0,0.0,0.0,0.0,0.0,0.0,0.0,0.0,0.0,0.0,0.0,0.0,0.0,0.1585,0.1611,0.0,0.155,0.0,0.1393,0.1366,0.1436,0.1433,0.1433,0.1436,0.1436,0.0,0.0,0.0,0.0,0.0,0.0,0.0,0.0,0.2598,0.3489,0.4482,0.4014,0.5485,0.7221,0.7452,0.77,0.0,0.9338,0.9729,0.0,1.1376,1.1518,1.1452,1.1669,0.0,1.2232,1.2575,1.2283,1.2367,1.3296,1.3383,1.3412,1.3412,1.3781,1.4052,1.3684,1.3703,1.3712,1.3693,1.3102,1.2139,1.1035,1.0172,0.8896,0.7105,0.7443,0.739,0.6715,0.7174,0.7564,0.7806,0.7668,0.7718,0.8078,0.8078,0.8129,0.8237,0.6869,0.6345,0.6715,0.6817,0.698,0.6985,0.7089,0.7378,0.7627,0.7627,0.7755,0.8133,0.8133,0.8494,0.8854,0.0,0.0,0.1311,0.1259,0.0,0.0,0.0,0.0,0.0,0.0,0.0,0.0,0.0,0.0,0.0,0.0,0.0,0.0,0.0,0.0,0.0,0.0,0.0,0.0,0.0,0.0,0.0,0.0,0.0,0.0,0.0,0.0,0.0,0.158,0.0,0.1519,0.1394,0.1433,0.1419,0.1433,0.185,0.1769,0.1436,0.1436,0.1884,0.0,0.0,0.0,0.0,0.0,0.0,0.0,0.5324,0.6122,0.6213,0.6327,0.7184,0.8551,0.9903,1.0079,0.0,0.0,1.1177,1.1891,1.22,1.2312,1.2468,1.2153,1.2432,1.2721,1.2721,1.2646,1.2673,1.2587,1.2964,1.3069,1.2831,1.3419,1.3684,1.3324,1.3714,1.3751,1.3343,1.2864,1.2281,1.1647,1.0187,0.944,0.9519,0.8361,0.7977,0.863,0.8072,0.7904,0.8515,0.8064,0.8063,0.828,0.828,0.8382,0.8577,0.7475,0.7364,0.7898,0.8396,0.8766,0.9004,0.9029,0.9112,0.9335,0.9335,0.9406,0.9627,0.9627,0.9555,0.9721,0.0,0.0,0.0,0.0,0.0,0.0,0.0,0.0,0.0,0.0,0.0,0.0,0.0,0.0,0.0,0.0,0.0,0.0,0.0,0.0,0.0,0.0,0.1547,0.1585,0.1615,0.1617,0.1602,0.0,0.0,0.0,0.0,0.0,0.0,0.1592,0.0,0.1531,0.1406,0.1635,0.1792,0.1792,0.204,0.2132,0.2155,0.2155,0.2424,0.2875,0.2869,0.0,0.0,0.0,0.0,0.0,0.0,0.0,0.8011,0.7898,0.8163,0.896,1.0707,0.0,0.0,1.1344,0.0,1.2436,1.2436,1.2531,1.2606,1.2386,1.258,1.2767,1.2767,1.2682,1.2606,1.2597,1.2786,1.2928,1.2692,1.3161,1.3542,1.3305,1.3611,1.3695,1.3453,1.2942,1.2474,1.2242,1.1063,1.0546,1.0913,1.0101,0.9856,1.0314,0.9724,0.9586,0.9933,0.9511,0.9401,0.9592,0.9592,0.9551,0.9481,0.8679,0.853,0.8791,0.9209,0.9439,0.9503,0.9646,0.9707,0.972,0.9795,0.9869,0.9944,0.9944,1.0183,1.0436,0.0,0.0,0.0,0.0,0.0,0.0,0.0,0.0,0.0,0.0,0.0,0.0,0.0,0.0,0.0,0.0,0.0,0.0,0.0,0.0,0.0,0.0,0.1551,0.158,0.16,0.1606,0.1591,0.0,0.0,0.0,0.0,0.0,0.0,0.1615,0.0,0.0,0.1523,0.2039,0.2181,0.2242,0.2325,0.2596,0.2875,0.0,0.0,0.0,0.2861,0.3314,0.4312,0.7183,0.0,0.0,0.0,0.0,0.9306,0.8721,0.8615,0.8968,1.0707,0.0,1.112,1.2196,1.2436,0.0,1.2436,1.2436,1.2436,1.2436,1.2587,1.271,1.271,1.2559,1.2502,1.2682,1.2776,1.2805,1.2776,1.3126,1.3391,1.3391,1.357,1.3684,1.3573,1.3111,1.2759,1.2724,1.2234,1.1815,1.1667,1.1679,1.1687,1.1667,1.1398,1.1343,1.1511,1.1082,1.0996,1.1264,1.1264,1.1083,1.0732,1.0259,0.9895,0.9648,0.9919,0.9905,0.9785,1.0039,1.0088,1.0003,1.0137,1.02,1.0229,1.025,1.0826,1.1425,0.0,0.0,0.0,0.0,0.0,0.0,0.0,0.0,0.0,0.0,0.1436,0.1603,0.0,0.2178,0.2246,0.244,0.2835,0.2698,0.1648,0.0,0.0,0.1391,0.1538,0.156,0.1635,0.1564,0.1647,0.0,0.0,0.0,0.0,0.0,0.0,0.0,0.0,0.0,0.0,0.2157,0.2389,0.278,0.2818,0.2828,0.0,0.0,0.0,0.0,0.0,0.0,0.7891,0.8391,0.8532,0.0,0.0,0.0,0.8729,0.8631,0.8623,0.8968,1.0707,0.0,1.1903,0.0,1.2436,1.2436,0.0,1.2436,1.2436,1.2436,1.2465,1.2484,1.2484,1.2455,1.2446,1.2474,1.2786,1.2965,1.2795,1.3126,1.3391,1.3391,1.357,1.3564,1.3324,1.3368,1.3152,1.2733,1.2354,1.2105,1.208,1.1864,1.1864,1.208,1.1938,1.2056,1.2475,1.213,1.2043,1.2325,1.2325,1.2276,1.2406,1.2286,1.1606,1.0532,1.1175,1.1391,1.1232,1.128,1.1375,1.1503,1.1518,1.1744,1.2135,1.2291,1.2515,1.2819,0.0,0.0,0.0,0.0,0.0,0.0,0.0,0.0,0.0,0.0,0.0,0.1509,0.174,0.2747,0.3209,0.2884,0.3071,0.3037,0.2682,0.3348,0.3419,0.267,0.1874,0.1516,0.1619,0.1634,0.0,0.0,0.0,0.0,0.0,0.2097,0.2045,0.0,0.0,0.0,0.0,0.0,0.0,0.2601,0.2839,0.2931,0.0,0.0,0.0,0.0,0.0,0.0,0.0,0.8617,0.8559,0.8627,0.8926,0.0,0.0,0.0,0.8585,0.8976,1.0523,1.1419,1.2039,0.0,1.2436,1.2436,1.2436,1.2436,1.2436,1.2436,1.2436,1.2436,1.2436,1.2436,1.2436,1.2436,1.2597,1.2682,1.2597,1.2947,1.3211,1.3211,1.3495,1.3684,1.3444,1.3528,1.3546,1.3333,1.3084,1.3084,1.3084,1.2866,1.2857,1.3075,1.2551,1.2534,1.2955,1.2569,1.2407,1.2601,1.2601,1.2645,1.2724,1.2724,1.2312,1.1766,1.2088,1.226,1.2107,1.232,1.2388,1.2388,1.2602,1.2854,1.3065,1.3143,1.3061,1.3113,0.0,0.0,0.0,0.0,0.0,0.0,0.0,0.0,0.0,0.0,0.0,0.1938,0.1995,0.0,0.0,0.0,0.3637,0.3784,0.4112,0.5416,0.5773,0.4894,0.373,0.3035,0.2997,0.0,0.0,0.0,0.0,0.0,0.3147,0.3141,0.3112,0.0,0.2769,0.0,0.0,0.0,0.0,0.0,0.0,0.0,0.0,0.0,0.0,0.0,0.0,0.0,0.0,0.0,0.0,0.0,0.8609,0.8561,0.0,0.0,0.0,0.8845,1.0105,0.0,1.1662,1.2075,1.2215,1.2271,1.2318,1.2436,1.2436,1.2436,1.2436,1.2436,1.2436,1.2436,1.2436,1.2436,1.2484,1.2521,1.2521,1.2833,1.3088,1.3145,1.3419,1.3636,1.3684,1.3693,1.3693,1.3693,1.3693,1.3693,1.3693,1.3495,1.3457,1.3608,1.3073,1.2947,1.3251,1.2867,1.2776,1.2964,1.291,1.291,1.2964,1.2964,1.2964,1.2964,1.2724,1.2645,1.2539,1.282,1.2891,1.2829,1.3119,1.3385,1.3438,1.3483,1.3471,1.3345,0.0,0.0,0.0,0.0,0.0,0.0,0.0,0.0,0.0,0.0,0.0,0.3466,0.3459,0.356,0.3977,0.4854,0.5256,0.5479,0.561,0.6722,0.7666,0.8303,0.7826,0.0,0.6834,0.0,0.0,0.0,0.0,0.0,0.5426,0.5043,0.5045,0.5318,0.3555,0.2619,0.2569,0.0,0.0,0.0,0.0,0.3742,0.0,0.0,0.0,0.0,0.0,0.0,0.0,0.0,0.0,0.0,0.0,0.0,0.0,0.0,0.0,0.0,0.0,1.0053,1.0735,1.1335,1.1695,1.1889,1.229,1.2436,1.2436,1.2436,1.2436,1.2436,1.2436,1.2436,1.2436,1.2436,1.2616,1.2748,1.2748,1.2928,1.3145,1.3343,1.3391,1.3476,1.3674,1.3693,1.3693,1.3693,1.3693,1.3693,1.3693,1.3495,1.3391,1.34,1.3381,1.3381,1.341,1.3391,1.3485,1.3684,1.3495,1.3504,1.3684,1.3684,1.3684,1.3564,1.2964,1.2715,1.2706,1.2724,1.2838,1.3005,1.3031,1.3146,1.3321,1.3515,1.3722,1.4143,0.0,0.0,0.0,0.0,0.0,0.0,0.0,0.0,0.0,0.0,0.0,0.0,0.0,0.5864,0.5818,0.5842,0.6225,0.6317,0.6134,0.6641,0.7195,0.7625,0.8255,0.8454,0.8086,0.0,0.0,0.0,0.0,0.5902,0.5501,0.5496,0.5344,0.5128,0.4852,0.4776,0.4927,0.486,0.0,0.0,0.4365,0.6082,0.0,0.0,0.0,0.0,0.0,0.0,0.0,0.0,0.0,0.0,0.0,0.0,0.0,0.0,0.0,0.0,0.0,0.0,1.0414,1.0905,1.1259,1.1677,1.188,1.2126,1.2436,1.2436,1.2436,1.2436,1.2436,1.2436,1.2436,1.2436,1.2502,1.2606,1.2748,1.2937,1.3145,1.3362,1.3504,1.3608,1.3684,1.3693,1.3693,1.3693,1.3693,1.3693,1.3693,1.3495,1.3391,1.3391,1.3126,1.3051,1.3183,1.3325,1.3485,1.3693,1.3618,1.3618,1.3693,1.3693,1.3693,1.3693,1.3593,1.3453,1.3333,1.3471,1.3646,1.3839,1.3978,1.4152,1.4327,1.4401,1.4428,1.4326,0.0,0.0,0.0,0.0,0.0,0.5923,0.0,0.0,0.0,0.0,0.0,0.0,0.0,0.0,0.6737,0.6491,0.6676,0.6849,0.6869,0.6969,0.7181,0.7603,0.8424,0.8837,0.8609,0.0,0.0,0.0,0.0,0.0,0.0,0.0,0.6362,0.6029,0.6455,0.0,0.0,0.0,0.0,0.4066,0.0,0.0,0.9615,0.0,0.0,0.0,0.0,0.0,0.0,0.0,0.0,0.0,0.0,0.0,0.0,0.0,0.0,0.0,0.9175,0.0,0.0,1.0419,1.0848,1.1182,1.1736,1.1972,1.2252,1.2318,1.2436,1.2465,1.2531,1.2493,1.2465,1.254,1.255,1.2654,1.2937,1.3088,1.3249,1.3466,1.3608,1.3693,1.3693,1.3693,1.3693,1.3693,1.3693,1.3693,1.3693,1.3429,1.3249,1.3183,1.2975,1.2965,1.3173,1.3315,1.3485,1.3693,1.3618,1.3627,1.3693,1.3759,1.3797,1.3807,1.3948,1.3892,1.3703,1.392,1.4128,1.4326,1.4468,1.4566,1.467,1.467,1.4539,1.4426,0.0,0.5317,0.6395,0.6389,0.6819,0.7115,0.0,0.0,0.0,0.0,0.0,0.0,0.0,0.0,0.0,0.6666,0.6702,0.7123,0.7883,0.78,0.7963,0.8581,0.8582,0.8577,0.8473,0.0,0.0,0.0,0.0,0.0,0.0,0.0,0.8077,0.0,0.8337,0.7336,0.5675,0.0,0.435,0.6123,0.0,0.8625,0.8874,0.0,0.0,0.0,1.1159,1.1218,0.0,0.925,0.0,0.0,0.0,0.0,0.0,0.0,0.0,0.0,0.0,0.0,0.0,0.9968,1.0146,1.063,1.1729,1.1846,1.187,1.2281,1.2436,1.2502,1.272,1.2587,1.2521,1.2739,1.2776,1.2918,1.3334,1.3391,1.3466,1.3665,1.3693,1.3693,1.3693,1.3693,1.3693,1.3693,1.3684,1.3684,1.3693,1.3296,1.2984,1.2786,1.2956,1.3164,1.3391,1.3381,1.3485,1.3684,1.3495,1.3495,1.3693,1.391,1.4014,1.4014,1.4024,1.391,1.3721,1.3929,1.4128,1.4307,1.4317,1.4317,1.4408,1.4408,1.4408,1.4408,0.4124,0.5216,0.6192,0.6862,0.698,0.7085,0.0,0.0,0.0,0.0,0.0,0.0,0.0,0.0,0.0,0.7308,0.7409,0.7447,0.7522,0.7727,0.8052,0.84,0.8599,0.8682,0.0,0.0,0.0,0.0,0.0,0.0,0.0,0.0,0.0,0.0,0.848,0.8274,0.7766,0.7527,0.0,0.0,0.8582,0.9342,0.0,0.0,0.0,0.0,0.0,1.1154,1.1133,0.0,1.0247,0.9722,0.0,0.0,0.0,0.0,0.0,0.0,0.8731,0.0,0.0,0.0,0.0,0.0,1.0664,1.1221,1.1727,1.1889,1.2126,1.2455,1.2521,1.2606,1.2748,1.2947,1.2862,1.2918,1.3334,1.3391,1.3466,1.3665,1.3693,1.3693,1.3693,1.3693,1.3693,1.3693,1.3551,1.3532,1.3684,1.3438,1.3202,1.2994,1.2899,1.3022,1.3391,1.323,1.3334,1.3693,1.3627,1.3636,1.3693,1.391,1.4014,1.4033,1.4326,1.4336,1.4128,1.4043,1.4128,1.4326,1.4477,1.4576,1.48,1.48,1.48,1.4819,0.4845,0.5792,0.6725,0.7222,0.7376,0.7414,0.0,0.0,0.0,0.0,0.0,0.0,0.0,0.0,0.0,0.0,0.7834,0.7765,0.7826,0.7951,0.8186,0.8472,0.8718,0.8901,0.0,0.0,0.0,0.0,0.0,0.0,0.0,0.0,0.0,0.0,0.0,0.0,0.0,0.0,0.0,0.0,0.8798,0.0,0.0,1.0105,1.0325,0.0,0.0,0.0,1.124,1.124,1.0659,0.0,0.0,0.0,0.0,0.0,0.0,0.0,0.0,0.0,0.0,0.0,0.0,0.0,1.0553,1.1054,1.153,1.1907,1.2252,1.2465,1.2559,1.2606,1.2758,1.3136,1.3032,1.3041,1.3457,1.3514,1.3589,1.3797,1.3825,1.3854,1.3939,1.3873,1.3825,1.3825,1.3551,1.3362,1.3306,1.3277,1.3154,1.2947,1.2994,1.3145,1.3391,1.3343,1.3447,1.3693,1.3693,1.3693,1.3703,1.3996,1.409,1.4033,1.4355,1.4383,1.4185,1.4147,1.426,1.4449,1.4487,1.4733,1.5044,1.4959,1.5044,1.5196,0.0,0.675,0.7434,0.755,0.7815,0.0,0.0,0.0,0.0,0.0,0.0,0.0,0.0,0.0,0.0,0.0,0.8065,0.8116,0.8517,0.8375,0.0,0.0,0.0,0.0,0.0,0.0,0.0,0.0,0.0,0.0,0.0,0.0,0.0,0.0,0.8568,0.8568,0.0,0.0,0.0,0.8836,0.8698,0.9653,0.0,0.0,1.121,1.1183,1.1151,1.1208,1.1198,1.1198,1.0446,0.0,0.0,0.0,0.0,0.0,0.8894,0.0,0.0,0.0,0.0,0.0,0.9624,0.0,1.0845,1.1072,1.1194,1.2079,1.2281,1.2365,1.258,1.2477,1.2552,1.3114,1.3192,1.324,1.3636,1.3712,1.3797,1.3986,1.4033,1.4109,1.426,1.4118,1.4005,1.3977,1.3608,1.3211,1.2786,1.2975,1.3022,1.2843,1.3192,1.34,1.3419,1.358,1.3655,1.3655,1.3674,1.3674,1.3665,1.409,1.4194,1.4052,1.426,1.426,1.4128,1.4279,1.4449,1.4581,1.444,1.4733,1.5205,1.5007,1.5186,1.5498,0.652,0.7133,0.7848,0.8167,0.0,0.0,0.0,0.0,0.0,0.0,0.0,0.0,0.0,0.0,0.0,0.0,0.0,0.8641,0.0,0.0,0.0,0.0,0.0,0.0,0.0,0.0,0.0,0.0,0.0,0.0,0.0,0.0,0.0,0.0,0.0,0.0,0.0,0.0,0.0,1.0538,0.9183,0.0,1.1238,1.1201,1.1179,1.1249,1.1189,1.1198,1.1198,1.1002,1.0642,1.0233,0.0,0.0,0.0,0.0,0.0,0.0,0.0,0.0,0.0,0.0,0.0,0.0,0.9805,1.0281,1.0698,1.088,1.123,1.1612,1.1809,1.1952,1.2069,1.2185,1.2551,1.3175,1.3655,1.3835,1.3967,1.4005,1.4156,1.4203,1.4081,1.4033,1.3939,1.3769,1.3523,1.3211,1.2786,1.3126,1.3306,1.3268,1.3343,1.3466,1.3627,1.3514,1.3447,1.3447,1.3608,1.3608,1.3466,1.3882,1.4137,1.426,1.4477,1.4638,1.4742,1.4619,1.4496,1.4402,1.4695,1.4978,1.5205,1.5007,1.5092,1.529,0.7088,0.7462,0.7773,0.8096,0.0,0.0,0.0,0.0,0.0,0.0,0.0,0.0,0.0,0.0,0.0,0.0,0.0,0.0,0.0,0.0,0.0,0.0,0.0,0.0,0.0,0.0,0.0,0.0,0.0,0.0,0.0,0.0,0.0,0.0,0.0,0.0,0.0,0.0,0.9118,0.9858,0.9864,0.0,1.124,1.123,1.1198,1.1198,1.1198,1.1198,1.1198,1.1394,1.1153,0.0,0.0,1.066,1.0426,0.0,0.9894,1.0159,0.0,0.0,0.0,1.0617,0.0,0.0,0.0,1.0196,1.0587,1.0888,1.0958,1.1107,1.1494,1.1494,1.1529,1.1819,1.2257,1.2684,1.311,1.3526,1.3929,1.4137,1.4166,1.4203,1.4307,1.4137,1.3882,1.3561,1.3447,1.3249,1.2937,1.3221,1.3391,1.3391,1.3391,1.3485,1.3684,1.3381,1.3287,1.3391,1.3495,1.3485,1.34,1.3825,1.4005,1.4014,1.4336,1.4468,1.4487,1.4695,1.4657,1.4496,1.4704,1.5035,1.5356,1.5044,1.5196,1.5526,0.7616,0.7556,0.7651,0.8041,0.0,0.0,0.0,0.0,0.0,0.0,0.0,0.0,0.0,0.0,0.0,0.0,0.0,0.0,0.0,0.0,0.0,0.0,0.8771,0.891,0.0,0.0,0.0,0.0,0.0,0.0,0.0,0.0,0.0,0.0,0.0,0.0,0.0,0.0,0.0,0.9051,0.0,1.1056,1.0886,1.0969,1.1035,1.1044,1.1179,1.1198,1.1296,1.1785,1.1783,1.1566,1.1993,1.1606,0.0,0.0,0.0,0.0,0.0,0.0,0.0,0.0,0.0,1.0288,0.0,0.0,0.0,1.1,1.0932,1.0863,1.1368,1.1202,1.1141,1.1576,1.193,1.2131,1.2361,1.2956,1.3601,1.4137,1.4052,1.4099,1.4477,1.4137,1.3731,1.3353,1.3296,1.3211,1.3079,1.323,1.3362,1.3447,1.341,1.3466,1.3627,1.3296,1.3192,1.3325,1.341,1.3429,1.34,1.3778,1.3901,1.3825,1.4166,1.426,1.4232,1.4723,1.4865,1.4752,1.4752,1.5054,1.546,1.512,1.5337,1.5782,0.7731,0.7576,0.7681,0.8372,0.0,0.0,0.0,0.0,0.0,0.0,0.0,0.0,0.0,0.0,0.0,0.0,0.0,0.0,0.9681,0.0,0.0,0.0,0.0,0.0,0.9371,0.0,0.0,0.0,0.0,0.0,0.0,0.0,0.0,0.0,0.9839,0.0,0.0,0.0,0.9881,0.0,1.0905,1.0594,0.0,1.0174,1.0446,1.0665,1.1035,1.1198,1.1296,0.0,1.2092,1.2292,0.0,1.2932,1.3291,1.2067,0.0,0.0,0.0,0.0,0.0,0.0,1.2673,0.0,1.1042,0.0,1.1019,1.0601,0.0,1.0543,1.0765,0.0,0.0,1.0617,1.1092,1.1475,1.133,1.1968,1.2705,1.3712,1.374,1.3816,1.4062,1.3703,1.3362,1.3117,1.2937,1.2909,1.306,1.3088,1.3277,1.3646,1.3485,1.34,1.3429,1.3381,1.3268,1.3107,1.3476,1.3561,1.34,1.3627,1.391,1.4241,1.4288,1.4506,1.4837,1.4903,1.5026,1.5167,1.5167,1.5205,1.5262,1.5215,1.5366,1.5621,0.7695,0.764,0.7802,0.8313,0.0,0.0,0.0,0.0,0.0,0.0,0.0,0.0,0.0,0.0,0.0,0.0,0.0,1.0138,0.0,0.0,0.0,0.0,0.0,0.0,0.0,0.0,0.8901,0.0,0.8625,0.0,0.0,0.0,0.0,0.0,0.9481,0.0,0.9178,0.0,0.9935,0.0,0.0,0.0,0.0,1.0551,1.0872,1.0891,1.1161,1.1394,1.1785,1.2273,1.2822,0.0,0.0,0.0,0.0,0.0,0.0,0.0,0.0,0.0,0.0,0.0,0.0,0.0,1.1263,0.0,1.0972,1.0443,0.0,0.0,0.0,0.0,0.0,0.0,1.0841,1.1101,1.1126,1.1397,1.1992,1.2849,1.2931,1.2894,1.3212,1.3189,1.3164,1.3079,1.2994,1.2975,1.306,1.3183,1.3334,1.3514,1.3438,1.3447,1.3561,1.3211,1.3107,1.3258,1.3306,1.3353,1.34,1.3599,1.3788,1.3958,1.4203,1.4411,1.46,1.4959,1.5158,1.5233,1.5233,1.5233,1.5233,1.5233,1.5375,1.5593,0.7825,0.0,0.0,0.0,0.0,0.0,0.0,0.0,0.0,0.0,0.0,0.0,0.9797,0.9838,0.0,0.0,0.0,1.0211,0.0,0.0,0.9782,0.0,0.0,0.0,0.0,0.0,0.0,0.0,0.0,0.0,0.0,0.0,0.0,0.0,0.0,0.9323,0.956,0.0,1.0153,1.0108,1.0162,1.0274,1.0301,1.0826,1.1053,1.1198,1.1394,1.1688,1.2078,1.2759,1.3411,1.3975,1.4279,1.4154,1.3853,0.0,0.0,0.0,1.4386,0.0,0.0,0.0,0.0,0.0,0.0,0.0,0.0,0.0,1.0784,0.0,0.0,0.0,0.0,0.0,0.0,1.0858,1.0933,1.1091,1.138,1.2214,1.2249,1.2347,1.2569,1.2754,1.2955,1.2955,1.2956,1.2918,1.2984,1.3183,1.3296,1.3296,1.3296,1.3372,1.3514,1.3069,1.3032,1.3391,1.3343,1.3381,1.3476,1.3684,1.3807,1.3873,1.4175,1.4374,1.4515,1.4969,1.5186,1.5224,1.5177,1.5224,1.5319,1.5319,1.5498,1.5753,0.812,0.8032,0.0,0.0,0.0,0.0,0.0,0.0,0.0,0.0,0.0,0.0,0.0,0.0,0.0,0.0,0.0,1.0863,1.0551,0.0,1.0086,0.0,0.0,0.9766,0.0,0.0,0.0,0.0,0.0,0.0,0.0,0.0,0.0,0.0,0.0,0.9351,0.9306,1.0341,1.0678,1.0523,1.0997,1.1179,1.1151,1.0683,1.0835,1.1296,1.1785,1.198,1.2175,1.3147,1.3705,1.401,1.4505,1.4714,1.4664,0.0,0.0,0.0,1.5318,1.5463,1.5415,1.5173,1.4999,1.4725,1.3568,0.0,1.3502,0.0,0.0,0.0,0.0,0.0,0.0,0.0,0.0,0.0,0.0,1.0582,1.0982,1.1863,1.2214,1.2434,1.2434,1.249,1.2602,1.2602,1.2469,1.255,1.2767,1.2965,1.3079,1.3079,1.3079,1.3079,1.3088,1.3069,1.3164,1.3391,1.3797,1.3873,1.3684,1.3901,1.4109,1.4288,1.4307,1.4544,1.4912,1.4931,1.5054,1.5215,1.5016,1.5196,1.5555,1.5555,1.581,1.616,0.8551,0.0,0.0,0.0,0.0,0.0,0.0,0.9551,0.0,0.0,0.0,0.0,0.0,1.0348,1.0356,0.0,0.0,1.0484,1.0382,1.0373,0.0,0.0,0.0,0.9647,0.0,0.0,0.0,0.0,0.0,0.0,0.0,0.0,0.0,0.0,0.0,0.94,0.0,0.0,0.0,0.0,0.0,1.1442,1.0807,1.126,1.1619,1.1785,1.237,1.2759,1.305,1.334,1.39,1.4382,1.44,1.469,1.4956,1.5059,1.5331,1.5589,1.5969,1.6143,1.6218,1.5749,1.554,1.5065,1.3959,1.37,1.3615,1.3131,0.0,0.0,0.0,0.0,0.0,0.0,0.0,0.0,0.0,1.0379,1.056,1.1084,1.1448,1.1671,1.1535,1.2037,1.2356,1.2219,1.2302,1.2474,1.255,1.288,1.3069,1.3069,1.3202,1.3343,1.3476,1.3202,1.324,1.3589,1.3599,1.3627,1.3693,1.391,1.4052,1.4128,1.4402,1.46,1.4742,1.4874,1.5054,1.5215,1.5007,1.5271,1.5753,1.5753,1.5942,1.6207,0.8917,0.0,0.0,0.0,0.0,0.0,0.0,0.0,0.0,0.0,1.0348,0.0,1.0799,0.0,1.044,0.0,1.0561,1.0365,1.0399,1.0399,0.0,0.9994,0.9778,0.0,0.0,0.0,0.0,0.0,0.0,0.895,0.0,0.0,0.0,0.0,0.0,0.9375,0.9952,1.0314,1.1002,0.0,0.0,1.2213,1.1512,1.2335,1.2294,1.1869,1.2727,1.3244,1.3545,1.3727,1.4134,1.4533,1.4352,1.4704,1.5144,1.5258,1.5657,1.6043,1.6235,1.6398,1.6461,1.5885,1.5676,1.5311,1.4503,1.4413,1.4458,1.4013,1.3625,1.3214,0.0,0.0,0.0,0.0,0.0,0.0,0.0,1.0331,1.0347,1.0574,1.0871,1.1209,1.1329,1.1655,1.1952,1.2119,1.2091,1.2252,1.2436,1.2843,1.3032,1.2965,1.324,1.3485,1.3684,1.3353,1.3391,1.3807,1.3674,1.3674,1.3807,1.4024,1.4166,1.4251,1.4515,1.4676,1.4752,1.4959,1.5158,1.5337,1.5205,1.5536,1.6065,1.5914,1.6037,1.6339,0.9096,0.9112,0.0,0.0,0.951,0.0,0.0,0.0,1.0298,0.0,1.0767,1.0993,1.1001,1.0993,1.0922,1.0738,1.0681,1.0604,1.0425,1.0196,0.0,0.0,0.9977,0.9895,1.0663,0.0,0.0,0.0,0.0,0.0,0.0,0.0,0.0,0.0,0.8909,0.0,0.997,1.0448,1.1321,1.2545,1.3271,1.3431,1.3214,1.3712,1.291,1.1582,1.3058,1.3545,1.363,1.4112,1.4304,1.4304,1.4316,1.4692,1.5159,1.5431,1.5909,1.6406,1.6355,1.6324,1.6262,1.5688,1.5615,1.5542,1.5197,1.5523,1.5801,1.5584,1.5922,1.5861,1.4764,0.0,0.0,0.0,0.0,0.0,0.0,1.0428,1.042,1.0444,1.0582,1.0921,1.1608,1.1338,1.1431,1.2163,1.1937,1.1916,1.2427,1.2833,1.2975,1.2786,1.3192,1.3495,1.3684,1.3514,1.3618,1.4014,1.4024,1.4024,1.4033,1.4232,1.444,1.4638,1.4648,1.4752,1.495,1.5139,1.5347,1.5545,1.5545,1.5933,1.6434,1.6056,1.6169,1.6594,0.912,0.9307,0.9502,0.0,0.96,0.9624,0.0,0.0,0.0,0.0,1.1061,1.1463,1.1829,1.1499,1.1173,1.1017,1.0742,0.0,0.0,0.0,0.0,0.9884,0.9662,0.973,0.9911,1.0369,0.0,0.9356,0.0,0.0,0.9161,0.0,0.0,0.0,0.0,1.0241,1.082,1.1656,1.249,1.3282,1.4045,1.3788,1.3114,1.412,1.3814,1.2855,1.3788,1.4112,1.4112,1.4496,1.4592,1.4629,1.502,1.5381,1.5758,1.6343,1.673,1.6976,1.7252,1.7265,1.7147,1.6542,1.6482,1.6367,1.6101,1.6168,1.6206,1.646,1.5815,1.5263,1.4954,1.3525,0.0,0.0,0.0,0.0,0.0,0.0,1.0176,1.0582,1.0766,1.0866,1.074,1.1236,1.1576,1.1567,1.1801,1.2054,1.2327,1.2608,1.2813,1.2994,1.3391,1.3636,1.3693,1.3797,1.3901,1.4014,1.4166,1.4232,1.4241,1.4459,1.4581,1.4638,1.4789,1.4884,1.4941,1.4988,1.513,1.5319,1.5319,1.5791,1.6509,1.6708,1.6849,1.6963,0.9348,0.9486,0.0,0.9624,0.0,1.0037,0.9954,1.0288,0.0,1.1107,1.1406,0.0,1.2042,1.1949,1.1732,1.1535,1.1212,0.0,1.061,0.0,0.0,0.9564,1.0357,1.0656,1.0215,1.0668,0.0,0.9904,0.0,0.0,0.9324,0.0,0.0,0.0,0.0,1.0915,1.1432,1.2726,1.3579,1.4057,1.4826,1.47,0.0,1.4631,1.4517,1.3975,1.434,1.4496,1.4496,1.4688,1.4871,1.5093,1.5439,1.587,1.633,1.6703,1.7055,1.7384,1.7384,1.7384,1.7265,1.6842,1.6727,1.6689,1.6555,1.6493,1.6455,1.6562,1.6054,1.5514,1.5453,1.4147,1.2832,0.0,0.0,0.0,0.0,0.0,0.0,1.0542,1.0775,1.0841,1.0444,1.1159,1.152,1.1309,1.1675,1.1855,1.1882,1.2429,1.2818,1.2841,1.3442,1.3873,1.3958,1.4081,1.4194,1.4279,1.4307,1.4364,1.4459,1.4581,1.4685,1.478,1.4978,1.5016,1.495,1.5224,1.5404,1.5545,1.5904,1.6339,1.6793,1.7123,1.719,1.7114,0.9624,0.9624,0.0,0.0,0.0,1.0492,1.045,1.0613,1.0906,1.1274,0.0,1.2001,1.2001,1.2219,1.237,1.2191,0.0,1.1705,1.1865,1.0604,0.9856,1.0002,1.1517,1.2037,1.1248,1.1185,0.0,0.0,0.0,0.0,0.0,0.0,0.0,0.0,0.0,0.0,0.0,1.38,1.455,1.4838,1.5589,1.5753,1.5523,1.5258,1.5016,1.4886,1.4801,1.4774,1.4737,1.4833,1.5215,1.5652,1.569,1.6238,1.6859,1.6898,1.7186,1.7582,1.7279,1.7279,1.7173,1.6842,1.6736,1.6813,1.6817,1.672,1.6696,1.6429,1.6393,1.6271,1.5934,1.5221,1.4019,0.0,0.0,0.0,0.0,0.0,0.0,0.0,1.0925,0.0,1.0592,1.1005,1.1318,1.1291,1.1467,1.1494,1.1442,1.2352,1.2794,1.2726,1.3583,1.4137,1.4307,1.4392,1.4515,1.4666,1.4534,1.4544,1.4676,1.4733,1.4818,1.4941,1.5148,1.513,1.5016,1.5583,1.5867,1.6018,1.6802,1.7105,1.7133,1.735,1.7303,1.7171,0.9624,0.0,0.0,0.0,0.0,1.0484,1.081,1.1345,1.1747,1.1629,1.199,1.2327,1.2327,1.2327,1.2427,1.2389,1.2281,0.0,0.0,0.0,0.0,1.1906,1.221,1.2362,1.2144,1.1661,1.1026,0.0,0.0,0.0,0.0,0.0,0.0,0.0,0.0,0.0,1.424,1.4731,1.5275,1.5719,1.5873,1.5861,1.5789,1.5535,1.5506,1.5639,1.5456,1.5208,1.512,1.5511,1.5901,1.6286,1.6724,1.6972,1.7194,1.7435,1.7542,1.7582,1.7582,1.7477,1.7477,1.7173,1.7067,1.7209,1.7398,1.7047,1.6725,1.6968,1.6599,1.6267,1.5897,1.507,1.372,1.1973,1.17,1.1581,0.0,0.0,0.0,0.0,0.0,1.1773,1.1411,1.1193,1.1125,1.13,1.1467,1.1773,1.2172,1.2514,1.2754,1.2955,1.3844,1.4279,1.4307,1.4818,1.5007,1.4884,1.5196,1.5177,1.4893,1.5243,1.5224,1.4941,1.5148,1.5215,1.5205,1.5489,1.5914,1.6424,1.6916,1.7105,1.7133,1.735,1.7398,1.7379,0.9624,0.0,0.0,0.0,1.0315,1.081,1.1326,1.1809,1.2082,1.1873,1.2054,1.2219,1.2219,1.2327,1.2436,1.2436,1.2436,1.2361,1.2385,1.2024,1.1986,1.2345,1.2442,1.2394,1.2394,1.1953,1.1367,1.0638,0.0,0.0,0.0,0.0,0.0,1.1356,0.0,1.3555,1.434,1.5016,1.5451,1.5704,1.605,1.6111,1.6074,1.5909,1.5915,1.589,1.5707,1.5708,1.5796,1.6056,1.6299,1.656,1.6998,1.7248,1.7395,1.7542,1.7582,1.7582,1.7582,1.7582,1.7622,1.7582,1.7502,1.7512,1.7708,1.7367,1.6933,1.6979,1.6609,1.6217,1.6004,1.514,1.4136,1.3285,1.2588,1.2103,1.1973,0.0,1.1684,0.0,0.0,0.0,1.1345,1.1236,1.1159,1.1309,1.1555,1.1744,1.1864,1.2429,1.2882,1.2998,1.3807,1.4364,1.4477,1.4978,1.5186,1.5092,1.529,1.5281,1.5092,1.5186,1.512,1.495,1.5262,1.5404,1.5441,1.598,1.6443,1.6831,1.7152,1.7275,1.7284,1.7388,1.7426,1.7426,0.0,0.9938,0.0,0.0,1.0819,1.1317,1.169,1.2098,1.2327,1.211,1.211,1.211,1.211,1.2219,1.2436,1.2436,1.2436,1.238,1.2442,1.2361,1.237,1.2433,1.2361,1.2436,1.2436,1.2178,1.176,0.0,1.129,1.1179,1.0782,0.0,1.2301,1.2395,1.3436,1.4002,1.422,1.5154,1.5579,1.57,1.6237,1.6324,1.6299,1.6285,1.621,1.5977,1.6061,1.6228,1.6367,1.6573,1.6754,1.6937,1.7248,1.7395,1.7582,1.7582,1.7582,1.7582,1.7582,1.7582,1.7635,1.7889,1.7727,1.759,1.7864,1.7502,1.6984,1.6829,1.651,1.6217,1.5779,1.529,1.4894,1.4678,1.3634,1.2889,1.2731,1.243,1.2101,0.0,0.0,0.0,1.1463,1.1345,1.1285,1.1469,1.1625,1.1669,1.1576,1.2456,1.2965,1.2965,1.3845,1.444,1.4695,1.5101,1.5319,1.5366,1.5366,1.5347,1.53,1.5186,1.5101,1.5082,1.546,1.5678,1.581,1.6556,1.6991,1.719,1.736,1.7426,1.7426,1.7426,1.7426,1.7435,1.0828,0.0,1.0837,1.0958,1.1335,1.169,1.1709,1.2098,1.2436,1.2327,1.2327,1.2327,1.2327,1.2327,1.2436,1.2436,1.2436,1.2436,1.2417,1.2427,1.2436,1.2417,1.2427,1.2436,1.2436,1.2091,1.1791,1.1408,1.0958,1.1052,1.1816,1.1701,1.2433,1.374,1.3882,1.4316,1.5004,1.5392,1.5828,1.6287,1.6511,1.6524,1.6324,1.6299,1.6287,1.6287,1.6567,1.6673,1.6791,1.7292,1.7515,1.7542,1.7542,1.7555,1.7582,1.7582,1.7582,1.7582,1.7582,1.7582,1.7595,1.7622,1.7424,1.729,1.7577,1.7193,1.6851,1.7009,1.663,1.6004,1.5256,1.567,1.5822,1.4812,1.4676,1.4403,1.3639,1.3228,1.2862,1.2374,0.0,0.0,1.2346,1.211,1.1882,1.1973,1.1791,1.18,1.2309,1.2852,1.3098,1.3098,1.3882,1.4506,1.4903,1.5319,1.5621,1.58,1.58,1.5706,1.5536,1.5697,1.5678,1.5517,1.5734,1.6046,1.6434,1.6887,1.7199,1.7398,1.7416,1.7426,1.7426,1.7426,1.7426,1.7454,1.0993,1.088,1.0915,1.1362,1.1548,1.1745,1.2089,1.2281,1.2436,1.2436,1.2436,1.2436,1.2436,1.2436,1.2436,1.2436,1.2436,1.2436,1.2436,1.2436,1.2436,1.2436,1.2436,1.2436,1.2436,1.2327,1.1972,1.159,1.2086,1.2264,1.2224,1.2885,1.3564,1.4159,1.4667,1.4998,1.5417,1.5944,1.6323,1.6524,1.663,1.663,1.6524,1.6749,1.6749,1.6524,1.6842,1.6961,1.7067,1.7279,1.7384,1.7384,1.7582,1.7582,1.7582,1.7582,1.7582,1.7582,1.7582,1.7582,1.7622,1.7809,1.7648,1.7512,1.8018,1.7642,1.7296,1.7372,1.6758,1.6284,1.6014,1.5893,1.5562,1.5266,1.4703,1.4128,1.3669,1.316,1.2776,1.2474,0.0,1.243,1.2228,1.211,1.2055,1.2183,1.1964,1.1891,1.1891,1.2721,1.3011,1.3017,1.3817,1.4506,1.4931,1.5347,1.5602,1.5687,1.58,1.5819,1.5744,1.5819,1.5952,1.6122,1.633,1.6594,1.6878,1.7171,1.735,1.7426,1.7426,1.7426,1.7426,1.7426,1.7426,1.7435,1.137,1.1256,1.1301,1.1773,1.1791,1.1944,1.2309,1.2436,1.2436,1.2436,1.2436,1.2436,1.2436,1.2436,1.2436,1.2436,1.2436,1.2436,1.2436,1.2436,1.2436,1.2436,1.2436,1.2436,1.2436,1.2436,1.2234,1.1824,1.2715,1.2955,1.2667,1.3947,1.4582,1.4666,1.5343,1.5667,1.5766,1.6571,1.6842,1.6842,1.6948,1.6948,1.6842,1.7067,1.6961,1.6736,1.7067,1.7173,1.7173,1.7279,1.7279,1.7384,1.7582,1.7582,1.7582,1.7582,1.7582,1.7582,1.7582,1.7582,1.7635,1.7849,1.7688,1.7659,1.818,1.7856,1.7546,1.7313,1.6795,1.6357,1.6525,1.6145,1.5712,1.5841,1.5042,1.4208,1.3861,1.3286,1.2843,1.2569,1.2531,1.2402,1.2119,1.211,1.2174,1.221,1.2257,1.2229,1.2072,1.2683,1.3077,1.3113,1.3957,1.4572,1.4931,1.5413,1.5678,1.5744,1.5886,1.6018,1.6141,1.6141,1.6301,1.6585,1.6802,1.6972,1.7123,1.7341,1.7426,1.7426,1.7426,1.7426,1.7435,1.7492,1.7473,1.7445,1.2427,1.2427,1.2436,1.2436,1.2436,1.2436,1.2436,1.2436,1.2436,1.2436,1.2436,1.2436,1.2436,1.2436,1.2436,1.2436,1.2436,1.2436,1.2436,1.2436,1.2436,1.2436,1.2436,1.2436,1.2436,1.2436,1.2342,1.2143,1.2442,1.2955,1.347,1.4593,1.5234,1.5487,1.5811,1.6064,1.6311,1.6961,1.7173,1.7173,1.7477,1.7477,1.7173,1.7173,1.6961,1.6736,1.7067,1.7173,1.7279,1.7477,1.7582,1.7582,1.7582,1.7582,1.7582,1.7582,1.7582,1.7582,1.7582,1.7582,1.7582,1.7582,1.7582,1.7556,1.7646,1.7603,1.7386,1.6842,1.6522,1.6304,1.6344,1.6513,1.6553,1.6126,1.5792,1.5268,1.4443,1.3723,1.323,1.2814,1.2767,1.2682,1.2455,1.2436,1.2327,1.201,1.2534,1.2852,1.3051,1.306,1.3258,1.3674,1.4298,1.4733,1.4931,1.5545,1.5961,1.6178,1.6178,1.6396,1.6793,1.6793,1.6793,1.6812,1.701,1.7105,1.7123,1.7341,1.7426,1.7426,1.7426,1.7426,1.7454,1.7653,1.7596,1.7483,1.2436,1.2436,1.2436,1.2436,1.2436,1.2436,1.2436,1.2436,1.2436,1.2436,1.2436,1.2436,1.2436,1.2436,1.2436,1.2436,1.2436,1.2436,1.2436,1.2436,1.2436,1.2436,1.2436,1.2436,1.2436,1.2436,1.2516,1.2891,1.3265,1.3887,1.485,1.5378,1.5836,1.6094,1.6516,1.6884,1.6961,1.7279,1.7477,1.7477,1.7384,1.7279,1.7173,1.7173,1.7173,1.7067,1.7371,1.7477,1.7477,1.7582,1.7582,1.7582,1.7582,1.7582,1.7582,1.7582,1.7582,1.7582,1.7582,1.7582,1.7582,1.7582,1.7477,1.7357,1.7538,1.7418,1.7177,1.677,1.6588,1.6636,1.6791,1.6559,1.6126,1.5803,1.53,1.4626,1.3673,1.3279,1.3013,1.2597,1.2673,1.2739,1.2673,1.2663,1.272,1.274,1.2441,1.2303,1.2289,1.3026,1.3433,1.3444,1.4182,1.4799,1.513,1.5621,1.5971,1.6188,1.6471,1.6745,1.701,1.7161,1.7152,1.702,1.7237,1.7237,1.7123,1.7341,1.7426,1.7435,1.7577,1.7549,1.7454,1.7653,1.7596,1.7464,1.2436,1.2436,1.2436,1.2436,1.2436,1.2436,1.2436,1.2436,1.2436,1.2436,1.2436,1.2436,1.2436,1.2436,1.2436,1.2436,1.2436,1.2436,1.2436,1.2436,1.2436,1.2436,1.2436,1.2436,1.2436,1.2654,1.2772,1.2989,1.3602,1.4484,1.5644,1.5971,1.6163,1.6324,1.6749,1.7067,1.7173,1.7384,1.7477,1.7582,1.7384,1.7384,1.7384,1.7384,1.7384,1.7384,1.7582,1.7582,1.7582,1.7582,1.7582,1.7582,1.7582,1.7582,1.7582,1.7582,1.7582,1.7582,1.7582,1.7582,1.7582,1.7582,1.7384,1.7251,1.7213,1.7076,1.6821,1.6539,1.6527,1.6622,1.6899,1.6677,1.6402,1.6153,1.5406,1.4657,1.38,1.3394,1.2965,1.2701,1.2729,1.2795,1.2871,1.288,1.2928,1.306,1.2852,1.2625,1.2533,1.3057,1.3481,1.3788,1.4444,1.5054,1.546,1.5886,1.6207,1.6424,1.684,1.7057,1.7114,1.7331,1.7303,1.7114,1.7331,1.7388,1.735,1.7483,1.7587,1.7672,1.7794,1.7766,1.7681,1.7889,1.7785,1.7568,1.2436,1.2436,1.2436,1.2436,1.2436,1.2436,1.2436,1.2436,1.2436,1.2436,1.2436,1.2436,1.2436,1.2436,1.2436,1.2436,1.2436,1.2436,1.2436,1.2436,1.2436,1.2436,1.2436,1.2436,1.2436,1.2989,1.2989,1.2545,1.3738,1.4922,1.5885,1.6217,1.6324,1.6324,1.663,1.6948,1.7173,1.7173,1.7384,1.7582,1.7582,1.7582,1.7582,1.7582,1.7582,1.7582,1.7582,1.7582,1.7582,1.7582,1.7582,1.7582,1.7582,1.7595,1.7609,1.7595,1.7582,1.7582,1.7582,1.7582,1.7582,1.7582,1.7384,1.7038,1.6792,1.6502,1.626,1.6308,1.6308,1.6392,1.667,1.696,1.7065,1.6811,1.6089,1.5353,1.4738,1.3781,1.3069,1.3069,1.2918,1.288,1.3069,1.3088,1.3098,1.3107,1.3457,1.3684,1.3712,1.3205,1.3471,1.4629,1.5044,1.5451,1.5857,1.6273,1.6594,1.6831,1.7237,1.7322,1.7133,1.7331,1.7322,1.7161,1.736,1.7558,1.7728,1.7747,1.787,1.805,1.8059,1.8059,1.8078,1.8276,1.8097,1.7776,1.2436,1.2436,1.2436,1.2436,1.2436,1.2436,1.2436,1.2436,1.2436,1.2436,1.2436,1.2436,1.2436,1.2436,1.2436,1.2436,1.2436,1.2436,1.2436,1.2436,1.2436,1.2436,1.2436,1.2436,1.2436,1.2545,1.298,1.3738,1.4922,1.5779,1.6217,1.6524,1.663,1.663,1.716,1.7265,1.7173,1.7384,1.7582,1.7582,1.7582,1.7582,1.7582,1.7582,1.7582,1.7582,1.7582,1.7582,1.7582,1.7582,1.7582,1.7582,1.7582,1.7742,1.7889,1.7649,1.7582,1.7582,1.7582,1.7582,1.7582,1.7582,1.716,1.6863,1.7041,1.6502,1.6103,1.6513,1.6598,1.6682,1.6948,1.7382,1.7304,1.6045,1.5742,1.5171,1.3947,1.3346,1.3069,1.3069,1.3173,1.3258,1.3306,1.3315,1.3381,1.3532,1.3249,1.3361,1.392,1.3945,1.4116,1.4846,1.5262,1.5602,1.5857,1.6273,1.667,1.7038,1.7303,1.7398,1.735,1.7407,1.7483,1.7577,1.7634,1.7681,1.7738,1.7908,1.8002,1.8059,1.822,1.8182,1.8078,1.8276,1.8191,1.8002,1.2436,1.2436,1.2436,1.2436,1.2436,1.2436,1.2436,1.2531,1.2669,1.2455,1.2412,1.243,1.2446,1.2436,1.2436,1.2436,1.2436,1.2436,1.2436,1.2436,1.2436,1.2436,1.2436,1.2436,1.2436,1.2654,1.3413,1.46,1.5351,1.5897,1.6324,1.6524,1.6736,1.6948,1.716,1.7265,1.7384,1.7384,1.7477,1.7582,1.7582,1.7662,1.7782,1.7635,1.7675,1.7769,1.7635,1.7582,1.7582,1.7582,1.7675,1.7796,1.7796,1.8009,1.8223,1.805,1.7903,1.7796,1.7796,1.7689,1.7609,1.7649,1.746,1.7316,1.7179,1.6796,1.6563,1.6634,1.6791,1.6923,1.7068,1.7184,1.697,1.6351,1.5655,1.4945,1.4124,1.3577,1.3249,1.3343,1.3457,1.3599,1.3797,1.3807,1.3854,1.3967,1.3836,1.3843,1.4411,1.4782,1.5072,1.5215,1.563,1.6037,1.6424,1.6651,1.6878,1.7105,1.7227,1.7331,1.7426,1.752,1.7624,1.7728,1.7832,1.7927,1.8021,1.8135,1.8248,1.8343,1.8456,1.8437,1.8352,1.8456,1.8371,1.8201,1.2374,1.2356,1.2436,1.2436,1.2436,1.2436,1.2436,1.2717,1.2885,1.2465,1.2367,1.2413,1.2346,1.2436,1.2436,1.2436,1.2436,1.2436,1.2436,1.2436,1.2436,1.2436,1.2436,1.2436,1.2436,1.3098,1.3964,1.5041,1.5351,1.5779,1.6324,1.6524,1.6842,1.7067,1.6842,1.7054,1.7477,1.7437,1.7424,1.7582,1.7635,1.7809,1.8023,1.7756,1.7849,1.8076,1.7809,1.7716,1.7716,1.7662,1.7862,1.8103,1.8063,1.8277,1.8557,1.8557,1.8384,1.817,1.813,1.7916,1.7689,1.7764,1.7877,1.7948,1.7466,1.7204,1.7055,1.6916,1.6996,1.7165,1.7086,1.6833,1.6589,1.6639,1.5502,1.4629,1.452,1.3868,1.3476,1.3712,1.374,1.3901,1.4317,1.4364,1.4383,1.4449,1.4619,1.4818,1.5016,1.5583,1.5848,1.5706,1.6075,1.6547,1.7095,1.7105,1.7105,1.7105,1.7171,1.7294,1.7483,1.7681,1.7804,1.7879,1.8031,1.821,1.8399,1.8399,1.8513,1.8673,1.8673,1.8673,1.8673,1.8673,1.856,1.8399,1.2441,1.2449,1.2436,1.2436,1.2436,1.2436,1.2436,1.2465,1.2484,1.2446,1.2356,1.2365,1.2446,1.2436,1.2436,1.2436,1.2436,1.2436,1.2436,1.2436,1.2436,1.2436,1.2436,1.2436,1.2436,1.3521,1.4385,1.5041,1.5565,1.6004,1.6324,1.6324,1.6524,1.6842,1.7067,1.7173,1.7292,1.7661,1.7716,1.7609,1.7862,1.8009,1.805,1.7996,1.8156,1.8424,1.837,1.8343,1.8317,1.8063,1.817,1.8384,1.813,1.8424,1.8851,1.8851,1.8824,1.8731,1.849,1.8384,1.83,1.8242,1.7953,1.7715,1.7852,1.7363,1.694,1.7274,1.7394,1.7373,1.6862,1.6994,1.6742,1.5491,1.4901,1.452,1.3923,1.3632,1.3532,1.392,1.3958,1.4128,1.4544,1.4581,1.4723,1.5063,1.512,1.5233,1.5451,1.5886,1.6197,1.6339,1.6575,1.6831,1.7105,1.7105,1.7105,1.7105,1.7464,1.7643,1.7681,1.7898,1.8191,1.8522,1.8371,1.8428,1.8626,1.8626,1.8645,1.8673,1.8673,1.8673,1.8673,1.8673,1.8654,1.8626,1.2449,1.2393,1.2474,1.2597,1.2521,1.2484,1.2597,1.271,1.2691,1.2465,1.2635,1.2739,1.2625,1.2616,1.2663,1.2767,1.2682,1.2616,1.2616,1.2502,1.2436,1.2436,1.2436,1.2545,1.2881,1.3738,1.4493,1.5041,1.5791,1.6205,1.6524,1.6687,1.6965,1.7407,1.7564,1.7751,1.7873,1.8114,1.8103,1.7862,1.817,1.829,1.829,1.829,1.8464,1.8704,1.8544,1.849,1.8464,1.833,1.8477,1.8704,1.8557,1.8811,1.9158,1.9158,1.9052,1.8738,1.8335,1.8493,1.8643,1.8416,1.8468,1.8437,1.8344,1.8077,1.786,1.7865,1.7925,1.7708,1.7085,1.6831,1.6425,1.5462,1.4809,1.4266,1.4005,1.3854,1.3882,1.4298,1.444,1.4676,1.5092,1.513,1.5205,1.5394,1.5413,1.5555,1.5876,1.6178,1.649,1.6812,1.6916,1.6963,1.6944,1.6944,1.7057,1.7284,1.7473,1.7738,1.8068,1.805,1.821,1.8494,1.8399,1.8409,1.8513,1.8626,1.8673,1.8673,1.8673,1.8673,1.8673,1.8673,1.8673,1.8673,1.2502,1.2512,1.255,1.2673,1.2597,1.2559,1.2673,1.2824,1.2824,1.255,1.2795,1.2956,1.2852,1.2833,1.2899,1.3051,1.2928,1.2833,1.2833,1.2682,1.254,1.2446,1.2593,1.293,1.3532,1.4115,1.4764,1.5256,1.6065,1.653,1.6731,1.7118,1.7585,1.8048,1.8053,1.8255,1.849,1.8557,1.8424,1.817,1.8477,1.8597,1.8597,1.8597,1.8771,1.8998,1.8771,1.8691,1.8691,1.8611,1.8824,1.9118,1.9052,1.9279,1.9573,1.9573,1.9412,1.8942,1.849,1.8635,1.8854,1.85,1.8816,1.8998,1.8643,1.8643,1.8533,1.8287,1.8348,1.8149,1.7462,1.6794,1.6327,1.5936,1.4972,1.4375,1.4788,1.4595,1.4538,1.5169,1.5265,1.5433,1.5865,1.5904,1.5942,1.5772,1.5772,1.5914,1.6235,1.6443,1.6698,1.702,1.7133,1.7105,1.6953,1.7001,1.718,1.7492,1.7596,1.7889,1.8352,1.8239,1.8276,1.8428,1.8428,1.8428,1.8437,1.8607,1.8673,1.8673,1.8673,1.8673,1.8683,1.873,1.8721,1.8692,1.2701,1.2739,1.2682,1.2493,1.2616,1.2682,1.2493,1.2474,1.255,1.272,1.2767,1.2852,1.3032,1.3041,1.3051,1.306,1.3051,1.3041,1.3041,1.3032,1.2843,1.2455,1.3177,1.3737,1.4169,1.4931,1.5487,1.5779,1.6476,1.6817,1.6817,1.7325,1.7785,1.8118,1.8131,1.8255,1.8504,1.8784,1.8731,1.8477,1.8771,1.8891,1.8891,1.8891,1.9078,1.9332,1.9305,1.9305,1.9265,1.8985,1.9265,1.9693,1.9426,1.972,2.0174,2.0174,1.9919,1.965,1.9637,1.9408,1.9069,1.8704,1.8728,1.8643,1.841,1.83,1.8287,1.83,1.8481,1.847,1.807,1.7285,1.671,1.6947,1.595,1.5411,1.6167,1.5856,1.5946,1.6829,1.654,1.6449,1.6894,1.6945,1.6828,1.653,1.6415,1.6424,1.6453,1.666,1.6793,1.6821,1.7199,1.7398,1.7379,1.7568,1.7672,1.7709,1.8097,1.8305,1.8361,1.8541,1.8636,1.8654,1.8654,1.8654,1.8654,1.8664,1.8673,1.8673,1.8673,1.8673,1.8702,1.8881,1.8834,1.873,1.2748,1.2795,1.2871,1.3003,1.306,1.3069,1.3032,1.3032,1.3013,1.2956,1.3069,1.3183,1.3258,1.3268,1.3315,1.3438,1.3334,1.3268,1.3268,1.3022,1.3086,1.3384,1.3688,1.4249,1.5166,1.5478,1.6034,1.6722,1.6931,1.7202,1.7656,1.794,1.8294,1.8645,1.8831,1.8911,1.9038,1.9145,1.9025,1.8784,1.9078,1.9092,1.8945,1.9132,1.9265,1.9372,1.9372,1.9479,1.9626,1.9506,1.9733,2.0054,1.9933,1.9933,1.9902,1.984,1.9773,1.9575,1.9878,1.9525,1.9013,1.8778,1.8775,1.8896,1.8782,1.8903,1.9024,1.9024,1.9241,1.9066,1.7962,1.7906,1.7796,1.7089,1.6865,1.6753,1.7163,1.7,1.7053,1.7432,1.7256,1.7046,1.7349,1.6954,1.6596,1.6471,1.6367,1.6405,1.667,1.701,1.7123,1.6991,1.7398,1.7549,1.7426,1.7501,1.7738,1.8116,1.8276,1.8428,1.855,1.8503,1.8475,1.8475,1.8475,1.8475,1.8484,1.8626,1.8673,1.8673,1.8673,1.8673,1.8683,1.8758,1.8825,1.8881,1.2852,1.2956,1.3088,1.3258,1.324,1.3221,1.3277,1.324,1.3192,1.3173,1.3296,1.341,1.3476,1.3485,1.3542,1.3674,1.3561,1.3485,1.3485,1.3442,1.3477,1.3861,1.4448,1.5058,1.5783,1.609,1.6541,1.7254,1.7341,1.7715,1.8276,1.8577,1.8823,1.9078,1.9279,1.9372,1.9372,1.9372,1.9252,1.9078,1.9292,1.9305,1.9225,1.9426,1.9559,1.9639,1.9639,1.9773,1.9933,1.9933,2.0134,2.0374,2.0252,2.0073,1.982,1.9763,1.9636,1.9641,1.9825,1.9653,1.9304,1.906,1.9132,1.9217,1.9314,1.947,1.9603,1.9603,1.9748,1.9638,1.8631,1.8721,1.8609,1.8161,1.8003,1.8062,1.8373,1.8184,1.805,1.8215,1.7909,1.7642,1.7511,1.7102,1.6874,1.7,1.6596,1.6528,1.6878,1.7171,1.7284,1.7209,1.7539,1.7719,1.7719,1.7719,1.7936,1.8352,1.8418,1.8532,1.8673,1.8522,1.8456,1.8456,1.8456,1.8456,1.8465,1.8617,1.8673,1.8673,1.8673,1.8673,1.8692,1.8825,1.8919,1.8671,1.3032,1.324,1.3325,1.3107,1.3069,1.3069,1.3069,1.2899,1.2928,1.3334,1.3391,1.3466,1.3665,1.3693,1.3693,1.3693,1.3693,1.3693,1.3693,1.4282,1.4336,1.379,1.5319,1.6035,1.5783,1.6606,1.7187,1.7254,1.7755,1.8236,1.8464,1.911,1.9372,1.9372,1.9372,1.9372,1.9372,1.9372,1.9372,1.9372,1.9372,1.9546,1.98,1.98,1.9987,2.0227,2.0227,2.0227,2.0241,2.0241,2.0428,2.0681,2.0309,2.0142,1.9979,1.9711,1.9794,1.9875,1.9601,1.9676,1.9893,1.9881,1.9676,1.9543,1.982,1.9881,1.9893,1.9893,1.9893,1.9977,2.0231,1.9522,1.9159,2.0095,1.9511,1.9078,1.9759,1.9422,1.9164,1.9164,1.8688,1.8142,1.7449,1.7319,1.749,1.7925,1.7243,1.6897,1.7095,1.7105,1.7209,1.7426,1.7624,1.7936,1.8352,1.8352,1.8352,1.8361,1.8569,1.8673,1.8673,1.8673,1.8673,1.8673,1.8673,1.8673,1.8673,1.8673,1.8673,1.8673,1.8673,1.8673,1.873,1.9146,1.8829,1.8244,1.3287,1.3457,1.358,1.3514,1.3504,1.3504,1.3504,1.3457,1.3457,1.358,1.3599,1.3618,1.3684,1.3693,1.3693,1.3693,1.3825,1.4154,1.464,1.5597,1.61,1.5998,1.6317,1.6623,1.7006,1.7205,1.7554,1.8058,1.825,1.8532,1.9123,1.9533,1.9559,1.9372,1.9586,1.9666,1.9653,1.9452,1.9599,1.996,1.976,1.984,2.0107,2.0107,2.016,2.0227,2.0227,2.0361,2.0548,2.0548,2.0611,2.0511,2.0208,2.0203,2.0298,1.9903,1.9966,2.0172,2.0038,2.0098,2.0122,1.9929,1.982,1.9784,1.9869,2.0026,2.0158,2.0158,2.0303,2.0323,1.983,1.9922,2.0036,1.983,1.9922,2.0161,2.0436,1.9795,1.9565,2.013,1.9234,1.8877,1.9338,1.8918,1.8757,1.9054,1.8489,1.8091,1.8011,1.7836,1.7728,1.7634,1.7983,1.8229,1.8352,1.8352,1.8428,1.8579,1.8645,1.8673,1.8673,1.8673,1.8673,1.8673,1.8673,1.8673,1.8673,1.8673,1.8673,1.8673,1.8673,1.8758,1.89,1.8699,1.8716,1.8596,1.3495,1.3608,1.3693,1.3693,1.3627,1.3599,1.3674,1.3618,1.3599,1.3674,1.3693,1.3721,1.3807,1.3816,1.3844,1.3929,1.4298,1.4735,1.5473,1.6442,1.7063,1.7063,1.7167,1.7446,1.7805,1.7924,1.827,1.8746,1.8877,1.9233,1.9706,1.9773,1.9773,1.972,1.9773,1.9867,1.996,1.9786,1.9907,2.0214,2.004,2.0147,2.0401,2.0401,2.0481,2.0588,2.0708,2.0788,2.0869,2.085,2.0641,2.0323,2.021,2.0145,2.0148,2.0148,2.0331,2.0539,2.0539,2.0625,2.0525,2.0231,2.0122,2.0074,2.0171,2.0315,2.0436,2.0436,2.0557,2.0527,2.0098,2.0388,2.0388,1.968,2.0052,2.0262,1.997,1.9922,1.9838,1.9979,1.969,1.9404,1.9849,1.9511,1.9255,1.9285,1.9375,1.8988,1.8246,1.8231,1.8106,1.7983,1.8305,1.8484,1.8484,1.8484,1.855,1.8673,1.8673,1.8673,1.8673,1.8673,1.8673,1.8673,1.8673,1.8673,1.8673,1.8673,1.8673,1.8683,1.8768,1.8872,1.8995,1.8661,1.8533,1.8578,1.3655,1.3693,1.3693,1.3693,1.3532,1.3476,1.3665,1.3551,1.3514,1.3693,1.3731,1.3816,1.4014,1.4033,1.4232,1.4423,1.5067,1.5711,1.6355,1.6954,1.7325,1.736,1.7966,1.8336,1.836,1.868,1.901,1.9254,1.9633,1.9876,2.0227,1.9987,2.0,2.0227,1.9987,2.0027,2.0267,2.0241,2.0267,2.0307,2.0281,2.0454,2.0722,2.0722,2.0882,2.1149,2.1416,2.1363,2.1062,2.0967,2.0577,2.0117,2.0364,2.0197,2.0087,2.0355,2.065,2.0848,2.0848,2.1021,2.1081,2.0841,2.0521,2.04,2.0617,2.069,2.0702,2.0702,2.0726,2.0738,2.0738,2.0599,2.0459,1.9738,1.9662,1.9678,1.9096,1.9726,2.0005,1.9413,1.9882,2.005,1.949,1.9719,1.9758,1.9275,1.999,1.9802,1.8236,1.8267,1.838,1.838,1.8569,1.8673,1.8673,1.8673,1.8673,1.8673,1.8673,1.8673,1.8673,1.8673,1.8673,1.8673,1.8673,1.8673,1.8673,1.8673,1.8683,1.8721,1.89,1.8995,1.8913,1.8946,1.8578,1.8096,1.3684,1.3693,1.3693,1.3693,1.3655,1.3636,1.3684,1.3797,1.3892,1.3939,1.4081,1.4194,1.4241,1.4739,1.5008,1.5047,1.5846,1.6783,1.7607,1.7564,1.792,1.8637,1.8584,1.8698,1.8903,1.8865,1.901,1.9254,1.9633,1.9876,2.0241,2.0414,2.0401,2.0241,2.0414,2.0521,2.0561,2.0334,2.0494,2.0895,2.0668,2.0748,2.1015,2.1015,2.1056,2.1122,2.1189,2.1182,2.098,2.0623,2.0597,2.065,2.0441,2.0464,2.0496,2.0634,2.0808,2.1121,2.0857,2.0894,2.1131,2.1059,2.0931,2.0847,2.0702,2.0822,2.0979,2.0979,2.1148,2.1162,2.0565,2.0422,2.0278,2.0135,1.9593,1.9626,2.0659,1.9971,1.9715,2.0885,2.0769,2.0819,2.1621,2.2047,2.2058,2.1246,2.1009,2.0358,1.9244,1.8817,1.8607,1.8607,1.8654,1.8673,1.8673,1.8673,1.8673,1.8673,1.8673,1.8673,1.8673,1.8673,1.8673,1.8673,1.8673,1.8673,1.8673,1.8673,1.8768,1.8919,1.8957,1.9006,1.8794,1.8533,1.8148,1.7763,1.3693,1.3769,1.3844,1.3844,1.392,1.3986,1.3986,1.4081,1.4156,1.4156,1.4241,1.4471,1.4954,1.4964,1.513,1.561,1.6371,1.7,1.7507,1.8047,1.8418,1.8547,1.8932,1.906,1.9072,1.9559,1.9802,1.9661,2.0035,2.0283,2.0655,2.0668,2.0668,2.0655,2.0668,2.0748,2.0869,2.0722,2.0828,2.1096,2.0949,2.0975,2.1109,2.0856,2.0856,2.0895,2.0915,2.094,2.0933,2.0684,2.0699,2.0835,2.0686,2.097,2.122,2.122,2.1358,2.1383,2.1229,2.1266,2.1328,2.1339,2.1257,2.1221,2.1088,2.116,2.1257,2.1257,2.1078,2.074,2.0451,2.0005,1.9704,1.9715,1.9463,1.9719,2.0489,2.0388,2.0534,2.1289,2.1449,2.1704,2.2416,2.2615,2.2287,2.1503,2.0783,2.0118,1.915,1.8942,1.8673,1.8673,1.8673,1.8673,1.8673,1.8673,1.8721,1.8815,1.8721,1.8673,1.8673,1.8673,1.8673,1.8673,1.8673,1.8673,1.8673,1.8673,1.8796,1.8985,1.9089,1.9156,1.9266,1.884,1.8252,1.7822,1.374,1.3892,1.4024,1.4052,1.4203,1.4307,1.4307,1.4345,1.4364,1.4364,1.4518,1.4867,1.5425,1.5071,1.5148,1.6145,1.6676,1.7066,1.7196,1.8406,1.8818,1.83,1.9161,1.9434,1.9217,2.0298,2.0535,2.0106,2.0527,2.0909,2.1109,2.0869,2.0882,2.1096,2.0855,2.0882,2.1109,2.1109,2.1136,2.1189,2.1189,2.1189,2.1062,2.0808,2.0654,2.0553,2.081,2.0806,2.0823,2.086,2.091,2.0984,2.1207,2.1584,2.1912,2.1912,2.1912,2.1824,2.1629,2.1691,2.1611,2.1618,2.1547,2.1571,2.1655,2.1607,2.1547,2.1547,2.1136,2.0589,2.0489,1.9892,1.9463,1.9506,1.9671,1.9995,2.0131,2.0883,2.1448,2.1647,2.2106,2.2573,2.2826,2.2623,2.2077,2.1282,2.0663,1.9805,1.9,1.8837,1.8673,1.8673,1.8673,1.8673,1.8673,1.8673,1.8777,1.8976,1.8806,1.8749,1.8787,1.8787,1.8787,1.8787,1.8787,1.8787,1.8787,1.8787,1.89,1.9099,1.9278,1.9477,1.9503,1.915,1.8514,1.7822,1.3929,1.3996,1.4062,1.4241,1.4288,1.4307,1.4307,1.4468,1.4591,1.4591,1.5257,1.5634,1.5014,1.5544,1.6145,1.7039,1.7313,1.7566,1.8222,1.857,1.9107,1.9639,1.9808,1.9808,1.9772,2.0244,2.0404,2.0106,2.0991,2.1363,2.1109,2.1069,2.1069,2.1109,2.1069,2.1069,2.1109,2.1109,2.1256,2.1496,2.1496,2.1368,2.0967,2.0967,2.0567,2.0144,2.0462,2.0642,2.0848,2.1083,2.1319,2.1657,2.1976,2.2011,2.2057,2.2057,2.2069,2.1939,2.1558,2.1701,2.1906,2.1898,2.1824,2.1933,2.2392,2.2138,2.1824,2.1824,2.1993,2.1924,2.1394,2.1125,2.1193,2.1408,2.0693,2.066,2.239,2.1977,2.1812,2.2805,2.3164,2.3393,2.3659,2.3584,2.3312,2.235,2.1566,2.0769,1.9805,1.9163,1.8673,1.8673,1.8673,1.8673,1.8673,1.8673,1.8777,1.8976,1.8947,1.9032,1.9212,1.9212,1.9212,1.9212,1.9212,1.9212,1.9212,1.9212,1.9335,1.9514,1.9543,1.9512,1.9168,1.8331,1.7998,1.7822,1.4137,1.4279,1.4383,1.4477,1.4581,1.4657,1.4657,1.4742,1.4799,1.4799,1.5135,1.5453,1.5453,1.5954,1.6338,1.6828,1.7219,1.7828,1.8627,1.9142,1.9614,1.9881,2.0026,2.0172,2.0148,2.0847,2.1124,2.0825,2.1346,2.1593,2.1603,2.1603,2.151,2.1363,2.1363,2.1269,2.1109,2.1109,2.1189,2.1323,2.1225,2.1162,2.0916,2.0691,2.0548,2.0223,2.0364,2.0811,2.1282,2.1406,2.1911,2.2537,2.223,2.2383,2.2586,2.1982,2.1914,2.1931,2.1801,2.1837,2.1934,2.2347,2.2307,2.2404,2.279,2.2693,2.2524,2.2524,2.2317,2.1965,2.1619,2.1322,2.1201,2.1779,2.1502,2.1669,2.2889,2.2769,2.2614,2.3043,2.3418,2.3599,2.3418,2.3194,2.298,2.235,2.1662,2.1092,2.0769,1.9967,1.9479,1.9479,1.9,1.873,1.8843,1.8843,1.9004,1.9325,1.9325,1.9316,1.9297,1.9174,1.9184,1.9288,1.9174,1.9184,1.9297,1.9297,1.942,1.9599,1.9599,1.9377,1.9204,1.8689,1.8164,1.7822]}]]